[[{"header":{"parameterUnit":"m.s-1","parameterCategory":1,"la1":31.0,"la2":29.5877,"lo1":-88.7671,"lo2":-86.6584,"dy":0.0162,"dx":0.0185,"nx":115,"ny":88,"refTime":"2023-09-21T12:00:00:Z","depth":0,"parameterNumber":2,"parameterNumberName":"U-component_of_WINDS"},"data":[0.0,0.0,0.0,0.0,0.0,0.0,0.0,0.0,0.0,0.0,0.0,0.0,0.0,0.0,0.0,0.0,0.0,0.0,0.0,0.0,0.0,0.0,0.0,0.0,0.0,0.0,0.0,0.0,0.0,0.0,0.0,0.0,0.0,0.0,0.0,0.0,0.0,0.0,0.0,0.0,0.0,0.0,0.0,0.0,0.0,0.0,0.0,0.0,0.0,0.0,0.0,0.0,0.0,0.0,0.0,0.0,0.0,0.0,0.0,0.0,0.0,0.0,0.0,0.0,0.0,0.0,0.0,0.0,0.0,0.0,0.0,0.0,0.0,0.0,0.0,0.0,0.0,0.0,0.0,0.0,0.0,0.0,0.0,0.0,0.0,0.0,0.0,0.0,0.0,0.0,0.0,0.0,0.0,0.0,0.0,0.0,0.0,0.0,0.0,0.0,0.0,0.0,0.0,0.0,0.0,0.0,0.0,0.0,0.0,0.0,0.0,0.0,0.0,0.0,0.0,0.0,0.0,0.0,0.0,0.0,0.0,0.0,0.0,0.0,0.0,0.0,0.0,0.0,0.0,0.0,0.0,0.0,0.0,0.0,0.0,0.0,0.0,0.0,0.0,0.0,0.0,0.0,0.0,0.0,0.0,0.0,0.0,0.0,0.0,0.0,0.0,0.0,0.0,0.0,0.0,0.0,0.0,0.0,0.0,0.0,0.0,0.0,0.0,0.0,0.0,0.0,0.0,0.0,0.0,0.0,0.0,0.0,0.0,0.0,0.0,0.0,0.0,0.0,0.0,0.0,0.0,0.0,0.0,0.0,0.0,0.0,0.0,0.0,0.0,0.0,0.0,0.0,0.0,0.0,0.0,0.0,0.0,0.0,0.0,0.0,0.0,0.0,0.0,0.0,0.0,0.0,0.0,0.0,0.0,0.0,0.0,0.0,0.0,0.0,0.0,0.0,0.0,0.0,0.0,0.0,0.0,0.0,0.0,0.0,0.0,0.0,0.0,0.0,0.0,0.0,0.0,0.0,0.0,0.0,0.0,0.0,0.0,0.0,0.0,0.0,0.0,0.0,0.0,0.0,0.0,0.0,0.0,0.0,0.0,0.0,0.0,0.0,0.0,0.0,0.0,0.0,0.0,0.0,0.0,0.0,0.0,0.0,0.0,0.0,0.0,0.0,0.0,0.0,0.0,0.0,0.0,0.0,0.0,0.0,0.0,0.0,0.0,0.0,0.0,0.0,0.0,0.0,0.0,0.0,0.0,0.0,0.0,0.0,0.0,0.0,0.0,0.0,0.0,0.0,0.0,0.0,0.0,0.0,0.0,0.0,0.0,0.0,0.0,0.0,0.0,0.0,0.0,0.0,0.0,0.0,0.0,0.0,0.0,0.0,0.0,0.0,0.0,0.0,0.0,0.0,0.0,0.0,0.0,0.0,0.0,0.0,0.0,0.0,0.0,0.0,0.0,0.0,0.0,0.0,0.0,0.0,0.0,0.0,0.0,0.0,0.0,0.0,0.0,0.0,0.0,0.0,0.0,0.0,0.0,0.0,0.0,0.0,0.0,0.0,0.0,0.0,0.0,0.0,0.0,0.0,0.0,0.0,0.0,0.0,0.0,0.0,0.0,0.0,0.0,0.0,0.0,0.0,0.0,0.0,0.0,0.0,0.0,0.0,0.0,0.0,0.0,0.0,0.0,0.0,0.0,0.0,0.0,0.0,0.0,0.0,0.0,0.0,0.0,0.0,0.0,0.0,0.0,0.0,0.0,0.0,0.0,0.0,0.0,0.0,0.0,0.0,0.0,0.0,0.0,0.0,0.0,0.0,0.0,0.0,0.0,0.0,0.0,0.0,0.0,0.0,0.0,0.0,0.0,0.0,0.0,0.0,0.0,0.0,0.0,0.0,0.0,0.0,0.0,0.0,0.0,0.0,0.0,0.0,0.0,0.0,0.0,0.0,0.0,0.0,0.0,0.0,0.0,0.0,0.0,0.0,0.0,0.0,0.0,0.0,0.0,0.0,0.0,0.0,0.0,0.0,0.0,0.0,0.0,0.0,0.0,0.0,0.0,0.0,0.0,0.0,0.0,0.0,0.0,0.0,0.0,0.0,0.0,0.0,0.0,0.0,0.0,0.0,0.0,0.0,0.0,0.0,0.0,0.0,0.0,0.0,0.0,0.0,0.0,0.0,0.0,0.0,0.0,0.0,0.0,0.0,0.0,0.0,0.0,0.0,0.0,0.0,0.0,0.0,0.0,0.0,0.0,0.0,0.0,0.0,0.0,0.0,0.0,0.0,0.0,0.0,0.0,0.0,0.0,0.0,0.0,0.0,0.0,0.0,0.0,0.0,0.0,0.0,0.0,0.0,0.0,0.0,0.0,0.0,0.0,0.0,0.0,0.0,0.0,0.0,0.0,0.0,0.0,0.0,0.0,0.0,0.0,0.0,0.0,0.0,0.0,0.0,0.0,0.0,0.0,0.0,0.0,0.0,0.0,0.0,0.0,0.0,0.0,0.0,0.0,0.0,0.0,0.0,0.0,0.0,0.0,0.0,0.0,0.0,0.0,0.0,0.0,0.0,0.0,0.0,0.0,0.0,0.0,0.0,0.0,0.0,0.0,0.0,0.0,0.0,0.0,0.0,0.0,0.0,0.0,0.0,0.0,0.0,0.0,0.0,0.0,0.0,0.0,0.0,0.0,0.0,0.0,0.0,0.0,0.0,0.0,0.0,0.0,0.0,0.0,0.0,0.0,0.0,0.0,0.0,0.0,0.0,0.0,0.0,0.0,0.0,0.0,0.0,0.0,0.0,0.0,0.0,0.0,0.0,0.0,0.0,0.0,0.0,0.0,0.0,0.0,0.0,0.0,0.0,0.0,0.0,0.0,0.0,0.0,0.0,0.0,0.0,0.0,0.0,0.0,0.0,0.0,0.0,0.0,0.0,0.0,0.0,0.0,0.0,0.0,0.0,0.0,0.0,0.0,0.0,0.0,0.0,0.0,0.0,0.0,0.0,0.0,0.0,0.0,0.0,0.0,0.0,0.0,0.0,0.0,0.0,0.0,0.0,0.0,0.0,0.0,0.0,0.0,0.0,0.0,0.0,0.0,0.0,0.0,0.0,0.0,0.0,0.0,0.0,0.0,0.0,0.0,0.0,0.0,0.0,0.0,0.0,0.0,0.0,0.0,0.0,0.0,0.0,0.0,0.0,0.0,0.0,0.0,0.0,0.0,0.0,0.0,0.0,0.0,0.0,0.0,0.0,0.0,0.0,0.0,0.0,0.0,0.0,0.0,0.0,0.0,0.0,0.0,0.0,0.0,0.0,0.0,0.0,0.0,0.0,0.0,0.0,0.0,0.0,0.0,0.0,0.0,0.0,0.0,0.0,0.0,0.0,0.0,0.0,0.0,0.0,0.0,0.0,0.0,0.0,0.0,0.0,0.0,0.0,0.0,0.0,0.0,0.0,0.0,0.0,0.0,0.0,0.0,0.0,0.0,0.0,0.0,0.0,0.0,0.0,0.0,0.0,0.0,0.0,0.0,0.0,0.0,0.0,0.0,0.0,0.0,0.0,0.0,0.0,0.0,0.0,0.0,0.0,0.0,0.0,0.0,0.0,0.0,0.0,0.0,0.0,0.0,0.0,0.0,0.0,0.0,0.0,0.0,0.0,0.0,0.0,0.0,0.0,0.0,0.0,0.0,0.0,0.0,0.0,0.0,0.0,0.0,0.0,0.0,0.0,0.0,0.0,0.0,0.0,0.0,0.0,0.0,0.0,0.0,0.0,0.0,0.0,0.0,0.0,0.0,0.0,0.0,0.0,0.0,0.0,0.0,0.0,0.0,0.0,0.0,0.0,0.0,0.0,0.0,0.0,0.0,0.0,0.0,0.0,0.0,0.0,0.0,0.0,0.0,0.0,0.0,0.0,0.0,0.0,0.0,0.0,0.0,0.0,0.0,0.0,0.0,0.0,0.0,0.0,0.0,0.0,0.0,0.0,0.0,0.0,0.0,0.0,0.0,0.0,0.0,0.0,0.0,0.0,0.0,0.0,0.0,0.0,0.0,0.0,0.0,0.0,0.0,0.0,0.0,0.0,0.0,0.0,0.0,0.0,0.0,0.0,0.0,0.0,0.0,0.0,0.0,0.0,0.0,0.0,0.0,0.0,0.0,0.0,0.0,0.0,0.0,0.0,0.0,0.0,0.0,0.0,0.0,0.0,0.0,0.0,0.0,0.0,0.0,0.0,0.0,0.0,0.0,0.0,0.0,0.0,0.0,0.0,2.1795,0.0,0.0,0.0,0.0,0.0,0.0,0.0,0.0,0.0,0.0,0.0,0.0,0.0,0.0,0.0,0.0,0.0,0.0,0.0,0.0,0.0,0.0,0.0,0.0,0.0,0.0,0.0,0.0,0.0,0.0,0.0,0.0,0.0,0.0,0.0,0.0,0.0,0.0,0.0,0.0,0.0,0.0,0.0,0.0,0.0,0.0,0.0,0.0,0.0,0.0,0.0,0.0,0.0,0.0,0.0,0.0,0.0,0.0,0.0,0.0,0.0,0.0,0.0,0.0,0.0,0.0,0.0,0.0,0.0,0.0,0.0,0.0,0.0,0.0,0.0,0.0,0.0,0.0,0.0,0.0,0.0,0.0,0.0,0.0,0.0,0.0,0.0,0.0,0.0,0.0,0.0,0.0,0.0,0.0,0.0,0.0,0.0,0.0,0.0,0.0,0.0,0.0,0.0,0.0,0.0,0.0,0.0,0.0,0.0,0.0,2.2184,2.2578,2.2338,2.2295,2.2485,0.0,0.0,0.0,0.0,0.0,0.0,0.0,0.0,0.0,0.0,0.0,0.0,0.0,0.0,0.0,0.0,0.0,0.0,0.0,0.0,0.0,0.0,0.0,0.0,0.0,0.0,0.0,0.0,0.0,0.0,0.0,0.0,0.0,0.0,0.0,0.0,0.0,0.0,0.0,0.0,0.0,0.0,0.0,0.0,0.0,0.0,0.0,0.0,0.0,0.0,0.0,0.0,0.0,0.0,0.0,0.0,0.0,0.0,0.0,0.0,0.0,0.0,0.0,0.0,0.0,0.0,0.0,0.0,0.0,0.0,0.0,0.0,0.0,0.0,0.0,0.0,0.0,0.0,0.0,0.0,0.0,0.0,0.0,0.0,0.0,0.0,0.0,0.0,0.0,0.0,0.0,0.0,0.0,0.0,0.0,0.0,0.0,0.0,0.0,0.0,0.0,0.0,0.0,0.0,0.0,0.0,0.0,0.0,0.0,0.0,0.0,0.0,2.2657,2.2732,2.3086,0.0,0.0,0.0,0.0,0.0,0.0,0.0,0.0,0.0,0.0,0.0,0.0,0.0,0.0,0.0,0.0,0.0,0.0,0.0,0.0,0.0,0.0,0.0,0.0,0.0,0.0,0.0,0.0,0.0,0.0,0.0,0.0,0.0,0.0,0.0,0.0,0.0,0.0,0.0,0.0,0.0,0.0,0.0,0.0,0.0,0.0,0.0,0.0,0.0,0.0,0.0,0.0,0.0,0.0,0.0,0.0,0.0,0.0,0.0,0.0,0.0,0.0,0.0,0.0,0.0,0.0,0.0,0.0,0.0,0.0,0.0,0.0,0.0,0.0,0.0,0.0,0.0,0.0,0.0,0.0,0.0,0.0,0.0,0.0,0.0,0.0,0.0,0.0,0.0,0.0,0.0,0.0,0.0,0.0,0.0,0.0,0.0,0.0,0.0,0.0,0.0,0.0,0.0,0.0,0.0,0.0,0.0,0.0,0.0,0.0,2.3031,2.3321,2.3778,0.0,2.353,0.0,0.0,0.0,0.0,0.0,0.0,0.0,0.0,0.0,0.0,0.0,0.0,0.0,0.0,0.0,0.0,0.0,0.0,0.0,0.0,0.0,0.0,0.0,0.0,0.0,0.0,0.0,0.0,0.0,0.0,0.0,0.0,0.0,0.0,0.0,0.0,0.0,0.0,0.0,0.0,0.0,0.0,0.0,0.0,0.0,0.0,0.0,0.0,0.0,0.0,0.0,0.0,0.0,0.0,0.0,0.0,0.0,0.0,0.0,0.0,0.0,0.0,0.0,0.0,0.0,0.0,0.0,0.0,0.0,0.0,0.0,0.0,0.0,0.0,0.0,0.0,0.0,0.0,0.0,0.0,0.0,0.0,0.0,0.0,0.0,0.0,0.0,0.0,0.0,0.0,0.0,0.0,0.0,0.0,0.0,0.0,0.0,0.0,0.0,0.0,0.0,0.0,0.0,0.0,0.0,0.0,0.0,0.0,0.0,0.0,2.3371,2.4079,2.4601,2.4508,0.0,0.0,0.0,0.0,0.0,0.0,0.0,0.0,0.0,0.0,0.0,0.0,0.0,0.0,0.0,0.0,0.0,0.0,0.0,0.0,0.0,0.0,0.0,0.0,0.0,0.0,0.0,0.0,0.0,0.0,0.0,0.0,0.0,0.0,0.0,0.0,0.0,0.0,0.0,0.0,0.0,0.0,0.0,0.0,0.0,0.0,0.0,0.0,0.0,0.0,0.0,0.0,0.0,0.0,0.0,0.0,0.0,0.0,0.0,0.0,0.0,0.0,0.0,0.0,0.0,0.0,0.0,0.0,0.0,0.0,0.0,0.0,0.0,0.0,0.0,0.0,0.0,0.0,0.0,0.0,0.0,0.0,0.0,0.0,0.0,0.0,0.0,0.0,0.0,0.0,0.0,0.0,0.0,0.0,0.0,0.0,0.0,0.0,0.0,0.0,0.0,0.0,0.0,0.0,0.0,0.0,0.0,0.0,0.0,0.0,2.3128,2.4067,2.5107,2.5485,2.5295,2.4559,0.0,0.0,0.0,0.0,0.0,0.0,0.0,0.0,0.0,0.0,0.0,0.0,0.0,0.0,0.0,0.0,0.0,0.0,0.0,0.0,0.0,0.0,0.0,0.0,0.0,0.0,0.0,0.0,0.0,0.0,0.0,0.0,0.0,0.0,0.0,0.0,0.0,0.0,0.0,0.0,0.0,0.0,0.0,0.0,0.0,0.0,0.0,0.0,0.0,0.0,0.0,0.0,0.0,0.0,0.0,0.0,0.0,0.0,0.0,0.0,0.0,0.0,0.0,0.0,0.0,0.0,0.0,0.0,0.0,0.0,0.0,0.0,0.0,0.0,0.0,0.0,0.0,0.0,0.0,0.0,0.0,0.0,0.0,0.0,0.0,0.0,0.0,0.0,0.0,0.0,0.0,0.0,0.0,0.0,0.0,0.0,0.0,0.0,0.0,0.0,0.0,0.0,0.0,0.0,0.0,0.0,0.0,0.0,2.2273,2.3983,2.5451,2.6555,2.6565,2.6401,0.0,0.0,0.0,0.0,0.0,0.0,0.0,0.0,0.0,0.0,0.0,0.0,0.0,0.0,0.0,0.0,0.0,0.0,0.0,0.0,0.0,0.0,0.0,0.0,0.0,0.0,0.0,0.0,0.0,0.0,0.0,0.0,0.0,0.0,0.0,0.0,0.0,0.0,0.0,0.0,0.0,0.0,0.0,0.0,0.0,0.0,0.0,0.0,0.0,0.0,0.0,0.0,0.0,0.0,0.0,0.0,0.0,0.0,0.0,0.0,0.0,0.0,0.0,0.0,0.0,0.0,0.0,0.0,0.0,0.0,0.0,0.0,0.0,0.0,0.0,0.0,0.0,0.0,0.0,0.0,0.0,0.0,0.0,0.0,0.0,0.0,0.0,0.0,0.0,0.0,0.0,0.0,0.0,0.0,0.0,0.0,0.0,0.0,0.0,0.0,0.0,0.0,0.0,0.0,0.0,0.0,0.0,0.0,0.0,2.2943,2.5003,2.6338,2.6775,2.6558,2.6361,0.0,0.0,0.0,0.0,0.0,0.0,0.0,0.0,0.0,0.0,0.0,0.0,0.0,0.0,0.0,0.0,0.0,0.0,0.0,0.0,0.0,0.0,0.0,0.0,0.0,0.0,0.0,0.0,0.0,0.0,0.0,0.0,0.0,0.0,0.0,0.0,0.0,0.0,0.0,0.0,0.0,0.0,0.0,0.0,0.0,0.0,0.0,0.0,0.0,0.0,0.0,0.0,0.0,0.0,0.0,0.0,0.0,0.0,0.0,0.0,0.0,0.0,0.0,0.0,0.0,0.0,0.0,0.0,0.0,0.0,0.0,0.0,0.0,0.0,0.0,0.0,0.0,0.0,0.0,0.0,0.0,0.0,0.0,0.0,0.0,0.0,0.0,0.0,0.0,0.0,0.0,0.0,0.0,0.0,0.0,0.0,0.0,0.0,0.0,0.0,0.0,0.0,0.0,0.0,0.0,0.0,0.0,0.0,0.0,2.4091,0.0,2.689,2.7082,2.6635,2.6383,0.0,0.0,0.0,0.0,0.0,0.0,0.0,0.0,0.0,0.0,0.0,0.0,0.0,0.0,0.0,0.0,0.0,0.0,0.0,0.0,0.0,0.0,0.0,0.0,0.0,0.0,0.0,0.0,0.0,0.0,0.0,0.0,0.0,0.0,0.0,0.0,0.0,0.0,0.0,0.0,0.0,0.0,0.0,0.0,0.0,0.0,0.0,0.0,0.0,0.0,0.0,0.0,0.0,0.0,0.0,0.0,0.0,0.0,0.0,0.0,0.0,0.0,0.0,0.0,0.0,0.0,0.0,0.0,0.0,0.0,0.0,0.0,0.0,0.0,0.0,0.0,0.0,0.0,0.0,0.0,0.0,0.0,0.0,0.0,0.0,0.0,0.0,0.0,0.0,0.0,0.0,0.0,0.0,0.0,0.0,0.0,0.0,0.0,0.0,0.0,0.0,0.0,0.0,0.0,0.0,0.0,0.0,0.0,2.3446,2.5577,2.6441,2.7067,2.753,2.6856,2.655,0.0,0.0,0.0,0.0,0.0,0.0,0.0,0.0,0.0,0.0,0.0,0.0,0.0,0.0,0.0,0.0,0.0,0.0,0.0,0.0,0.0,0.0,0.0,0.0,0.0,0.0,0.0,0.0,0.0,0.0,0.0,0.0,0.0,0.0,0.0,0.0,0.0,0.0,0.0,0.0,0.0,0.0,0.0,0.0,0.0,0.0,0.0,0.0,0.0,0.0,0.0,0.0,0.0,0.0,0.0,0.0,0.0,0.0,0.0,0.0,0.0,0.0,0.0,0.0,0.0,0.0,0.0,0.0,0.0,0.0,0.0,0.0,0.0,0.0,0.0,0.0,0.0,0.0,0.0,0.0,0.0,0.0,0.0,0.0,0.0,0.0,0.0,0.0,0.0,0.0,0.0,0.0,0.0,0.0,0.0,0.0,0.0,0.0,0.0,0.0,0.0,0.0,0.0,0.0,0.0,0.0,0.0,0.0,0.0,2.5439,2.6149,2.6733,2.7195,2.6402,2.6115,0.0,0.0,0.0,0.0,0.0,0.0,0.0,0.0,0.0,0.0,0.0,0.0,0.0,0.0,0.0,0.0,0.0,0.0,0.0,0.0,0.0,0.0,0.0,0.0,0.0,0.0,0.0,0.0,0.0,0.0,0.0,0.0,0.0,0.0,0.0,0.0,0.0,0.0,0.0,0.0,0.0,0.0,0.0,0.0,0.0,0.0,0.0,0.0,0.0,0.0,0.0,0.0,0.0,0.0,0.0,0.0,0.0,0.0,0.0,0.0,0.0,0.0,0.0,0.0,0.0,0.0,0.0,0.0,0.0,0.0,0.0,0.0,0.0,0.0,0.0,0.0,0.0,0.0,0.0,0.0,0.0,0.0,0.0,0.0,0.0,0.0,0.0,0.0,0.0,0.0,0.0,0.0,0.0,0.0,0.0,0.0,0.0,0.0,0.0,0.0,0.0,0.0,0.0,0.0,0.0,0.0,0.0,0.0,0.0,2.5091,2.5939,2.6599,2.707,2.6384,2.5983,2.5794,0.0,0.0,0.0,0.0,0.0,0.0,0.0,0.0,0.0,0.0,0.0,0.0,0.0,0.0,0.0,0.0,0.0,0.0,0.0,0.0,0.0,0.0,0.0,0.0,0.0,0.0,0.0,0.0,0.0,0.0,0.0,0.0,0.0,0.0,0.0,0.0,0.0,0.0,0.0,0.0,0.0,0.0,0.0,0.0,0.0,0.0,0.0,0.0,0.0,0.0,0.0,0.0,0.0,0.0,0.0,0.0,0.0,0.0,0.0,0.0,0.0,0.0,0.0,0.0,0.0,0.0,0.0,0.0,0.0,0.0,0.0,0.0,0.0,0.0,0.0,0.0,0.0,0.0,0.0,0.0,0.0,0.0,0.0,0.0,0.0,0.0,0.0,0.0,0.0,0.0,0.0,0.0,0.0,0.0,0.0,0.0,0.0,0.0,0.0,0.0,0.0,0.0,0.0,0.0,0.0,0.0,0.0,0.0,2.4671,2.5855,2.6579,2.6905,2.6639,2.6038,0.0,0.0,0.0,0.0,0.0,0.0,0.0,0.0,0.0,0.0,0.0,0.0,0.0,0.0,0.0,0.0,0.0,0.0,0.0,0.0,0.0,0.0,0.0,0.0,0.0,0.0,0.0,0.0,0.0,0.0,0.0,0.0,0.0,0.0,0.0,0.0,0.0,0.0,0.0,0.0,0.0,0.0,0.0,0.0,0.0,0.0,0.0,0.0,0.0,0.0,0.0,0.0,0.0,0.0,0.0,0.0,0.0,0.0,0.0,0.0,0.0,0.0,0.0,0.0,0.0,0.0,0.0,0.0,0.0,0.0,0.0,0.0,0.0,0.0,0.0,0.0,0.0,0.0,0.0,0.0,0.0,0.0,0.0,0.0,0.0,0.0,0.0,0.0,0.0,0.0,0.0,0.0,0.0,0.0,0.0,0.0,0.0,0.0,0.0,0.0,0.0,0.0,0.0,0.0,0.0,0.0,0.0,0.0,0.0,2.4576,2.5416,2.5883,2.5943,2.5701,2.5087,0.0,0.0,0.0,0.0,0.0,0.0,0.0,0.0,0.0,0.0,0.0,0.0,0.0,0.0,0.0,0.0,0.0,0.0,0.0,0.0,0.0,0.0,0.0,0.0,0.0,0.0,0.0,0.0,0.0,0.0,0.0,0.0,0.0,0.0,0.0,0.0,0.0,0.0,0.0,0.0,0.0,0.0,0.0,0.0,0.0,0.0,0.0,0.0,0.0,0.0,0.0,0.0,0.0,0.0,0.0,0.0,0.0,0.0,0.0,0.0,0.0,0.0,0.0,0.0,0.0,0.0,0.0,0.0,0.0,0.0,0.0,0.0,0.0,0.0,0.0,0.0,0.0,0.0,0.0,0.0,0.0,0.0,0.0,0.0,0.0,0.0,0.0,0.0,0.0,0.0,0.0,0.0,0.0,0.0,0.0,0.0,0.0,0.0,0.0,0.0,0.0,0.0,0.0,0.0,0.0,0.0,0.0,0.0,2.3039,2.3779,2.4718,2.5033,2.4576,2.4983,2.453,0.0,0.0,0.0,0.0,0.0,0.0,0.0,0.0,0.0,0.0,0.0,0.0,0.0,0.0,0.0,0.0,0.0,0.0,0.0,0.0,0.0,0.0,0.0,0.0,0.0,0.0,0.0,0.0,0.0,0.0,0.0,0.0,0.0,0.0,0.0,0.0,0.0,0.0,0.0,0.0,0.0,0.0,0.0,0.0,0.0,0.0,0.0,0.0,0.0,0.0,0.0,0.0,0.0,0.0,0.0,0.0,0.0,0.0,0.0,0.0,0.0,0.0,0.0,0.0,0.0,0.0,0.0,0.0,0.0,0.0,0.0,0.0,0.0,0.0,0.0,0.0,0.0,0.0,0.0,0.0,0.0,0.0,0.0,0.0,0.0,0.0,0.0,0.0,0.0,0.0,0.0,0.0,0.0,0.0,0.0,0.0,0.0,0.0,0.0,0.0,0.0,0.0,0.0,0.0,0.0,0.0,0.0,0.0,2.2275,2.2503,2.3745,2.3944,2.3036,2.4312,2.4162,0.0,0.0,0.0,0.0,0.0,0.0,0.0,0.0,0.0,0.0,0.0,0.0,0.0,0.0,0.0,0.0,0.0,0.0,0.0,0.0,0.0,0.0,0.0,0.0,0.0,0.0,0.0,0.0,0.0,0.0,0.0,0.0,0.0,0.0,0.0,0.0,0.0,0.0,0.0,0.0,0.0,0.0,0.0,0.0,0.0,0.0,0.0,0.0,0.0,0.0,0.0,0.0,0.0,0.0,0.0,0.0,0.0,0.0,0.0,0.0,0.0,0.0,0.0,0.0,0.0,0.0,0.0,0.0,0.0,0.0,0.0,0.0,0.0,0.0,0.0,0.0,0.0,0.0,0.0,0.0,0.0,0.0,0.0,0.0,0.0,0.0,0.0,0.0,0.0,0.0,0.0,0.0,0.0,0.0,0.0,0.0,0.0,0.0,0.0,0.0,0.0,0.0,0.0,0.0,0.0,0.0,0.0,0.0,2.0945,2.1131,2.2069,2.2222,2.149,2.3134,2.3156,0.0,0.0,0.0,0.0,0.0,0.0,0.0,0.0,0.0,0.0,0.0,0.0,0.0,0.0,0.0,0.0,0.0,0.0,0.0,0.0,0.0,0.0,0.0,0.0,0.0,0.0,0.0,0.0,0.0,0.0,0.0,0.0,0.0,0.0,0.0,0.0,0.0,0.0,0.0,0.0,0.0,0.0,0.0,0.0,0.0,0.0,0.0,0.0,2.7496,0.0,0.0,0.0,0.0,0.0,0.0,0.0,0.0,0.0,0.0,0.0,0.0,0.0,0.0,0.0,0.0,0.0,0.0,0.0,0.0,0.0,0.0,0.0,0.0,0.0,0.0,0.0,0.0,0.0,0.0,0.0,0.0,0.0,0.0,0.0,0.0,0.0,0.0,0.0,0.0,0.0,0.0,0.0,0.0,0.0,0.0,0.0,0.0,0.0,0.0,0.0,0.0,0.0,0.0,0.0,0.0,0.0,0.0,0.0,1.8978,1.914,1.9899,2.0086,1.9561,2.0583,2.0849,0.0,0.0,0.0,0.0,0.0,0.0,0.0,0.0,0.0,0.0,0.0,0.0,0.0,0.0,0.0,0.0,0.0,0.0,0.0,0.0,0.0,0.0,0.0,0.0,0.0,0.0,0.0,0.0,0.0,0.0,0.0,0.0,0.0,0.0,0.0,0.0,0.0,0.0,0.0,0.0,0.0,0.0,0.0,0.0,0.0,0.0,0.0,0.0,0.0,0.0,0.0,0.0,0.0,0.0,0.0,0.0,0.0,0.0,0.0,0.0,0.0,0.0,0.0,0.0,0.0,0.0,0.0,0.0,0.0,0.0,0.0,0.0,0.0,0.0,0.0,0.0,0.0,0.0,0.0,0.0,0.0,0.0,0.0,0.0,0.0,0.0,0.0,0.0,0.0,0.0,0.0,0.0,0.0,0.0,0.0,0.0,0.0,0.0,0.0,0.0,0.0,0.0,0.0,0.0,0.0,0.0,0.0,1.5983,1.6748,1.6757,1.7505,1.7697,1.7324,1.7645,1.7939,1.8169,0.0,0.0,0.0,0.0,0.0,0.0,0.0,0.0,0.0,0.0,0.0,0.0,0.0,0.0,0.0,0.0,0.0,0.0,0.0,0.0,0.0,0.0,0.0,0.0,0.0,0.0,0.0,0.0,0.0,0.0,0.0,0.0,0.0,0.0,0.0,0.0,0.0,0.0,2.5971,2.6604,0.0,0.0,0.0,0.0,0.0,0.0,0.0,0.0,2.7695,0.0,0.0,0.0,0.0,0.0,0.0,0.0,0.0,0.0,0.0,0.0,0.0,0.0,0.0,0.0,0.0,0.0,0.0,0.0,0.0,0.0,0.0,0.0,0.0,0.0,0.0,0.0,0.0,0.0,0.0,0.0,0.0,0.0,0.0,0.0,0.0,0.0,0.0,0.0,0.0,0.0,0.0,0.0,0.0,0.0,0.0,0.0,0.0,0.0,0.0,0.0,0.0,0.0,0.0,0.0,0.0,1.2647,1.3742,1.4276,1.432,1.4919,1.5208,1.5139,1.5197,1.4969,1.4533,0.0,0.0,0.0,0.0,0.0,0.0,0.0,0.0,0.0,0.0,0.0,0.0,0.0,0.0,0.0,0.0,0.0,0.0,0.0,0.0,0.0,0.0,0.0,0.0,0.0,0.0,0.0,0.0,0.0,0.0,0.0,0.0,0.0,0.0,0.0,0.0,0.0,0.0,0.0,2.6571,2.7004,0.0,0.0,0.0,0.0,0.0,0.0,0.0,0.0,2.8047,0.0,0.0,0.0,0.0,0.0,0.0,0.0,0.0,0.0,0.0,0.0,0.0,0.0,0.0,0.0,0.0,0.0,0.0,0.0,0.0,0.0,0.0,0.0,0.0,0.0,0.0,0.0,0.0,0.0,0.0,0.0,0.0,0.0,0.0,0.0,0.0,0.0,0.0,0.0,0.0,0.0,0.0,0.0,0.0,0.0,0.0,0.0,0.0,0.0,0.0,0.0,0.0,0.0,0.0,0.0,1.0388,1.1071,1.1408,1.1446,1.1923,1.2163,1.2177,1.2285,1.206,0.0,0.0,0.0,0.0,0.0,0.0,0.0,0.0,0.0,0.0,0.0,0.0,0.0,0.0,0.0,0.0,0.0,0.0,0.0,0.0,0.0,0.0,0.0,0.0,0.0,0.0,0.0,0.0,0.0,0.0,0.0,0.0,0.0,0.0,0.0,0.0,0.0,0.0,0.0,0.0,2.7183,2.7965,2.8571,0.0,0.0,0.0,0.0,0.0,0.0,2.8833,2.8423,0.0,0.0,0.0,0.0,0.0,0.0,0.0,0.0,0.0,0.0,0.0,0.0,0.0,0.0,0.0,0.0,0.0,0.0,0.0,0.0,0.0,0.0,0.0,0.0,0.0,0.0,0.0,0.0,0.0,0.0,0.0,0.0,0.0,0.0,0.0,0.0,0.0,0.0,0.0,0.0,0.0,0.0,0.0,0.0,0.0,0.0,0.0,0.0,0.0,0.0,0.0,0.0,0.0,0.0,0.0,0.7871,0.8282,0.8524,0.8566,0.8916,0.9143,0.9218,0.9359,0.9271,0.0,0.0,0.0,0.0,0.0,0.0,0.0,0.0,0.0,0.0,0.0,0.0,0.0,0.0,0.0,0.0,0.0,0.0,0.0,0.0,0.0,0.0,0.0,0.0,0.0,0.0,0.0,0.0,0.0,0.0,0.0,0.0,0.0,0.0,0.0,0.0,0.0,0.0,0.0,0.0,0.0,2.8779,2.9158,2.9428,0.0,0.0,0.0,0.0,2.9229,2.9134,0.0,0.0,0.0,0.0,0.0,0.0,0.0,0.0,0.0,0.0,0.0,0.0,0.0,0.0,0.0,0.0,0.0,0.0,0.0,0.0,0.0,0.0,0.0,0.0,0.0,0.0,0.0,0.0,0.0,0.0,0.0,0.0,0.0,0.0,0.0,0.0,0.0,0.0,0.0,0.0,0.0,0.0,0.0,0.0,0.0,0.0,0.0,0.0,0.0,0.0,0.0,0.0,0.0,0.0,0.0,0.0,0.5353,0.561,0.5864,0.6028,0.6252,0.6517,0.6862,0.685,0.6645,0.0,0.0,0.0,0.0,0.0,0.0,0.0,0.0,0.0,0.0,0.0,0.0,0.0,0.0,0.0,0.0,0.0,0.0,0.0,0.0,0.0,0.0,0.0,0.0,0.0,0.0,0.0,0.0,0.0,0.0,0.0,0.0,0.0,0.0,0.0,0.0,0.0,0.0,0.0,0.0,0.0,2.8538,2.9494,2.98,2.9994,0.0,0.0,3.0306,3.0303,2.9658,0.0,0.0,0.0,0.0,0.0,0.0,0.0,0.0,0.0,0.0,0.0,0.0,0.0,0.0,0.0,0.0,0.0,0.0,0.0,0.0,0.0,0.0,0.0,0.0,0.0,0.0,0.0,0.0,0.0,0.0,0.0,0.0,0.0,0.0,0.0,0.0,0.0,0.0,0.0,0.0,0.0,0.0,0.0,0.0,0.0,0.0,0.0,0.0,0.0,0.0,0.0,0.0,0.0,0.0,0.0,0.3388,0.3118,0.3265,0.3461,0.3663,0.3859,0.4103,0.4389,0.4281,0.4065,0.0,0.0,0.0,0.0,0.0,0.0,0.0,0.0,0.0,0.0,0.0,0.0,0.0,0.0,0.0,0.0,0.0,0.0,0.0,0.0,0.0,0.0,0.0,0.0,0.0,0.0,0.0,0.0,0.0,0.0,0.0,0.0,0.0,0.0,0.0,0.0,0.0,0.0,0.0,0.0,0.0,0.0,2.9182,2.9464,0.0,0.0,0.0,2.9935,2.9935,0.0,0.0,0.0,0.0,0.0,0.0,0.0,0.0,0.0,0.0,0.0,0.0,0.0,0.0,0.0,0.0,0.0,0.0,0.0,0.0,0.0,0.0,0.0,0.0,0.0,0.0,0.0,0.0,0.0,0.0,0.0,0.0,0.0,0.0,0.0,0.0,0.0,0.0,0.0,0.0,0.0,0.0,0.0,0.0,0.0,0.0,0.0,0.0,0.0,0.0,0.0,0.0,0.0,0.0,0.0,0.0,0.0,0.1127,0.1229,0.1412,0.1641,0.1801,0.1973,0.2191,0.2098,0.0,0.0,0.0,0.0,0.0,0.0,0.0,0.0,0.0,0.0,0.0,0.0,0.0,0.0,0.0,0.0,0.0,0.0,0.0,0.0,0.0,0.0,0.0,0.0,0.0,0.0,0.0,2.1921,0.0,0.0,0.0,0.0,0.0,0.0,0.0,0.0,0.0,0.0,0.0,0.0,0.0,0.0,2.8431,2.8598,2.8811,2.8997,0.0,0.0,2.9205,2.9189,2.9182,2.8876,0.0,0.0,0.0,0.0,0.0,0.0,0.0,0.0,0.0,0.0,0.0,0.0,0.0,0.0,0.0,0.0,0.0,0.0,0.0,0.0,0.0,0.0,0.0,0.0,0.0,0.0,0.0,0.0,0.0,0.0,0.0,0.0,0.0,0.0,0.0,0.0,0.0,0.0,0.0,0.0,0.0,0.0,0.0,0.0,0.0,0.0,0.0,0.0,0.0,0.0,0.0,0.0,0.0,0.0,0.0,-0.0437,-0.0373,-0.0153,0.0118,0.0157,0.031,0.053,0.048,0.0252,0.0,0.0,0.0,0.0,0.0,0.0,0.0,0.0,0.0,0.0,0.0,0.0,0.0,0.0,0.0,0.0,0.0,0.0,0.0,0.0,0.0,0.0,0.0,0.0,0.0,0.0,0.0,0.0,0.0,0.0,0.0,0.0,0.0,0.0,0.0,0.0,0.0,0.0,0.0,0.0,0.0,2.75,2.773,2.7929,2.8036,0.0,0.0,2.8384,2.84,2.8255,2.8008,2.7465,0.0,0.0,0.0,0.0,0.0,0.0,0.0,0.0,0.0,0.0,0.0,0.0,0.0,0.0,0.0,0.0,0.0,0.0,0.0,0.0,0.0,0.0,0.0,0.0,0.0,0.0,0.0,0.0,0.0,0.0,0.0,0.0,0.0,0.0,0.0,0.0,0.0,0.0,0.0,0.0,0.0,0.0,0.0,0.0,0.0,0.0,0.0,0.0,0.0,0.0,0.0,0.0,0.0,-0.1108,-0.1281,-0.1387,-0.1274,-0.0959,-0.0921,-0.0873,-0.0703,-0.0793,-0.1123,0.0,0.0,0.0,0.0,0.0,0.0,0.0,0.0,0.0,0.0,0.0,0.0,0.0,0.0,0.0,0.0,0.0,0.0,0.0,0.0,0.0,0.0,0.0,0.0,0.0,0.0,0.0,0.0,2.0181,2.0118,1.9914,0.0,0.0,0.0,0.0,0.0,0.0,0.0,0.0,0.0,0.0,2.6505,2.6797,2.6953,0.0,0.0,2.7348,2.7449,2.7449,2.7449,2.7415,2.721,2.669,0.0,0.0,0.0,0.0,0.0,0.0,0.0,0.0,0.0,0.0,0.0,0.0,0.0,0.0,0.0,0.0,0.0,0.0,0.0,0.0,0.0,0.0,0.0,0.0,0.0,0.0,0.0,0.0,0.0,0.0,0.0,0.0,0.0,0.0,0.0,0.0,0.0,0.0,0.0,0.0,0.0,0.0,0.0,0.0,0.0,0.0,0.0,0.0,0.0,0.0,0.0,0.0,-0.1943,-0.1929,-0.2071,-0.1972,-0.1647,-0.1686,-0.1703,-0.1659,-0.184,-0.2177,0.0,0.0,0.0,0.0,0.0,0.0,0.0,0.0,0.0,0.0,0.0,0.0,0.0,0.0,0.0,0.0,0.0,0.0,0.0,0.0,0.0,0.0,0.0,0.0,0.0,0.0,0.0,0.0,1.9004,1.8924,1.8765,0.0,0.0,0.0,0.0,0.0,0.0,0.0,0.0,0.0,0.0,2.5329,2.5701,2.5878,2.6027,2.6228,2.6428,2.6549,2.6549,2.6654,2.6759,2.6785,0.0,0.0,0.0,0.0,0.0,0.0,0.0,0.0,0.0,0.0,0.0,0.0,0.0,0.0,0.0,0.0,0.0,0.0,0.0,0.0,0.0,0.0,0.0,0.0,0.0,0.0,0.0,0.0,0.0,0.0,-0.8716,0.0,0.0,0.0,0.0,0.0,0.0,0.0,0.0,0.0,0.0,0.0,0.0,0.0,0.0,0.0,0.0,0.0,0.0,0.0,0.0,0.0,0.0,0.0,-0.2489,-0.2493,-0.2312,-0.2005,-0.2191,-0.2236,-0.2181,-0.2522,-0.2933,-0.3489,0.0,0.0,0.0,0.0,0.0,0.0,0.0,0.0,0.0,0.0,0.0,0.0,0.0,0.0,0.0,0.0,0.0,0.0,0.0,0.0,0.0,0.0,0.0,0.0,0.0,0.0,1.7451,1.755,1.766,0.0,0.0,0.0,0.0,0.0,0.0,0.0,0.0,0.0,0.0,2.3364,2.4005,2.4452,2.4652,2.4879,2.5203,2.5508,2.5715,2.5729,2.5839,2.5948,0.0,0.0,0.0,0.0,0.0,0.0,0.0,0.0,0.0,0.0,0.0,0.0,0.0,0.0,0.0,0.0,0.0,0.0,0.0,0.0,0.0,0.0,0.0,0.0,0.0,0.0,0.0,-1.1587,-1.129,0.0,0.0,0.0,0.0,0.0,0.0,0.0,0.0,0.0,0.0,0.0,-0.8275,-0.7601,0.0,0.0,0.0,0.0,0.0,0.0,0.0,0.0,0.0,0.0,0.0,0.0,-0.2834,-0.2659,-0.2742,-0.2744,-0.2519,-0.2591,-0.2722,-0.2943,-0.3128,-0.3724,-0.4725,0.0,0.0,0.0,0.0,0.0,0.0,0.0,0.0,0.0,0.0,0.0,0.0,0.0,0.0,0.0,0.0,0.0,0.0,0.0,0.0,0.0,0.0,0.0,0.0,0.0,1.6148,0.0,0.0,0.0,0.0,0.0,0.0,0.0,0.0,0.0,0.0,0.0,2.1037,2.1861,2.239,2.2877,2.3357,2.3666,2.3989,0.0,0.0,0.0,0.0,0.0,0.0,0.0,0.0,0.0,0.0,0.0,0.0,0.0,0.0,2.7711,2.7518,2.7442,2.7623,2.8273,0.0,0.0,0.0,0.0,0.0,0.0,0.0,0.0,0.0,0.0,0.0,0.0,0.0,0.0,0.0,0.0,-1.2372,0.0,0.0,0.0,0.0,0.0,0.0,0.0,0.0,-1.0592,-1.0137,-0.982,-0.9083,-0.8394,0.0,-0.7141,-0.5987,0.0,0.0,0.0,0.0,0.0,0.0,0.0,0.0,-0.3123,-0.2891,-0.301,-0.2968,-0.2761,-0.2901,-0.3038,-0.3245,-0.3693,-0.4422,-0.5425,-0.5458,-0.5554,0.0,0.0,0.0,0.0,0.0,0.0,0.0,0.0,0.0,0.0,0.0,0.0,0.0,0.0,0.0,0.0,0.0,0.0,0.0,0.0,0.0,0.0,0.0,1.53,0.0,0.0,0.0,0.0,0.0,0.0,0.0,0.0,0.0,1.9018,1.9569,2.0169,2.1066,2.1471,2.1896,2.2463,0.0,0.0,0.0,0.0,0.0,0.0,0.0,2.492,2.4863,2.492,2.5033,2.5118,2.5825,2.6537,2.699,0.0,0.0,2.78,2.7687,2.7791,2.8504,2.8358,2.8232,2.8646,2.8479,2.829,0.0,0.0,0.0,0.0,0.0,0.0,0.0,0.0,-1.6112,-1.5397,0.0,-1.3983,0.0,0.0,0.0,0.0,0.0,-1.2405,0.0,0.0,-1.1799,-1.1527,-1.1253,-1.0578,-0.9942,-0.928,-0.8364,-0.7496,-0.6702,-0.5348,0.0,0.0,0.0,0.0,0.0,0.0,-0.3625,-0.3226,-0.323,-0.3058,-0.2755,-0.3058,-0.3228,-0.3295,-0.4261,-0.5057,-0.5583,-0.5617,-0.5686,-0.5892,-0.5057,0.0,0.0,0.0,0.0,0.0,0.0,0.0,0.0,0.0,0.0,0.0,0.0,0.0,0.0,0.0,0.0,0.0,0.0,0.0,0.0,1.3681,0.0,0.0,0.0,0.0,0.0,0.0,0.0,0.0,0.0,0.0,1.783,1.8775,1.9529,2.0258,0.0,0.0,0.0,0.0,2.2805,2.3343,2.391,2.4292,2.4308,2.4565,2.4721,2.4607,0.0,0.0,2.4948,2.5591,2.6218,2.663,2.7203,2.7835,2.8511,2.8497,2.8488,2.863,2.8441,2.8207,2.8033,2.796,2.7966,-1.6912,0.0,0.0,0.0,0.0,-1.6691,-1.688,-1.6901,-1.6518,-1.6267,-1.603,-1.5145,0.0,0.0,0.0,0.0,0.0,0.0,-1.3044,-1.3078,-1.2696,-1.233,-1.1995,-1.1335,-1.074,-1.0144,-0.9295,-0.8553,-0.788,-0.6817,-0.5825,-0.4891,0.0,0.0,0.0,0.0,-0.3828,-0.3661,-0.3625,-0.3527,-0.3295,-0.3493,-0.3792,-0.4192,-0.4957,-0.5521,-0.5789,-0.5947,-0.5914,-0.5686,-0.499,0.0,0.0,0.0,0.0,0.0,0.0,0.0,0.0,0.0,0.0,0.0,0.0,0.0,0.0,0.0,0.0,0.0,0.0,0.0,1.2727,1.3322,1.3805,0.0,0.0,0.0,0.0,0.0,0.0,0.0,0.0,0.0,1.6716,1.7833,1.8831,0.0,0.0,2.0743,2.1316,2.1913,2.2512,2.309,0.0,0.0,0.0,2.4379,2.4408,2.4379,2.4303,2.4345,2.4677,2.5203,2.5769,2.631,2.6997,2.7615,2.8063,2.8177,2.8235,2.8381,2.8122,2.781,2.774,2.7867,2.8062,-1.7746,-1.6685,-1.6927,-1.7137,-1.7298,-1.7538,-1.7644,-1.753,-1.7181,-1.6921,-1.6646,-1.5856,-1.5335,-1.4951,-1.441,0.0,0.0,0.0,-1.3881,-1.3954,-1.361,-1.3201,-1.2821,-1.2135,-1.1477,-1.0818,-0.996,-0.9246,-0.8623,-0.7748,-0.684,-0.5965,0.0,0.0,-0.4572,-0.4484,-0.4325,-0.4125,-0.4025,-0.3894,-0.3699,-0.3828,-0.4128,-0.4661,-0.5153,-0.5484,-0.569,-0.5752,-0.5583,-0.5219,-0.4456,-0.3623,0.0,0.0,0.0,0.0,0.0,0.0,0.0,0.0,0.0,0.0,0.0,0.6115,0.0,0.0,0.0,0.0,0.9711,1.1055,1.2558,1.2981,0.0,0.0,0.0,0.0,0.0,0.0,0.0,1.414,1.4798,1.5541,1.6202,1.7201,1.8124,1.8898,1.9605,2.0335,2.101,0.0,2.2316,2.2987,2.3539,2.3966,2.4173,2.4263,2.4292,2.4232,2.4157,2.4245,2.462,2.509,2.5618,2.6256,2.6959,2.7554,2.8005,2.8079,2.8118,2.8217,2.789,2.76,2.7524,2.761,2.7697,-1.8116,-1.7787,-1.7997,-1.8306,-1.8705,-1.8749,-1.8676,-1.8522,-1.7934,-1.7388,-1.6905,-1.6246,-1.576,-1.5351,-1.5103,0.0,-1.5018,-1.4808,-1.4676,-1.4699,-1.4379,-1.4072,-1.3715,-1.2912,-1.2182,-1.1446,-1.0449,-0.9652,-0.9036,-0.8275,-0.7698,-0.7335,-0.6306,-0.5658,-0.5438,-0.5228,-0.499,-0.4625,-0.4431,-0.4264,-0.4061,-0.403,-0.4264,-0.4761,-0.4994,-0.5156,-0.5292,-0.5123,-0.4891,-0.4492,-0.3625,-0.272,-0.1844,0.0,0.0,0.0,0.0,0.0,0.0,0.0,0.0,0.0,0.0,0.0,0.0,0.0,0.0,0.0,0.973,0.0,1.2119,1.2653,0.0,0.0,0.0,1.3419,1.3419,1.3564,1.3863,1.4201,0.0,0.0,1.6167,0.0,1.751,1.8341,1.9131,1.99,2.0775,2.1451,2.2168,2.2944,2.3522,2.3907,2.4083,2.4203,2.4263,2.4157,2.4112,2.4303,2.475,2.5188,2.5715,2.6416,2.7049,2.7615,2.8137,2.825,2.821,2.8103,2.784,2.76,2.7503,2.7325,2.734,-1.8531,-1.8278,-1.8171,-1.7957,-1.7779,-1.8083,-1.8259,-1.8188,-1.7785,-1.7539,-1.7342,-1.6365,-1.5591,-1.5103,-1.5018,-1.5018,-1.5018,-1.4948,-1.4839,-1.4691,-1.4613,-1.4421,-1.4062,-1.332,-1.2636,-1.198,-1.0869,-1.0137,-0.9652,-0.8889,-0.8371,-0.8123,-0.7419,-0.6643,-0.579,-0.5594,-0.5319,-0.499,-0.4924,-0.4758,-0.4459,-0.4298,-0.4367,-0.4625,-0.4794,-0.4761,-0.4589,-0.4522,-0.4189,-0.356,-0.2921,-0.2115,-0.1108,-0.0202,0.0,0.0,0.0,0.0,0.0,0.0,0.0,0.0,0.0,0.6642,0.6741,0.0,0.7654,0.0,0.9796,1.1127,1.2046,1.2389,0.0,0.0,1.2741,1.2636,1.2783,1.2863,1.3083,1.363,1.4281,1.4999,1.5806,1.6551,1.7245,1.8032,1.8965,1.9868,2.0582,2.1305,2.1982,2.2641,2.3258,2.3789,2.4054,2.4232,2.4292,2.4247,2.4234,2.445,2.4991,2.5467,2.6001,2.668,2.7393,2.7925,2.8299,2.8558,2.8653,2.8477,2.8171,2.786,2.773,2.7758,2.7868,-1.8373,-1.8102,-1.7768,-1.7459,-1.7266,-1.7844,-1.8019,-1.7861,-1.7672,-1.7419,-1.7104,-1.6108,-1.5456,-1.5042,-1.4907,-1.4907,-1.5035,-1.5035,-1.5042,-1.501,-1.501,-1.4776,-1.4345,-1.3751,-1.3072,-1.2312,-1.1276,-1.0475,-0.9879,-0.9193,-0.8627,-0.828,-0.7752,-0.7151,-0.6511,-0.6138,-0.5785,-0.5458,-0.5123,-0.4818,-0.4504,-0.4342,-0.4332,-0.4447,-0.4401,-0.4272,-0.3992,-0.3813,-0.3389,-0.2654,-0.2115,-0.1377,-0.037,0.0437,0.1411,0.0,0.0,0.0,0.0,0.0,0.0,0.0,0.0,0.0,0.0,0.0,0.7754,0.0,1.009,1.1143,1.1995,1.2238,1.2421,1.2615,1.2342,1.2268,1.2452,1.2489,1.2709,1.3309,1.3956,1.4669,1.5453,1.6228,1.7028,1.7759,1.8741,1.966,2.0399,2.1115,2.1808,2.2488,2.3108,2.3658,2.4024,2.4157,2.414,2.3947,2.3953,2.4179,2.4833,2.5283,2.5877,2.6831,2.7545,2.8122,2.8477,2.8756,2.8982,2.8912,2.87,2.8374,2.8079,2.7976,2.7947,-1.8006,-1.7688,-1.7225,-1.7015,-1.6979,-1.7621,-1.778,-1.7553,-1.75,-1.712,-1.6448,-1.5718,-1.5278,-1.5048,-1.4824,-1.4824,-1.5048,-1.5041,-1.5131,-1.5298,-1.5298,-1.507,-1.4579,-1.4074,-1.3367,-1.2447,-1.1557,-1.0697,-0.9922,-0.9344,-0.8742,-0.8122,-0.7774,-0.7486,-0.7214,-0.6788,-0.634,-0.5922,-0.5189,-0.4716,-0.4488,-0.4254,-0.4194,-0.4203,-0.3933,-0.3637,-0.3424,-0.3033,-0.2487,-0.1748,-0.1244,-0.0571,0.0336,0.1041,0.1882,0.0,0.3627,0.0,0.0,0.0,0.0,0.0,0.0,0.0,0.0,0.6839,0.7859,0.9621,1.0388,1.1052,1.1798,1.2077,1.2224,1.2268,1.2077,1.2046,1.2268,1.2305,1.2526,1.3119,1.3731,1.4382,1.5133,1.6009,1.6837,1.7508,1.8375,1.9185,2.005,2.0762,2.1498,2.2299,2.2875,2.3306,2.3651,2.3845,2.3801,2.3446,2.3427,2.3756,2.4431,2.484,2.5546,2.6806,2.752,2.8058,2.8606,2.8936,2.9183,2.9213,2.916,2.8936,2.8438,2.8054,2.774,-1.8275,-1.7776,-1.7448,-1.7065,-1.6683,-1.6817,-1.6983,-1.7105,-1.7066,-1.6543,-1.5784,-1.5405,-1.5064,-1.479,-1.4734,-1.4741,-1.4783,-1.4776,-1.4817,-1.4824,-1.4824,-1.4664,-1.4421,-1.3899,-1.3199,-1.2338,-1.1531,-1.0724,-0.9922,-0.9468,-0.8937,-0.8356,-0.8277,-0.7974,-0.7485,0.0,0.0,0.0,-0.5339,-0.492,-0.4795,-0.4298,-0.3982,-0.3815,-0.3297,0.0,-0.248,-0.208,-0.1513,-0.0806,-0.0571,0.0,0.0,0.0,0.0,0.0,0.0,0.0,0.0,0.0,0.0,0.0,0.5388,0.5744,0.6389,0.7314,0.827,0.9114,1.0029,1.076,1.1217,1.1595,1.1892,1.2046,1.1892,1.1892,1.2231,1.2305,1.2526,1.3127,1.3731,1.4374,1.5089,1.5877,1.6555,1.7106,1.778,1.8446,1.9006,1.9941,2.0772,2.1319,2.2048,2.2499,2.2558,2.295,2.3182,2.2974,2.3031,2.335,2.3963,2.4436,2.5152,2.6466,2.7155,2.7797,2.8622,2.913,2.9344,2.9167,2.9275,2.9298,2.885,2.8414,2.8039,-1.826,0.0,-1.7266,-1.6925,0.0,-1.632,-1.6305,-1.6393,-1.6654,-1.628,-1.542,-1.5193,-1.4785,-1.4412,-1.4237,-1.4286,-1.437,-1.4286,-1.4279,-1.4412,-1.4237,-1.411,-1.3886,-1.3361,-1.271,-1.1948,-1.1251,-1.05,-0.9744,-0.9365,-0.8865,-0.825,-0.8244,-0.7996,-0.7512,-0.7226,-0.6734,-0.612,-0.5345,-0.4839,-0.4549,-0.4075,-0.3618,-0.3246,0.0,0.0,0.0,0.0,0.0,0.0,0.0,0.0,0.0,0.0,0.0,0.3058,0.3661,0.4128,0.4431,0.4858,0.5087,0.5123,0.5596,0.606,0.6522,0.7523,0.8393,0.9102,0.9959,1.0669,1.1074,1.1558,1.1892,1.1966,1.1892,1.1972,1.2231,1.2187,1.2415,1.2973,1.3477,1.4101,1.4812,1.546,1.6124,1.6812,1.7417,1.803,1.8642,1.9381,2.0141,2.0883,2.1494,2.1933,2.2082,2.2418,2.2609,2.2445,2.2587,2.2959,2.3462,2.3945,2.4757,2.6221,2.7044,2.7721,2.8623,2.9144,2.9382,2.9321,2.9344,2.9321,2.9036,2.8677,2.8308,-1.8203,-1.7775,-1.7078,-1.6724,-1.6607,-1.6048,-1.5784,-1.5778,0.0,0.0,0.0,-1.4967,-1.4545,-1.4004,-1.3779,-1.3737,-1.3913,-1.3695,-1.3695,-1.3786,-1.3568,-1.3349,-1.3082,-1.2649,-1.2052,-1.1358,-1.0824,-1.0147,-0.9435,-0.9094,-0.8637,-0.8093,-0.8094,-0.7902,-0.748,-0.6867,-0.6361,-0.5994,-0.5316,-0.4706,-0.4249,-0.3762,-0.3266,-0.2705,-0.2183,-0.1685,-0.1285,-0.068,-0.0174,0.0136,0.0407,0.081,0.1345,0.1849,0.2388,0.2989,0.3594,0.3997,0.4233,0.4728,0.51,0.5226,0.5957,0.6484,0.6659,0.7537,0.8403,0.9155,0.9916,1.055,1.0962,1.1521,1.1892,1.1929,1.1972,1.2063,1.2201,1.2131,1.2265,1.2694,1.3129,1.367,1.4312,1.4949,1.5606,1.6407,1.7018,1.7655,1.8398,1.9043,1.9692,2.033,2.0869,2.1333,2.1601,2.1949,2.2049,2.1846,2.2119,2.2531,2.2919,2.3421,2.4379,2.5819,2.6655,2.7365,2.835,2.88,2.9116,2.9328,2.9282,2.9213,2.9068,2.8826,2.8477,-1.8363,-1.7636,-1.7239,-1.6803,-1.6295,-1.5952,-1.5683,-1.554,-1.5784,-1.5683,-1.5243,-1.4814,-1.4327,-1.3737,-1.3519,-1.3398,-1.3228,-1.3179,-1.3009,0.0,-1.2577,-1.2363,-1.1929,-1.1852,-1.1346,-1.0538,-1.0398,-0.984,-0.8928,-0.878,-0.8441,-0.7915,-0.8003,-0.7905,-0.7482,-0.674,-0.6113,-0.5682,-0.5266,-0.4822,-0.4358,-0.3583,-0.2888,-0.231,-0.1495,-0.087,-0.0489,0.0,0.043,0.0733,0.0801,0.1068,0.1516,0.1817,0.2252,0.2958,0.3362,0.3696,0.403,0.4528,0.5114,0.5747,0.6166,0.6412,0.6491,0.7439,0.8295,0.8742,0.9544,1.0143,1.055,1.1149,1.1552,1.1737,1.1885,1.1991,1.1971,1.2095,1.22,1.2186,1.2662,1.3237,1.3771,1.448,1.5159,1.5695,1.6465,1.7151,1.7956,1.878,1.923,1.9381,1.9912,2.0298,2.0496,2.099,2.1355,2.1334,2.1659,2.211,2.2489,2.2953,2.3663,2.4632,2.5304,2.6083,2.7342,2.7881,2.8308,2.8724,2.8873,2.892,2.8858,2.8708,2.8453,-1.8203,-1.7712,-1.7015,-1.6547,-1.6289,-1.5695,-1.5363,-1.5267,-1.541,-1.5217,-1.4884,-1.4545,-1.4103,-1.3553,-1.3188,-1.2843,-1.2491,-1.2406,-1.2106,-1.1628,-1.1499,-1.1241,-1.0939,-1.0814,-1.0408,-0.9795,-0.9658,-0.9229,-0.8588,-0.8441,-0.8178,-0.7804,-0.7684,-0.7334,-0.6872,-0.6331,-0.5747,-0.5124,-0.4873,-0.4411,-0.3717,-0.2976,-0.2313,-0.1727,-0.0971,-0.046,-0.0151,0.0374,0.0809,0.1039,0.1181,0.1416,0.1793,0.2063,0.2424,0.2825,0.3261,0.3596,0.3861,0.4461,0.509,0.5679,0.6142,0.6489,0.6726,0.7564,0.8289,0.8856,0.9501,1.0073,1.0475,1.1037,1.1428,1.146,1.1666,1.1722,1.1662,1.1737,1.1892,1.2107,1.2582,1.3089,1.3642,1.4275,1.4903,1.5454,1.6317,1.718,1.7822,1.8475,1.8924,1.895,1.939,1.9772,1.9899,2.0476,2.0948,2.1158,2.1616,2.202,2.2347,2.2723,2.3346,2.4177,2.468,2.5341,2.6451,2.7126,2.7628,2.8046,2.8513,2.8654,2.8684,2.8493,2.8186,-1.7971,-1.7798,-1.6764,-1.6197,-1.5991,-1.5316,-1.4981,-1.4892,-1.4838,-1.4624,-1.4296,-1.417,-1.3817,-1.3306,-1.2794,-1.2307,-1.182,-1.1581,-1.1213,-1.0641,-1.0424,-1.0164,-0.9941,-0.9777,-0.9539,-0.9179,-0.9028,-0.8779,-0.8358,-0.8168,-0.7949,-0.765,-0.7261,-0.6799,-0.6296,-0.5902,-0.5318,-0.4659,-0.4345,-0.3798,-0.3056,-0.243,-0.1804,-0.1178,-0.0511,0.0,0.0306,0.0802,0.1132,0.1327,0.147,0.1709,0.2055,0.232,0.2531,0.2786,0.3169,0.3563,0.3928,0.452,0.5101,0.5592,0.6129,0.6649,0.7149,0.7782,0.8399,0.8965,0.9576,1.0143,1.0519,1.1037,1.1371,1.1266,1.1436,1.1506,1.1294,1.1349,1.1587,1.1983,1.2432,1.2953,1.3518,1.4072,1.4792,1.571,1.6655,1.7462,1.7936,1.8371,1.8679,1.8893,1.9184,1.9537,1.9811,2.0271,2.0774,2.118,2.1664,2.2044,2.2356,2.2655,2.3035,2.3737,2.4096,2.4605,2.5447,2.6267,2.6887,2.7396,2.8029,2.8501,2.8541,2.8275,2.798,-1.7852,-1.7495,-1.6649,-1.5864,-1.5191,-1.4863,-1.4592,-1.4352,-1.4118,-1.3727,-1.3321,-1.3726,-1.3472,-1.2802,-1.2461,-1.1881,-1.1138,-1.1088,-1.049,-0.9581,-0.9432,-0.9209,-0.8811,-0.8951,-0.8888,-0.8696,-0.8792,-0.8598,-0.8137,-0.808,-0.7803,-0.7277,-0.6872,-0.6525,-0.6222,-0.5473,-0.4849,-0.4423,-0.3878,-0.3331,-0.2824,-0.2234,-0.1529,-0.0707,-0.0079,0.0549,0.1095,0.141,0.1588,0.1742,0.1775,0.1939,0.2289,0.2274,0.2487,0.2999,0.3173,0.3527,0.4175,0.4773,0.5272,0.5737,0.6284,0.6921,0.7651,0.8118,0.8556,0.9041,0.9722,1.0255,1.0519,1.1037,1.1292,1.1073,1.1345,1.137,1.0954,1.1303,1.1599,1.1375,1.2087,1.2693,1.3149,1.3839,1.4868,1.6236,1.7041,1.7755,1.8232,1.8556,1.8851,1.909,1.9302,1.9551,1.9913,2.0321,2.0772,2.1264,2.1712,2.2053,2.231,2.254,2.2797,2.2964,2.3131,2.362,2.4318,2.5156,2.6057,2.6885,2.7622,2.8308,2.8348,2.8177,2.7955,-1.7488,-1.7094,-1.6387,-1.5542,-1.4677,-1.4358,-1.4166,-1.4022,-1.3588,-1.3152,-1.2748,-1.2748,-1.2474,-1.203,-1.1786,-1.1203,-1.0493,-1.0369,-0.9867,-0.9059,-0.8914,-0.864,-0.8245,-0.8292,-0.8202,-0.8037,-0.811,-0.7941,-0.7649,-0.7564,-0.7315,-0.6974,-0.6617,-0.618,-0.5712,-0.5007,-0.4384,-0.3798,-0.3214,-0.2668,-0.212,-0.1727,-0.1177,-0.0432,0.0275,0.0864,0.1297,0.1612,0.1877,0.2012,0.2049,0.2218,0.2573,0.2656,0.2807,0.316,0.3513,0.3914,0.4259,0.4833,0.5379,0.5892,0.6474,0.7102,0.7757,0.8394,0.8932,0.9349,0.9873,1.0331,1.0663,1.1037,1.1156,1.1044,1.1076,1.0996,1.0757,1.0975,1.1214,1.1471,1.1984,1.2609,1.3227,1.4201,1.5342,1.6513,1.7228,1.7794,1.8313,1.8583,1.8825,1.9117,1.9328,1.9563,1.9939,2.0346,2.0772,2.1204,2.1616,2.1959,2.21,2.2301,2.2402,2.2388,2.2563,2.2803,2.3231,2.4458,2.553,2.6434,2.7505,2.8348,2.8411,2.8177,2.8005,-1.7036,-1.66,-1.6005,-1.5171,-1.431,-1.4027,-1.3835,-1.3636,-1.3152,-1.2613,-1.2073,-1.1683,-1.1356,-1.1087,-1.0976,-1.0573,-0.9852,-0.9618,-0.9187,-0.8532,-0.8367,-0.8072,-0.772,-0.7764,-0.7705,-0.7602,-0.7673,-0.7591,-0.7386,-0.7223,-0.7024,-0.6764,-0.647,-0.5942,-0.5303,-0.4683,-0.4032,-0.3399,-0.2794,-0.2199,-0.1572,-0.1258,-0.0786,-0.0157,0.055,0.1099,0.1531,0.1886,0.22,0.2431,0.2431,0.2607,0.2906,0.3039,0.3181,0.34,0.3821,0.4184,0.4395,0.5005,0.5582,0.6091,0.6734,0.738,0.7944,0.8618,0.9193,0.9657,1.003,1.0443,1.0738,1.0999,1.107,1.1001,1.0955,1.0895,1.081,1.0997,1.1439,1.1833,1.253,1.3174,1.4066,1.5221,1.6306,1.6929,1.7503,1.7884,1.8321,1.8518,1.8721,1.9117,1.9263,1.9473,1.9875,2.022,2.0648,2.0995,2.1361,2.1616,2.1807,2.1926,2.1996,2.1921,2.2077,2.2447,2.3008,2.4053,2.5525,2.6387,2.745,2.8372,2.8411,2.8177,2.8029,-1.6329,-1.6234,-1.5476,-1.4802,-1.4304,-1.4027,-1.3593,-1.3152,-1.2613,-1.198,-1.1243,-1.0757,-1.0162,-0.9752,-1.0186,-0.99,-0.9144,-0.8875,-0.8486,-0.7885,-0.7674,-0.7418,-0.7187,-0.7415,-0.7499,-0.7515,-0.7687,-0.7701,-0.7545,-0.7348,-0.7067,-0.6685,-0.641,-0.5956,-0.5278,-0.4615,-0.3968,-0.3308,-0.2701,-0.212,-0.1375,-0.0864,-0.0354,0.0236,0.0707,0.1295,0.204,0.2353,0.2628,0.3061,0.3022,0.3136,0.3396,0.3335,0.3448,0.3734,0.3973,0.4302,0.4717,0.5356,0.5949,0.6384,0.7026,0.7698,0.828,0.8775,0.9268,0.9841,1.0218,1.055,1.0781,1.0999,1.1089,1.1045,1.1179,1.1188,1.1022,1.1699,1.2273,1.2645,1.3413,1.4453,1.5783,1.6839,1.7226,1.7565,1.8078,1.8566,1.8541,1.8584,1.8851,1.9104,1.9226,1.9223,1.9694,2.0042,2.0372,2.066,2.0908,2.1118,2.1288,2.141,2.1434,2.1523,2.1712,2.2152,2.2878,2.4083,2.5732,2.6834,2.771,2.8372,2.8372,2.8152,2.798,-1.6005,-1.5507,-1.4839,-1.4383,-1.4027,-1.3732,-1.3346,-1.2861,-1.2175,-1.1443,-1.0703,-1.0117,-0.9476,-0.8832,-0.9027,-0.9042,-0.8871,-0.8716,-0.842,-0.8005,-0.7766,-0.7514,-0.7323,-0.7282,-0.7231,-0.7279,-0.7319,-0.7335,-0.7273,-0.7129,-0.6929,-0.6609,-0.6152,-0.5654,-0.5064,-0.4329,-0.3669,-0.3091,-0.2375,-0.1674,-0.1062,-0.0511,0.0079,0.0668,0.114,0.1689,0.2392,0.2588,0.2824,0.31,0.31,0.3217,0.3483,0.3695,0.3859,0.4016,0.4424,0.4725,0.4958,0.5644,0.6287,0.6703,0.7321,0.7974,0.8513,0.8975,0.9392,0.9841,1.0255,1.055,1.0812,1.1074,1.1255,1.1303,1.1503,1.1655,1.1701,1.2114,1.2609,1.3045,1.4024,1.5236,1.6258,1.7044,1.7616,1.8059,1.8625,1.8967,1.9183,1.9303,1.9415,1.9535,1.962,1.9558,1.9285,1.9712,2.0042,2.0258,2.0459,2.0585,2.0734,2.0883,2.0908,2.1267,2.1471,2.2207,2.3128,2.4774,2.6293,2.7279,2.8177,2.8275,2.8299,2.8054,2.788,-1.5432,-1.4814,-1.4467,-1.416,-1.3883,-1.3491,-1.3098,-1.257,-1.1736,-1.0949,-1.0216,-0.962,-0.8981,-0.8482,-0.8287,-0.8333,-0.851,-0.8369,-0.8252,-0.8035,-0.779,-0.7555,-0.7405,-0.7265,-0.7187,-0.7102,-0.7007,-0.701,-0.6956,-0.6826,-0.665,-0.6424,-0.5943,-0.5435,-0.4839,-0.4049,-0.3372,-0.2787,-0.2008,-0.1331,-0.0835,-0.0236,0.0393,0.0984,0.1463,0.2017,0.2552,0.2785,0.3061,0.3295,0.3335,0.3452,0.3684,0.396,0.4157,0.4311,0.4732,0.5079,0.5354,0.6057,0.6679,0.7173,0.7744,0.8318,0.8822,0.9203,0.9544,0.9884,1.0255,1.0588,1.085,1.1298,1.1595,1.1613,1.187,1.2107,1.2275,1.2774,1.3408,1.4146,1.5111,1.6077,1.6837,1.7536,1.807,1.8529,1.8988,1.932,1.9433,1.9565,1.9654,1.9643,1.9609,1.9431,1.9224,1.9375,1.9519,1.9673,1.9899,2.0029,2.0258,2.0372,2.0665,2.1037,2.1669,2.2503,2.3764,2.544,2.6634,2.7645,2.8029,2.8152,2.8039,2.789,2.769,-1.4564,-1.4334,-1.4298,-1.4112,-1.3786,-1.3298,-1.2807,-1.2224,-1.1292,-1.0507,-0.9871,-0.9175,-0.8676,-0.8382,-0.8088,-0.7988,-0.8014,-0.7899,-0.7838,-0.7769,-0.7655,-0.7509,-0.7348,-0.7294,-0.7165,-0.7054,-0.6881,-0.6792,-0.6789,-0.6552,-0.6325,-0.6115,-0.5786,-0.5237,-0.465,-0.3854,-0.3125,-0.2448,-0.171,-0.1103,-0.0649,-0.004,0.063,0.1221,0.1723,0.2248,0.2794,0.2989,0.3304,0.3726,0.3802,0.3921,0.4038,0.4118,0.4314,0.4662,0.4927,0.5315,0.5864,0.6518,0.7134,0.771,0.8318,0.8784,0.9208,0.9473,0.9695,0.9916,1.0293,1.0625,1.0925,1.1521,1.2009,1.204,1.2221,1.2551,1.2985,1.3637,1.4573,1.5624,1.6356,1.7113,1.7842,1.8298,1.8646,1.886,1.9188,1.9403,1.934,1.9384,1.9257,1.9329,1.9433,1.9406,1.919,1.9037,1.9011,1.9073,1.9296,1.9491,1.9821,2.0041,2.0695,2.1172,2.2281,2.3139,2.4495,2.5994,2.6674,2.7509,2.7725,2.789,2.7765,2.759,2.7423,-1.428,-1.4027,-1.4022,-1.3781,-1.3346,-1.3001,-1.2516,-1.178,-1.0904,-1.0117,-0.943,-0.8779,-0.8382,-0.8088,-0.7842,-0.7743,-0.769,-0.7489,-0.747,-0.7583,-0.7429,-0.7198,-0.6985,-0.6811,-0.6694,-0.6615,-0.6564,-0.652,-0.6476,-0.6302,-0.608,-0.5769,-0.5282,-0.4746,-0.4164,-0.3426,-0.2735,-0.1997,-0.1415,-0.0924,-0.0408,0.0202,0.0759,0.1262,0.1766,0.2345,0.3094,0.3294,0.3588,0.3969,0.4153,0.4229,0.4309,0.4426,0.4623,0.489,0.5356,0.5747,0.6177,0.6868,0.7518,0.7983,0.8441,0.8937,0.9435,0.9695,0.9884,1.0105,1.0588,1.0999,1.126,1.1818,1.2224,1.2415,1.2826,1.32,1.3533,1.4219,1.5062,1.5921,1.6438,1.6994,1.7647,1.825,1.867,1.902,1.9382,1.9608,1.9617,1.9613,1.9723,1.9745,1.9648,1.9389,1.9172,1.9051,1.9036,1.9074,1.9177,1.9425,1.967,2.0173,2.0807,2.1734,2.279,2.3928,2.5302,2.6177,2.6794,2.7203,2.7473,2.7473,2.7412,2.7244,2.7049,-1.3919,-1.3732,-1.3642,-1.3346,-1.2958,-1.2565,-1.2024,-1.1394,-1.0458,-0.9776,-0.9187,-0.8535,-0.8088,-0.7842,-0.759,-0.7441,-0.7441,-0.7235,-0.7241,-0.7325,-0.7277,-0.7037,-0.6776,-0.6427,-0.621,-0.6118,-0.6077,-0.6033,-0.5988,-0.5727,-0.5458,-0.5235,-0.4656,-0.4076,-0.3583,-0.2867,-0.2179,-0.1583,-0.109,-0.0687,-0.0293,0.029,0.0818,0.1217,0.1731,0.2403,0.313,0.3519,0.3856,0.4112,0.4293,0.4426,0.4504,0.4698,0.489,0.516,0.5667,0.6177,0.6563,0.7292,0.7906,0.8289,0.8784,0.9165,0.9582,0.9846,1.0067,1.0255,1.0738,1.1217,1.1515,1.204,1.2526,1.2893,1.3236,1.3674,1.4036,1.4641,1.5248,1.5885,1.6377,1.6846,1.7432,1.7978,1.8418,1.8865,1.9241,1.9583,1.9638,1.9694,1.9726,1.9693,1.9586,1.935,1.9136,1.9073,1.9072,1.9135,1.9224,1.9584,1.9904,2.0608,2.1272,2.2534,2.3676,2.4449,2.5699,2.6092,2.6618,2.6893,2.71,2.7049,2.6959,2.6841,2.6642,-1.3443,-1.3394,-1.3147,-1.2905,-1.2565,-1.1878,-1.134,-1.0949,-1.0015,-0.9377,-0.8931,-0.8287,-0.7842,-0.7543,-0.7288,-0.7188,-0.7138,-0.7036,-0.6892,-0.6842,-0.6845,-0.6738,-0.6452,-0.6108,-0.5793,-0.5594,-0.5444,-0.5347,-0.531,-0.4891,-0.4616,-0.4569,-0.3898,-0.3361,-0.2957,-0.2242,-0.1659,-0.125,-0.0704,-0.0436,-0.0303,0.0256,0.0799,0.1008,0.1709,0.2356,0.3001,0.3755,0.4193,0.4281,0.4439,0.4618,0.4737,0.4929,0.5162,0.5395,0.5986,0.6486,0.6984,0.7638,0.825,0.8661,0.916,0.962,0.9695,1.0035,1.0255,1.0368,1.0844,1.1335,1.1744,1.2268,1.2826,1.3382,1.3528,1.3884,1.4497,1.4919,1.5248,1.5718,1.6237,1.6716,1.7097,1.7623,1.8056,1.8418,1.8664,1.8942,1.9218,1.9308,1.9274,1.9308,1.9374,1.9354,1.9153,1.9273,1.934,1.9635,1.9707,1.997,2.0413,2.1154,2.2086,2.3314,2.4202,2.5025,2.5605,2.5934,2.6204,2.6392,2.651,2.6551,2.6484,2.6351,2.6244,-1.2861,-1.2662,-1.2419,-1.2175,-1.1829,-1.1047,-1.0556,-1.0212,-0.9369,-0.8779,-0.8287,-0.7892,-0.754,-0.7288,-0.7042,-0.6892,-0.6792,-0.6492,-0.6292,-0.6195,-0.5839,-0.5618,-0.5406,-0.5272,-0.5095,-0.4807,-0.4702,-0.4673,-0.4624,-0.4119,-0.3864,-0.3855,-0.315,-0.2561,-0.2153,-0.1706,-0.1211,-0.0762,-0.0536,-0.0309,-0.0087,0.0217,0.0599,0.1014,0.1548,0.2252,0.3056,0.4064,0.4716,0.4922,0.4993,0.5087,0.5129,0.5321,0.5592,0.5983,0.6331,0.6791,0.733,0.7944,0.8475,0.8889,0.9349,0.9738,1.0035,1.0255,1.0556,1.085,1.1298,1.1706,1.2114,1.2526,1.301,1.3448,1.3666,1.4021,1.4461,1.4713,1.4963,1.5497,1.5823,1.6237,1.6682,1.7166,1.7623,1.7998,1.8303,1.8539,1.8774,1.8985,1.8985,1.9142,1.9241,1.9274,1.932,1.9452,1.9683,2.0117,2.0326,2.0492,2.1079,2.1816,2.2943,2.4175,2.447,2.5133,2.537,2.5619,2.577,2.592,2.6042,2.6111,2.5988,2.5879,2.5811,-1.2029,-1.1878,-1.1487,-1.1247,-1.0998,-1.0216,-0.9719,-0.9422,-0.8779,-0.823,-0.7786,-0.7391,-0.7141,-0.6839,-0.6592,-0.6392,-0.6239,-0.5842,-0.5691,-0.5541,-0.4987,-0.4658,-0.4498,-0.4447,-0.4233,-0.3901,-0.3859,-0.3795,-0.3692,-0.3282,-0.3037,-0.2856,-0.2302,-0.1788,-0.1546,-0.1136,-0.0814,-0.0449,-0.0314,-0.0134,0.0,0.022,0.0482,0.0912,0.1445,0.2289,0.3517,0.4491,0.5099,0.5273,0.536,0.5378,0.5443,0.5595,0.5909,0.6296,0.6563,0.6984,0.7595,0.8169,0.8703,0.9084,0.9506,0.9846,1.0143,1.0406,1.0663,1.1037,1.1484,1.1855,1.2261,1.2673,1.2973,1.3193,1.3448,1.3768,1.4209,1.4317,1.4605,1.5034,1.547,1.5823,1.6237,1.6726,1.7141,1.7486,1.7828,1.8134,1.8414,1.8583,1.8818,1.9042,1.9241,1.9374,1.9539,1.9671,1.9966,2.041,2.0919,2.1082,2.1711,2.245,2.3391,2.433,2.4709,2.5005,2.5146,2.5286,2.537,2.5536,2.5633,2.5688,2.5633,2.5536,2.5467,-1.1051,-1.0998,-1.0458,-1.0216,-1.0113,-0.9377,-0.8878,-0.8627,-0.8134,-0.7736,-0.7385,-0.6942,-0.6639,-0.6287,-0.6039,-0.5792,-0.5586,-0.519,-0.4937,-0.4636,-0.413,-0.3642,-0.3345,-0.3492,-0.328,-0.2936,-0.2826,-0.2819,-0.2719,-0.2332,-0.2091,-0.1988,-0.1423,-0.1085,-0.0976,-0.0648,-0.0412,-0.0316,-0.0135,0.0,0.0089,0.0268,0.0535,0.0891,0.1649,0.2725,0.3959,0.4876,0.5344,0.5572,0.5583,0.5673,0.5728,0.5853,0.6109,0.6374,0.6756,0.7211,0.7783,0.8394,0.8894,0.9316,0.9695,1.003,1.0293,1.0475,1.0738,1.1143,1.1484,1.1855,1.2261,1.2636,1.2746,1.279,1.279,1.3083,1.3528,1.3848,1.4165,1.4533,1.507,1.5426,1.5859,1.6316,1.6804,1.7141,1.7451,1.7725,1.8066,1.8381,1.8707,1.9065,1.9274,1.9506,1.9704,1.9944,2.0302,2.0679,2.1305,2.172,2.2323,2.3035,2.3739,2.4361,2.462,2.4791,2.492,2.5005,2.5061,2.5146,2.5314,2.5397,2.5439,2.5328,2.523,-0.9969,-0.992,-0.9369,-0.9122,-0.9023,-0.828,-0.7932,-0.7829,-0.7534,-0.7135,-0.6686,-0.6537,-0.6184,-0.5784,-0.5489,-0.534,-0.5087,-0.4535,-0.383,-0.2975,-0.2875,-0.2216,-0.1854,-0.2189,-0.2339,-0.1982,-0.1815,-0.1805,-0.1703,-0.1494,-0.1335,-0.1242,-0.0911,-0.0666,-0.0521,-0.0374,-0.0277,-0.0092,0.0,0.0135,0.0269,0.0359,0.0628,0.1076,0.2062,0.3136,0.4164,0.4991,0.5572,0.5917,0.6133,0.6147,0.6131,0.6255,0.6477,0.6701,0.6949,0.7369,0.7978,0.8546,0.9117,0.9506,0.9879,1.0293,1.0625,1.07,1.0925,1.126,1.1564,1.1855,1.2194,1.2342,1.2342,1.2268,1.2231,1.2342,1.2636,1.3229,1.3702,1.4173,1.4569,1.4963,1.5505,1.5832,1.6316,1.6769,1.7107,1.7382,1.7759,1.8178,1.8607,1.9031,1.9341,1.9572,1.9878,2.0107,2.0496,2.085,2.1411,2.1956,2.2574,2.306,2.3586,2.4041,2.4447,2.4563,2.462,2.4763,2.482,2.4892,2.5005,2.5103,2.5159,2.5061,2.5061,-0.8832,-0.8783,-0.8428,-0.8226,-0.8127,-0.768,-0.7285,-0.7033,-0.6886,-0.6537,-0.6084,-0.5887,-0.5586,-0.5233,-0.4834,-0.4585,-0.4282,-0.3629,-0.2672,-0.1867,-0.1615,-0.111,-0.0505,-0.0757,-0.0958,-0.0856,-0.08,-0.0797,-0.0744,-0.0542,-0.0393,-0.0392,-0.0147,0.0098,0.0145,0.0143,0.0283,0.037,0.0367,0.0454,0.0539,0.0538,0.0942,0.1615,0.2556,0.3494,0.4433,0.5146,0.5778,0.624,0.6552,0.6592,0.6404,0.6471,0.6634,0.6863,0.7065,0.7488,0.8059,0.8665,0.9193,0.9582,0.9997,1.0368,1.0663,1.0812,1.0999,1.1298,1.1521,1.1669,1.1972,1.2009,1.1929,1.1898,1.1861,1.1966,1.2187,1.2636,1.32,1.3695,1.4129,1.4641,1.5078,1.5549,1.6008,1.6551,1.7028,1.7304,1.7632,1.8042,1.8529,1.8965,1.9363,1.9671,1.9976,2.0302,2.069,2.101,2.1348,2.18,2.2309,2.2757,2.3168,2.3616,2.407,2.4187,2.4274,2.4419,2.4591,2.4734,2.482,2.4892,2.4977,2.5005,2.5033,-0.7892,-0.7836,-0.7534,-0.7431,-0.7381,-0.7086,-0.6686,-0.6337,-0.6237,-0.5887,-0.5486,-0.5138,-0.4836,-0.4533,-0.3981,-0.3578,-0.3025,-0.2521,-0.1615,-0.0757,-0.0656,-0.0202,0.0303,0.0353,0.0303,0.0252,0.0101,0.0101,0.0151,0.0303,0.0301,0.0453,0.0605,0.0649,0.0741,0.0785,0.0724,0.0707,0.07,0.0783,0.0816,0.0858,0.1353,0.2198,0.2915,0.3719,0.4612,0.5369,0.5985,0.6384,0.6874,0.6837,0.6661,0.6542,0.6679,0.6921,0.7092,0.7488,0.8063,0.8665,0.9198,0.9625,1.0035,1.0443,1.0743,1.0952,1.1139,1.1321,1.1515,1.1559,1.1645,1.1669,1.1669,1.1595,1.1595,1.1744,1.1929,1.212,1.268,1.3346,1.3855,1.4325,1.4927,1.547,1.5885,1.6307,1.6821,1.7235,1.7564,1.7906,1.8361,1.8865,1.9241,1.9769,2.0107,2.0281,2.0669,2.0946,2.1253,2.1569,2.1968,2.2297,2.2684,2.3228,2.3586,2.3747,2.3953,2.4157,2.4332,2.4505,2.4706,2.4863,2.492,2.4977,2.5005,-0.7338,-0.7288,-0.6786,-0.6587,-0.6534,-0.6084,-0.5837,-0.5684,-0.5489,-0.5238,-0.4885,-0.4384,-0.4031,-0.3677,-0.2975,-0.2169,-0.1514,-0.111,-0.0656,0.005,0.0202,0.0505,0.0909,0.101,0.1111,0.1162,0.096,0.0707,0.0707,0.0707,0.0858,0.0808,0.0859,0.0905,0.09,0.0793,0.0932,0.0917,0.0907,0.0939,0.111,0.138,0.1874,0.2758,0.3342,0.4008,0.4757,0.5552,0.6169,0.6432,0.6874,0.694,0.6861,0.6725,0.6838,0.7012,0.7192,0.7525,0.8137,0.867,0.9236,0.9765,1.0218,1.0594,1.0978,1.1235,1.1351,1.1464,1.1598,1.1625,1.1471,1.1446,1.1372,1.126,1.126,1.1409,1.1706,1.2009,1.2415,1.3163,1.3637,1.4116,1.4756,1.5355,1.585,1.6237,1.6656,1.7097,1.7451,1.7759,1.809,1.8596,1.9108,1.9681,2.0248,2.0313,2.054,2.0765,2.101,2.119,2.1549,2.1812,2.2204,2.2684,2.3138,2.342,2.3628,2.3865,2.4157,2.439,2.462,2.4806,2.4892,2.4948,2.4977,-0.6387,-0.6337,-0.5939,-0.5789,-0.5739,-0.5336,-0.5135,-0.4937,-0.4686,-0.4435,-0.4031,-0.3476,-0.3126,-0.2772,-0.1968,-0.106,-0.0404,-0.0151,0.0202,0.0707,0.0859,0.101,0.1364,0.1414,0.1566,0.1667,0.1566,0.1415,0.1414,0.1565,0.1564,0.1615,0.1615,0.1565,0.1463,0.1453,0.1338,0.1229,0.1216,0.1295,0.1554,0.2019,0.2703,0.3294,0.3924,0.4508,0.5282,0.5822,0.6326,0.6631,0.6918,0.7014,0.7021,0.7026,0.7087,0.726,0.7414,0.7743,0.8341,0.8904,0.943,0.9992,1.0336,1.0669,1.1033,1.1303,1.1495,1.1546,1.1522,1.1528,1.126,1.1291,1.1186,1.1149,1.1129,1.1322,1.1645,1.1874,1.2472,1.3111,1.3608,1.4116,1.4649,1.5248,1.578,1.6202,1.6551,1.6934,1.7314,1.7623,1.792,1.8596,1.9142,1.9704,2.0205,2.0313,2.0378,2.0604,2.0797,2.0978,2.1169,2.1454,2.1749,2.2123,2.2512,2.2927,2.33,2.3509,2.3894,2.4274,2.4492,2.4692,2.4835,2.4907,2.4977,-0.5536,-0.5486,-0.5087,-0.4939,-0.4889,-0.4583,-0.4334,-0.4135,-0.3781,-0.3528,-0.3277,-0.2521,-0.2069,-0.1817,-0.106,-0.0151,0.0505,0.0556,0.0808,0.1162,0.1263,0.1415,0.1566,0.1667,0.1768,0.192,0.2223,0.2172,0.207,0.217,0.2371,0.227,0.2371,0.2322,0.2069,0.1915,0.1848,0.1739,0.1679,0.1809,0.2264,0.2818,0.3475,0.4045,0.4569,0.5183,0.5812,0.6311,0.6636,0.6879,0.7045,0.7149,0.7163,0.7266,0.7389,0.7545,0.7727,0.811,0.8652,0.9169,0.9648,1.0237,1.0458,1.0764,1.1057,1.1413,1.1621,1.1627,1.1663,1.1624,1.1419,1.1298,1.1342,1.1392,1.1443,1.152,1.1916,1.2287,1.2645,1.3174,1.3623,1.416,1.4756,1.5355,1.5956,1.6237,1.6586,1.6899,1.7245,1.7486,1.7886,1.863,1.9231,1.9769,2.014,2.0248,2.0313,2.0399,2.0572,2.0722,2.0914,2.1138,2.1423,2.1718,2.1894,2.2304,2.2744,2.321,2.3556,2.391,2.429,2.4578,2.4778,2.492,2.4977,-0.524,-0.519,-0.4435,-0.4133,-0.4083,-0.3581,-0.338,-0.3281,-0.2774,-0.2573,-0.2421,-0.1463,-0.101,-0.0757,-0.0151,0.0556,0.096,0.1111,0.1212,0.1465,0.1516,0.1566,0.1667,0.1869,0.2022,0.2224,0.2727,0.2725,0.2624,0.2573,0.2522,0.2521,0.2573,0.2371,0.2423,0.2222,0.1969,0.1964,0.1963,0.2293,0.2889,0.3327,0.388,0.454,0.5204,0.5813,0.6211,0.6723,0.7069,0.7134,0.726,0.735,0.7364,0.7426,0.7705,0.7927,0.8127,0.8315,0.8968,0.9455,0.996,1.0506,1.075,1.0933,1.126,1.163,1.1962,1.221,1.2151,1.2029,1.1833,1.1787,1.193,1.2006,1.2023,1.2289,1.2616,1.2676,1.3034,1.3532,1.4029,1.4447,1.4908,1.5541,1.6132,1.6377,1.663,1.6917,1.7241,1.753,1.7906,1.8674,1.9175,1.9704,2.0042,2.0151,2.0216,2.027,2.0367,2.054,2.0754,2.0978,2.1126,2.138,2.1557,2.1819,2.2328,2.2787,2.3198,2.3645,2.4086,2.4434,2.475,2.4863,2.4948,-0.4033,-0.4232,-0.3428,-0.3075,-0.3025,-0.2521,-0.227,-0.2169,-0.1716,-0.1515,-0.1313,-0.0555,0.0,0.0353,0.0758,0.1061,0.1364,0.1415,0.1465,0.1566,0.1617,0.1718,0.1819,0.1971,0.2123,0.2677,0.303,0.3432,0.333,0.3379,0.3328,0.3278,0.3128,0.3029,0.2826,0.2575,0.2373,0.2372,0.2522,0.2914,0.3387,0.3953,0.462,0.5356,0.5886,0.6338,0.6774,0.7047,0.7336,0.7426,0.7476,0.7595,0.772,0.789,0.8144,0.8512,0.8932,0.9253,0.9545,0.9988,1.0479,1.0885,1.1209,1.1447,1.1732,1.1968,1.2161,1.2288,1.2312,1.2245,1.2178,1.2132,1.2246,1.2378,1.2534,1.2782,1.3041,1.3231,1.3449,1.3966,1.4446,1.489,1.5294,1.5827,1.6342,1.6562,1.6782,1.7047,1.743,1.7807,1.8252,1.8751,1.9152,1.955,1.9846,2.0074,2.0118,2.0172,2.0183,2.0378,2.0637,2.085,2.0999,2.1158,2.1316,2.1643,2.1999,2.242,2.2896,2.3407,2.3881,2.4261,2.4591,2.482,2.4962,-0.2674,-0.2823,-0.2269,-0.2018,-0.1967,-0.1412,-0.1211,-0.116,-0.0707,-0.0455,-0.0202,0.0454,0.106,0.1414,0.1515,0.1616,0.1768,0.1819,0.1818,0.1818,0.1818,0.1919,0.2121,0.2272,0.2677,0.333,0.3632,0.4034,0.4437,0.4485,0.4284,0.4135,0.3835,0.3584,0.3282,0.3029,0.2775,0.2725,0.3027,0.3478,0.3972,0.4726,0.5375,0.5979,0.6481,0.6945,0.7358,0.7531,0.7611,0.7657,0.7773,0.7844,0.8023,0.8326,0.8671,0.9175,0.9741,1.0321,1.0486,1.0779,1.1073,1.1381,1.16,1.1767,1.2128,1.2312,1.2414,1.2552,1.2564,1.2579,1.2559,1.2603,1.2763,1.2864,1.2973,1.3192,1.3414,1.3686,1.4019,1.4523,1.5003,1.5489,1.5891,1.6246,1.6572,1.674,1.6988,1.7257,1.7671,1.8118,1.8514,1.895,1.9256,1.9563,1.9791,1.9987,2.0053,2.0085,2.0118,2.0303,2.0606,2.0777,2.0882,2.101,2.125,2.1391,2.1694,2.2161,2.2592,2.3108,2.3586,2.4057,2.439,2.4635,2.4962,-0.1414,-0.096,-0.0959,-0.0909,-0.0859,-0.0353,-0.0101,-0.0151,0.0202,0.0455,0.0808,0.1463,0.1917,0.217,0.217,0.222,0.2321,0.2371,0.2321,0.2321,0.2321,0.2372,0.2574,0.2927,0.3281,0.3731,0.4232,0.4885,0.5386,0.5486,0.5037,0.4489,0.4438,0.4038,0.3684,0.338,0.3281,0.3279,0.358,0.4081,0.4734,0.5436,0.6042,0.6489,0.7092,0.7537,0.763,0.7806,0.7984,0.8045,0.8101,0.8242,0.8461,0.8803,0.9243,0.9879,1.0643,1.1253,1.1573,1.1532,1.1521,1.1762,1.1986,1.2125,1.239,1.2378,1.2552,1.294,1.294,1.3043,1.3199,1.3322,1.3291,1.3425,1.3498,1.3705,1.3974,1.4259,1.464,1.512,1.5561,1.5992,1.6412,1.6737,1.7025,1.7243,1.7515,1.7797,1.8081,1.8504,1.8776,1.9148,1.943,1.968,1.9843,1.9943,1.9987,2.0074,2.0118,2.039,2.0694,2.0801,2.1031,2.135,2.1615,2.1513,2.1536,2.2183,2.2696,2.2929,2.333,2.3865,2.4347,2.4692,2.5047,-0.0556,0.0,0.0455,0.0404,-0.005,0.0505,0.0758,0.0808,0.1211,0.1514,0.1766,0.2118,0.2321,0.2371,0.2422,0.2522,0.2624,0.2675,0.2775,0.2826,0.2876,0.2976,0.3228,0.353,0.3934,0.4383,0.5033,0.5584,0.6034,0.6187,0.6087,0.5639,0.519,0.4738,0.4336,0.3934,0.3833,0.4034,0.4384,0.4937,0.5489,0.6142,0.6695,0.7144,0.7294,0.7793,0.8035,0.8184,0.8333,0.8467,0.8565,0.8739,0.9067,0.9461,0.9966,1.0546,1.1375,1.2013,1.2466,1.2338,1.2325,1.236,1.2553,1.2689,1.2782,1.2884,1.3012,1.3239,1.3264,1.3355,1.3512,1.3597,1.3656,1.3857,1.4033,1.4195,1.4434,1.4676,1.5068,1.5468,1.5953,1.6417,1.6814,1.7206,1.7471,1.7751,1.8026,1.8313,1.8564,1.8817,1.9045,1.9223,1.951,1.9626,1.9729,1.984,1.9911,2.0009,2.0151,2.0532,2.0872,2.126,2.1526,2.1804,2.204,2.2116,2.2259,2.2526,2.2794,2.3033,2.3344,2.3717,2.4203,2.4748,2.5103,0.0252,0.0808,0.1464,0.1364,0.0859,0.1313,0.1565,0.1615,0.1917,0.227,0.2522,0.2573,0.2675,0.2725,0.2775,0.2927,0.3179,0.3278,0.3432,0.3533,0.3682,0.3781,0.4031,0.4332,0.4784,0.5186,0.5687,0.6237,0.6886,0.6892,0.6889,0.6637,0.6187,0.5639,0.4836,0.4535,0.4384,0.4786,0.519,0.5792,0.6342,0.6892,0.7344,0.7793,0.7939,0.8137,0.8432,0.8531,0.863,0.8829,0.9015,0.932,0.9768,1.0243,1.0724,1.1366,1.2004,1.2692,1.3078,1.3231,1.3171,1.3133,1.3163,1.3236,1.3247,1.3313,1.3336,1.347,1.3483,1.3574,1.3792,1.3822,1.387,1.4039,1.4039,1.4201,1.4615,1.4906,1.5405,1.5838,1.6373,1.6961,1.754,1.7923,1.8078,1.8335,1.8576,1.8753,1.8887,1.9078,1.9231,1.9387,1.9508,1.9565,1.9596,1.9797,1.9968,1.9998,2.0194,2.0676,2.1073,2.153,2.1957,2.2261,2.2477,2.2729,2.2796,2.2846,2.298,2.3133,2.3622,2.4214,2.4511,2.5032,2.5158,0.1111,0.1617,0.1867,0.1817,0.1616,0.212,0.2321,0.227,0.2371,0.2573,0.2826,0.3029,0.3282,0.3433,0.3433,0.3682,0.3932,0.4185,0.4388,0.4437,0.4686,0.4784,0.4985,0.5286,0.5687,0.6039,0.6589,0.7238,0.7839,0.7587,0.7587,0.7537,0.7039,0.6339,0.5288,0.4935,0.5085,0.5536,0.5889,0.6487,0.7138,0.764,0.8038,0.8283,0.8478,0.8627,0.873,0.8874,0.9027,0.9229,0.9525,0.992,1.0413,1.1096,1.1712,1.228,1.3006,1.3674,1.4172,1.4228,1.4059,1.3774,1.3755,1.3722,1.3512,1.3491,1.3677,1.3952,1.388,1.3907,1.3995,1.4108,1.4135,1.4082,1.4088,1.425,1.4657,1.511,1.552,1.609,1.6863,1.7594,1.823,1.8717,1.8786,1.8923,1.9127,1.9212,1.9187,1.9297,1.9408,1.9488,1.9585,1.9717,1.9783,1.9899,1.9997,2.0038,2.0391,2.103,2.1498,2.1924,2.232,2.2708,2.2972,2.3236,2.3132,2.3059,2.3571,2.4181,2.4449,2.4922,2.5124,2.5246,2.5361,0.1817,0.217,0.2422,0.2472,0.2423,0.2574,0.2675,0.2675,0.2826,0.2978,0.313,0.3332,0.3484,0.3635,0.3987,0.4286,0.4585,0.5035,0.5238,0.5491,0.5739,0.5837,0.6037,0.6337,0.6686,0.6989,0.7487,0.7885,0.8233,0.8081,0.8035,0.7939,0.7537,0.6789,0.6137,0.5787,0.5842,0.6389,0.6836,0.7385,0.7985,0.8333,0.8577,0.8676,0.8825,0.8928,0.908,0.9225,0.9525,0.9772,1.0117,1.0659,1.1194,1.1878,1.2462,1.3044,1.3721,1.4346,1.4908,1.5137,1.489,1.4501,1.4257,1.4262,1.4216,1.4392,1.4487,1.4498,1.4451,1.4435,1.4392,1.4396,1.4349,1.4128,1.4124,1.4328,1.4657,1.511,1.5613,1.6273,1.6976,1.7757,1.8442,1.8904,1.9046,1.9118,1.9228,1.9256,1.9249,1.9395,1.9545,1.9618,1.9698,1.9871,1.9992,2.015,2.0372,2.049,2.1011,2.1706,2.2125,2.24,2.2948,2.3466,2.3616,2.3719,2.3816,2.4036,2.4826,2.5363,2.546,2.5427,2.5521,2.5553,2.5563,0.2371,0.2573,0.2826,0.2928,0.2927,0.2927,0.2927,0.2978,0.323,0.3332,0.3383,0.3635,0.3885,0.4086,0.4386,0.4889,0.5238,0.5739,0.6137,0.6442,0.6792,0.6939,0.7089,0.7338,0.7534,0.7786,0.8131,0.8577,0.8684,0.8779,0.8627,0.828,0.7832,0.7534,0.7086,0.6886,0.6789,0.7238,0.7637,0.8081,0.8531,0.8832,0.8977,0.9126,0.9225,0.9324,0.9525,0.9826,1.0171,1.0462,1.0953,1.1443,1.2024,1.2608,1.319,1.3763,1.4388,1.4921,1.5337,1.5622,1.5325,1.4969,1.491,1.4831,1.481,1.4807,1.491,1.4968,1.5035,1.4921,1.4723,1.4676,1.4556,1.4342,1.4327,1.4498,1.4713,1.5209,1.5778,1.6448,1.7106,1.7846,1.8531,1.8913,1.9246,1.9265,1.9292,1.9292,1.9292,1.942,1.9518,1.9573,1.9724,1.9889,2.0145,2.0459,2.0699,2.0945,2.1547,2.2229,2.2597,2.2876,2.3554,2.4123,2.4137,2.4222,2.4648,2.5052,2.5413,2.5775,2.6038,2.6013,2.5933,2.5815,2.5704,0.2826,0.2826,0.3079,0.318,0.318,0.318,0.323,0.323,0.3484,0.3586,0.3636,0.3934,0.4284,0.4734,0.4836,0.5338,0.6039,0.6592,0.6939,0.7288,0.7686,0.7839,0.8038,0.8233,0.8333,0.8478,0.8726,0.8977,0.9133,0.8981,0.8829,0.8726,0.8428,0.823,0.7982,0.7882,0.7783,0.8084,0.8333,0.8783,0.9183,0.9282,0.9377,0.9525,0.9673,0.9871,1.0117,1.0462,1.085,1.1292,1.1785,1.2268,1.2851,1.3528,1.3956,1.4436,1.5112,1.5397,1.554,1.5737,1.5771,1.5497,1.5431,1.5291,1.5164,1.515,1.5184,1.5216,1.5229,1.5135,1.5028,1.4923,1.485,1.4689,1.4593,1.4724,1.4887,1.5337,1.5951,1.6627,1.7261,1.7968,1.8612,1.9033,1.9292,1.9292,1.9292,1.9292,1.9292,1.9292,1.9381,1.942,1.9623,1.9888,2.0232,2.0666,2.1188,2.1526,2.1972,2.2568,2.2915,2.3345,2.3892,2.4349,2.4491,2.467,2.4897,2.5182,2.5511,2.5864,2.6185,2.6378,2.6254,2.5896,2.5727,0.3079,0.3079,0.318,0.318,0.323,0.3383,0.3484,0.3534,0.3784,0.3883,0.3883,0.4383,0.4784,0.5138,0.5687,0.6287,0.6839,0.7391,0.7736,0.8084,0.8382,0.8482,0.863,0.8783,0.8935,0.9034,0.9179,0.9327,0.9381,0.9179,0.9084,0.9034,0.8829,0.8726,0.8726,0.873,0.8779,0.8878,0.9126,0.9327,0.9628,0.9727,0.9821,0.9871,1.0019,1.0216,1.056,1.1096,1.1487,1.1829,1.2603,1.3227,1.357,1.4148,1.4634,1.5105,1.5493,1.5737,1.573,1.5778,1.5825,1.5825,1.5725,1.5712,1.5605,1.5531,1.5518,1.5464,1.5444,1.5398,1.5311,1.5231,1.5156,1.504,1.5014,1.517,1.5359,1.5863,1.6475,1.7213,1.7846,1.8345,1.8932,1.9073,1.9292,1.9292,1.9292,1.9292,1.9292,1.9292,1.9292,1.9341,1.9638,1.9935,2.0469,2.0954,2.1565,2.2147,2.2535,2.2963,2.3453,2.3912,2.4267,2.4552,2.4754,2.4873,2.504,2.5276,2.5523,2.5769,2.6027,2.6375,2.6531,2.6128,2.5747,0.318,0.318,0.318,0.3232,0.3432,0.3736,0.3937,0.4085,0.4234,0.4334,0.4384,0.4987,0.5436,0.5789,0.6387,0.6989,0.749,0.8035,0.8432,0.8684,0.8977,0.908,0.9179,0.9229,0.9331,0.943,0.948,0.9525,0.9579,0.948,0.9335,0.9331,0.9179,0.9225,0.9274,0.9426,0.962,0.9719,0.9817,0.9871,0.9969,1.0117,1.0117,1.0117,1.0216,1.0659,1.1002,1.1634,1.217,1.2511,1.3377,1.3908,1.4244,1.4729,1.5112,1.554,1.5689,1.5784,1.5778,1.5778,1.5825,1.5825,1.5825,1.5812,1.5798,1.5738,1.5752,1.5745,1.5765,1.5758,1.5651,1.5538,1.5449,1.5366,1.5486,1.5656,1.607,1.6485,1.7179,1.7957,1.8513,1.8938,1.9241,1.9274,1.9292,1.9292,1.9332,1.9381,1.9341,1.935,1.9301,1.9292,1.9657,2.0031,2.0605,2.1146,2.1735,2.2312,2.2811,2.3315,2.3897,2.4298,2.4515,2.4767,2.504,2.5111,2.5182,2.5276,2.5488,2.5699,2.5838,2.608,2.6311,2.6317,2.595,0.323,0.3232,0.323,0.3484,0.3736,0.4237,0.4587,0.4885,0.4985,0.4935,0.5085,0.5689,0.6187,0.6537,0.7036,0.7587,0.8084,0.8581,0.8882,0.924,0.9377,0.9476,0.9476,0.9579,0.9529,0.9579,0.9624,0.9624,0.9624,0.9583,0.9537,0.964,0.9615,0.9647,0.9904,0.9904,1.0145,1.0487,1.0295,1.0167,1.0216,1.0265,1.0359,1.031,1.0703,1.1247,1.159,1.2175,1.2958,1.3389,1.3865,1.4448,1.4873,1.5166,1.554,1.5683,1.5784,1.5784,1.5825,1.5825,1.5825,1.5825,1.5825,1.5825,1.5825,1.5825,1.5825,1.5825,1.5818,1.5812,1.5732,1.5698,1.5671,1.5763,1.5985,1.6236,1.6702,1.7272,1.8125,1.8768,1.9191,1.9605,1.9693,1.9756,1.9598,1.947,1.9381,1.9429,1.9527,1.9527,1.9478,1.942,1.9775,2.0177,2.0644,2.1185,2.1769,2.2365,2.2927,2.3446,2.3934,2.4298,2.4706,2.4909,2.5159,2.5218,2.5276,2.5347,2.5418,2.55,2.5676,2.5781,2.5974,2.6135,2.605,0.3332,0.3534,0.3734,0.4083,0.4485,0.4636,0.5087,0.5741,0.5937,0.5887,0.5839,0.6187,0.6686,0.7285,0.7686,0.8187,0.8783,0.9008,0.9232,0.9454,0.9607,0.9705,0.9652,0.9697,0.9665,0.9624,0.9624,0.9669,0.9685,0.9681,0.9709,0.9807,0.9827,1.002,1.0425,1.0353,1.0532,1.0947,1.0803,1.0632,1.0654,1.0654,1.0703,1.085,1.1243,1.1736,1.2127,1.2759,1.3431,1.3962,1.4598,1.5077,1.554,1.5642,1.5737,1.5784,1.5825,1.5825,1.5825,1.5825,1.5825,1.5825,1.5825,1.5825,1.5825,1.5825,1.5825,1.5825,1.5825,1.5825,1.5825,1.5818,1.5947,1.6183,1.6462,1.6896,1.7369,1.8216,1.9079,1.9557,1.9949,2.0093,2.0185,2.0108,1.9961,1.9771,1.961,1.9615,1.9801,1.985,1.9861,1.9852,2.002,2.0372,2.076,2.1146,2.1655,2.23,2.2863,2.3372,2.3922,2.4406,2.4849,2.5016,2.5182,2.5253,2.5312,2.5312,2.5347,2.543,2.55,2.5641,2.5711,2.5859,2.5811,0.3633,0.3835,0.4183,0.4585,0.4987,0.5238,0.5636,0.6189,0.6589,0.6839,0.6892,0.7089,0.7434,0.7982,0.8336,0.8645,0.9206,0.9418,0.96,0.9708,0.9815,0.988,0.9864,0.9839,0.9892,0.9868,0.9864,0.988,0.9839,0.988,0.9949,1.0049,1.0069,1.0265,1.0672,1.0677,1.0795,1.1263,1.1143,1.1149,1.1128,1.1149,1.1096,1.1243,1.1731,1.2224,1.271,1.3244,1.3913,1.449,1.507,1.5404,1.5683,1.5778,1.5778,1.5825,1.5825,1.5825,1.5825,1.5825,1.5825,1.5825,1.5825,1.5825,1.5825,1.5825,1.5825,1.5825,1.5825,1.5825,1.5872,1.5872,1.6258,1.6553,1.7095,1.7602,1.8485,1.9512,2.0198,2.0722,2.0969,2.1004,2.1025,2.0815,2.0651,2.0585,2.0345,2.02,2.0313,2.0335,2.0308,2.029,2.0437,2.0479,2.0644,2.1031,2.1502,2.2149,2.2751,2.3335,2.3886,2.4514,2.4981,2.5052,2.5147,2.5276,2.5312,2.5312,2.5312,2.5347,2.5382,2.5453,2.5535,2.5571,2.5561,0.4135,0.4234,0.4734,0.5087,0.5441,0.5942,0.6339,0.6686,0.7138,0.769,0.8038,0.8088,0.8287,0.8584,0.8965,0.9164,0.9418,0.9712,0.9908,0.9961,1.0059,1.0054,1.0079,1.0175,1.0099,1.0095,1.0147,1.0151,1.0091,1.0151,1.0107,1.0228,1.0305,1.0471,1.0841,1.1076,1.1187,1.1425,1.1502,1.1561,1.1604,1.1644,1.1536,1.178,1.2219,1.2807,1.3238,1.3721,1.4394,1.4873,1.5356,1.5642,1.5778,1.5825,1.5825,1.5825,1.5825,1.5825,1.5825,1.5825,1.5825,1.5825,1.5832,1.5825,1.5825,1.5825,1.5825,1.5825,1.5825,1.5879,1.5927,1.6069,1.6501,1.7113,1.7707,1.8388,1.9484,2.0583,2.1123,2.1659,2.1766,2.1782,2.1688,2.1476,2.1385,2.1328,2.1259,2.1151,2.1101,2.1045,2.0999,2.0962,2.0973,2.0917,2.0742,2.0955,2.1399,2.1845,2.244,2.315,2.3813,2.4298,2.473,2.5028,2.5123,2.5218,2.5276,2.5312,2.5312,2.5312,2.5312,2.5382,2.5382,2.5418,2.5347,0.4786,0.4989,0.5541,0.5939,0.6237,0.6739,0.7238,0.769,0.8035,0.8485,0.884,0.8939,0.9034,0.9046,0.9284,0.9536,0.977,1.0073,1.0147,1.0184,1.0362,1.0293,1.0253,1.0424,1.0237,1.0245,1.0273,1.0228,1.0314,1.0229,1.0245,1.0371,1.0379,1.0593,1.1024,1.1224,1.1402,1.1689,1.1853,1.1937,1.1894,1.1924,1.2039,1.2316,1.2662,1.3286,1.3817,1.4148,1.4682,1.5207,1.5588,1.5778,1.5845,1.5858,1.5885,1.5932,1.5919,1.5952,1.5965,1.5919,1.5919,1.5892,1.5879,1.5825,1.5825,1.5832,1.5879,1.5879,1.5879,1.5974,1.6076,1.6211,1.6595,1.7567,1.8342,1.9225,2.0229,2.0997,2.1633,2.1945,2.2101,2.2199,2.2248,2.2054,2.1912,2.1859,2.17,2.1643,2.1661,2.1675,2.1668,2.1551,2.1453,2.1193,2.0997,2.0937,2.1277,2.1668,2.2149,2.2852,2.3482,2.397,2.437,2.4814,2.5052,2.5147,2.5218,2.5312,2.5312,2.5312,2.5312,2.5312,2.5312,2.5312,2.5312]},{"header":{"parameterUnit":"m.s-1","parameterCategory":1,"la1":31.0,"la2":29.5877,"lo1":-88.7671,"lo2":-86.6584,"dy":0.0162,"dx":0.0185,"nx":115,"ny":88,"refTime":"2023-09-21T12:00:00:Z","depth":0,"parameterNumber":3,"parameterNumberName":"V-component_of_WINDS"},"data":[0.0,0.0,0.0,0.0,0.0,0.0,0.0,0.0,0.0,0.0,0.0,0.0,0.0,0.0,0.0,0.0,0.0,0.0,0.0,0.0,0.0,0.0,0.0,0.0,0.0,0.0,0.0,0.0,0.0,0.0,0.0,0.0,0.0,0.0,0.0,0.0,0.0,0.0,0.0,0.0,0.0,0.0,0.0,0.0,0.0,0.0,0.0,0.0,0.0,0.0,0.0,0.0,0.0,0.0,0.0,0.0,0.0,0.0,0.0,0.0,0.0,0.0,0.0,0.0,0.0,0.0,0.0,0.0,0.0,0.0,0.0,0.0,0.0,0.0,0.0,0.0,0.0,0.0,0.0,0.0,0.0,0.0,0.0,0.0,0.0,0.0,0.0,0.0,0.0,0.0,0.0,0.0,0.0,0.0,0.0,0.0,0.0,0.0,0.0,0.0,0.0,0.0,0.0,0.0,0.0,0.0,0.0,0.0,0.0,0.0,0.0,0.0,0.0,0.0,0.0,0.0,0.0,0.0,0.0,0.0,0.0,0.0,0.0,0.0,0.0,0.0,0.0,0.0,0.0,0.0,0.0,0.0,0.0,0.0,0.0,0.0,0.0,0.0,0.0,0.0,0.0,0.0,0.0,0.0,0.0,0.0,0.0,0.0,0.0,0.0,0.0,0.0,0.0,0.0,0.0,0.0,0.0,0.0,0.0,0.0,0.0,0.0,0.0,0.0,0.0,0.0,0.0,0.0,0.0,0.0,0.0,0.0,0.0,0.0,0.0,0.0,0.0,0.0,0.0,0.0,0.0,0.0,0.0,0.0,0.0,0.0,0.0,0.0,0.0,0.0,0.0,0.0,0.0,0.0,0.0,0.0,0.0,0.0,0.0,0.0,0.0,0.0,0.0,0.0,0.0,0.0,0.0,0.0,0.0,0.0,0.0,0.0,0.0,0.0,0.0,0.0,0.0,0.0,0.0,0.0,0.0,0.0,0.0,0.0,0.0,0.0,0.0,0.0,0.0,0.0,0.0,0.0,0.0,0.0,0.0,0.0,0.0,0.0,0.0,0.0,0.0,0.0,0.0,0.0,0.0,0.0,0.0,0.0,0.0,0.0,0.0,0.0,0.0,0.0,0.0,0.0,0.0,0.0,0.0,0.0,0.0,0.0,0.0,0.0,0.0,0.0,0.0,0.0,0.0,0.0,0.0,0.0,0.0,0.0,0.0,0.0,0.0,0.0,0.0,0.0,0.0,0.0,0.0,0.0,0.0,0.0,0.0,0.0,0.0,0.0,0.0,0.0,0.0,0.0,0.0,0.0,0.0,0.0,0.0,0.0,0.0,0.0,0.0,0.0,0.0,0.0,0.0,0.0,0.0,0.0,0.0,0.0,0.0,0.0,0.0,0.0,0.0,0.0,0.0,0.0,0.0,0.0,0.0,0.0,0.0,0.0,0.0,0.0,0.0,0.0,0.0,0.0,0.0,0.0,0.0,0.0,0.0,0.0,0.0,0.0,0.0,0.0,0.0,0.0,0.0,0.0,0.0,0.0,0.0,0.0,0.0,0.0,0.0,0.0,0.0,0.0,0.0,0.0,0.0,0.0,0.0,0.0,0.0,0.0,0.0,0.0,0.0,0.0,0.0,0.0,0.0,0.0,0.0,0.0,0.0,0.0,0.0,0.0,0.0,0.0,0.0,0.0,0.0,0.0,0.0,0.0,0.0,0.0,0.0,0.0,0.0,0.0,0.0,0.0,0.0,0.0,0.0,0.0,0.0,0.0,0.0,0.0,0.0,0.0,0.0,0.0,0.0,0.0,0.0,0.0,0.0,0.0,0.0,0.0,0.0,0.0,0.0,0.0,0.0,0.0,0.0,0.0,0.0,0.0,0.0,0.0,0.0,0.0,0.0,0.0,0.0,0.0,0.0,0.0,0.0,0.0,0.0,0.0,0.0,0.0,0.0,0.0,0.0,0.0,0.0,0.0,0.0,0.0,0.0,0.0,0.0,0.0,0.0,0.0,0.0,0.0,0.0,0.0,0.0,0.0,0.0,0.0,0.0,0.0,0.0,0.0,0.0,0.0,0.0,0.0,0.0,0.0,0.0,0.0,0.0,0.0,0.0,0.0,0.0,0.0,0.0,0.0,0.0,0.0,0.0,0.0,0.0,0.0,0.0,0.0,0.0,0.0,0.0,0.0,0.0,0.0,0.0,0.0,0.0,0.0,0.0,0.0,0.0,0.0,0.0,0.0,0.0,0.0,0.0,0.0,0.0,0.0,0.0,0.0,0.0,0.0,0.0,0.0,0.0,0.0,0.0,0.0,0.0,0.0,0.0,0.0,0.0,0.0,0.0,0.0,0.0,0.0,0.0,0.0,0.0,0.0,0.0,0.0,0.0,0.0,0.0,0.0,0.0,0.0,0.0,0.0,0.0,0.0,0.0,0.0,0.0,0.0,0.0,0.0,0.0,0.0,0.0,0.0,0.0,0.0,0.0,0.0,0.0,0.0,0.0,0.0,0.0,0.0,0.0,0.0,0.0,0.0,0.0,0.0,0.0,0.0,0.0,0.0,0.0,0.0,0.0,0.0,0.0,0.0,0.0,0.0,0.0,0.0,0.0,0.0,0.0,0.0,0.0,0.0,0.0,0.0,0.0,0.0,0.0,0.0,0.0,0.0,0.0,0.0,0.0,0.0,0.0,0.0,0.0,0.0,0.0,0.0,0.0,0.0,0.0,0.0,0.0,0.0,0.0,0.0,0.0,0.0,0.0,0.0,0.0,0.0,0.0,0.0,0.0,0.0,0.0,0.0,0.0,0.0,0.0,0.0,0.0,0.0,0.0,0.0,0.0,0.0,0.0,0.0,0.0,0.0,0.0,0.0,0.0,0.0,0.0,0.0,0.0,0.0,0.0,0.0,0.0,0.0,0.0,0.0,0.0,0.0,0.0,0.0,0.0,0.0,0.0,0.0,0.0,0.0,0.0,0.0,0.0,0.0,0.0,0.0,0.0,0.0,0.0,0.0,0.0,0.0,0.0,0.0,0.0,0.0,0.0,0.0,0.0,0.0,0.0,0.0,0.0,0.0,0.0,0.0,0.0,0.0,0.0,0.0,0.0,0.0,0.0,0.0,0.0,0.0,0.0,0.0,0.0,0.0,0.0,0.0,0.0,0.0,0.0,0.0,0.0,0.0,0.0,0.0,0.0,0.0,0.0,0.0,0.0,0.0,0.0,0.0,0.0,0.0,0.0,0.0,0.0,0.0,0.0,0.0,0.0,0.0,0.0,0.0,0.0,0.0,0.0,0.0,0.0,0.0,0.0,0.0,0.0,0.0,0.0,0.0,0.0,0.0,0.0,0.0,0.0,0.0,0.0,0.0,0.0,0.0,0.0,0.0,0.0,0.0,0.0,0.0,0.0,0.0,0.0,0.0,0.0,0.0,0.0,0.0,0.0,0.0,0.0,0.0,0.0,0.0,0.0,0.0,0.0,0.0,0.0,0.0,0.0,0.0,0.0,0.0,0.0,0.0,0.0,0.0,0.0,0.0,0.0,0.0,0.0,0.0,0.0,0.0,0.0,0.0,0.0,0.0,0.0,0.0,0.0,0.0,0.0,0.0,0.0,0.0,0.0,0.0,0.0,0.0,0.0,0.0,0.0,0.0,0.0,0.0,0.0,0.0,0.0,0.0,0.0,0.0,0.0,0.0,0.0,0.0,0.0,0.0,0.0,0.0,0.0,0.0,0.0,0.0,0.0,0.0,0.0,0.0,0.0,0.0,0.0,0.0,0.0,0.0,0.0,0.0,0.0,0.0,0.0,0.0,0.0,0.0,0.0,0.0,0.0,0.0,0.0,0.0,0.0,0.0,0.0,0.0,0.0,0.0,0.0,0.0,0.0,0.0,0.0,0.0,0.0,0.0,0.0,0.0,0.0,0.0,0.0,0.0,0.0,0.0,0.0,0.0,0.0,0.0,0.0,0.0,0.0,0.0,0.0,0.0,0.0,0.0,0.0,0.0,0.0,0.0,0.0,0.0,0.0,0.0,0.0,0.0,0.0,0.0,0.0,0.0,0.0,0.0,0.0,0.0,0.0,0.0,0.0,0.0,0.0,0.0,0.0,0.0,0.0,0.0,0.0,0.0,0.0,0.0,0.0,0.0,0.0,0.0,0.0,0.0,0.0,0.0,0.0,0.0,0.0,0.0,0.0,0.0,0.0,0.0,0.0,0.0,0.0,0.0,0.0,0.0,0.0,0.0,0.0,0.0,0.0,0.0,0.0,0.0,0.0,0.0,1.7807,0.0,0.0,0.0,0.0,0.0,0.0,0.0,0.0,0.0,0.0,0.0,0.0,0.0,0.0,0.0,0.0,0.0,0.0,0.0,0.0,0.0,0.0,0.0,0.0,0.0,0.0,0.0,0.0,0.0,0.0,0.0,0.0,0.0,0.0,0.0,0.0,0.0,0.0,0.0,0.0,0.0,0.0,0.0,0.0,0.0,0.0,0.0,0.0,0.0,0.0,0.0,0.0,0.0,0.0,0.0,0.0,0.0,0.0,0.0,0.0,0.0,0.0,0.0,0.0,0.0,0.0,0.0,0.0,0.0,0.0,0.0,0.0,0.0,0.0,0.0,0.0,0.0,0.0,0.0,0.0,0.0,0.0,0.0,0.0,0.0,0.0,0.0,0.0,0.0,0.0,0.0,0.0,0.0,0.0,0.0,0.0,0.0,0.0,0.0,0.0,0.0,0.0,0.0,0.0,0.0,0.0,0.0,0.0,0.0,0.0,2.1423,2.1008,2.0025,1.9126,1.829,0.0,0.0,0.0,0.0,0.0,0.0,0.0,0.0,0.0,0.0,0.0,0.0,0.0,0.0,0.0,0.0,0.0,0.0,0.0,0.0,0.0,0.0,0.0,0.0,0.0,0.0,0.0,0.0,0.0,0.0,0.0,0.0,0.0,0.0,0.0,0.0,0.0,0.0,0.0,0.0,0.0,0.0,0.0,0.0,0.0,0.0,0.0,0.0,0.0,0.0,0.0,0.0,0.0,0.0,0.0,0.0,0.0,0.0,0.0,0.0,0.0,0.0,0.0,0.0,0.0,0.0,0.0,0.0,0.0,0.0,0.0,0.0,0.0,0.0,0.0,0.0,0.0,0.0,0.0,0.0,0.0,0.0,0.0,0.0,0.0,0.0,0.0,0.0,0.0,0.0,0.0,0.0,0.0,0.0,0.0,0.0,0.0,0.0,0.0,0.0,0.0,0.0,0.0,0.0,0.0,0.0,0.0,0.0,0.0,0.0,0.0,0.0,2.0401,1.9457,1.8446,0.0,0.0,0.0,0.0,0.0,0.0,0.0,0.0,0.0,0.0,0.0,0.0,0.0,0.0,0.0,0.0,0.0,0.0,0.0,0.0,0.0,0.0,0.0,0.0,0.0,0.0,0.0,0.0,0.0,0.0,0.0,0.0,0.0,0.0,0.0,0.0,0.0,0.0,0.0,0.0,0.0,0.0,0.0,0.0,0.0,0.0,0.0,0.0,0.0,0.0,0.0,0.0,0.0,0.0,0.0,0.0,0.0,0.0,0.0,0.0,0.0,0.0,0.0,0.0,0.0,0.0,0.0,0.0,0.0,0.0,0.0,0.0,0.0,0.0,0.0,0.0,0.0,0.0,0.0,0.0,0.0,0.0,0.0,0.0,0.0,0.0,0.0,0.0,0.0,0.0,0.0,0.0,0.0,0.0,0.0,0.0,0.0,0.0,0.0,0.0,0.0,0.0,0.0,0.0,0.0,0.0,0.0,0.0,0.0,0.0,2.2289,2.1986,2.1316,0.0,1.7974,0.0,0.0,0.0,0.0,0.0,0.0,0.0,0.0,0.0,0.0,0.0,0.0,0.0,0.0,0.0,0.0,0.0,0.0,0.0,0.0,0.0,0.0,0.0,0.0,0.0,0.0,0.0,0.0,0.0,0.0,0.0,0.0,0.0,0.0,0.0,0.0,0.0,0.0,0.0,0.0,0.0,0.0,0.0,0.0,0.0,0.0,0.0,0.0,0.0,0.0,0.0,0.0,0.0,0.0,0.0,0.0,0.0,0.0,0.0,0.0,0.0,0.0,0.0,0.0,0.0,0.0,0.0,0.0,0.0,0.0,0.0,0.0,0.0,0.0,0.0,0.0,0.0,0.0,0.0,0.0,0.0,0.0,0.0,0.0,0.0,0.0,0.0,0.0,0.0,0.0,0.0,0.0,0.0,0.0,0.0,0.0,0.0,0.0,0.0,0.0,0.0,0.0,0.0,0.0,0.0,0.0,0.0,0.0,0.0,0.0,2.2471,2.2405,2.1058,1.9451,0.0,0.0,0.0,0.0,0.0,0.0,0.0,0.0,0.0,0.0,0.0,0.0,0.0,0.0,0.0,0.0,0.0,0.0,0.0,0.0,0.0,0.0,0.0,0.0,0.0,0.0,0.0,0.0,0.0,0.0,0.0,0.0,0.0,0.0,0.0,0.0,0.0,0.0,0.0,0.0,0.0,0.0,0.0,0.0,0.0,0.0,0.0,0.0,0.0,0.0,0.0,0.0,0.0,0.0,0.0,0.0,0.0,0.0,0.0,0.0,0.0,0.0,0.0,0.0,0.0,0.0,0.0,0.0,0.0,0.0,0.0,0.0,0.0,0.0,0.0,0.0,0.0,0.0,0.0,0.0,0.0,0.0,0.0,0.0,0.0,0.0,0.0,0.0,0.0,0.0,0.0,0.0,0.0,0.0,0.0,0.0,0.0,0.0,0.0,0.0,0.0,0.0,0.0,0.0,0.0,0.0,0.0,0.0,0.0,0.0,2.3027,2.2789,2.2408,2.0822,1.9235,1.7802,0.0,0.0,0.0,0.0,0.0,0.0,0.0,0.0,0.0,0.0,0.0,0.0,0.0,0.0,0.0,0.0,0.0,0.0,0.0,0.0,0.0,0.0,0.0,0.0,0.0,0.0,0.0,0.0,0.0,0.0,0.0,0.0,0.0,0.0,0.0,0.0,0.0,0.0,0.0,0.0,0.0,0.0,0.0,0.0,0.0,0.0,0.0,0.0,0.0,0.0,0.0,0.0,0.0,0.0,0.0,0.0,0.0,0.0,0.0,0.0,0.0,0.0,0.0,0.0,0.0,0.0,0.0,0.0,0.0,0.0,0.0,0.0,0.0,0.0,0.0,0.0,0.0,0.0,0.0,0.0,0.0,0.0,0.0,0.0,0.0,0.0,0.0,0.0,0.0,0.0,0.0,0.0,0.0,0.0,0.0,0.0,0.0,0.0,0.0,0.0,0.0,0.0,0.0,0.0,0.0,0.0,0.0,0.0,2.3318,2.3774,2.3424,2.2135,2.0849,1.9714,0.0,0.0,0.0,0.0,0.0,0.0,0.0,0.0,0.0,0.0,0.0,0.0,0.0,0.0,0.0,0.0,0.0,0.0,0.0,0.0,0.0,0.0,0.0,0.0,0.0,0.0,0.0,0.0,0.0,0.0,0.0,0.0,0.0,0.0,0.0,0.0,0.0,0.0,0.0,0.0,0.0,0.0,0.0,0.0,0.0,0.0,0.0,0.0,0.0,0.0,0.0,0.0,0.0,0.0,0.0,0.0,0.0,0.0,0.0,0.0,0.0,0.0,0.0,0.0,0.0,0.0,0.0,0.0,0.0,0.0,0.0,0.0,0.0,0.0,0.0,0.0,0.0,0.0,0.0,0.0,0.0,0.0,0.0,0.0,0.0,0.0,0.0,0.0,0.0,0.0,0.0,0.0,0.0,0.0,0.0,0.0,0.0,0.0,0.0,0.0,0.0,0.0,0.0,0.0,0.0,0.0,0.0,0.0,0.0,2.3758,2.3987,2.3404,2.2022,2.0984,1.9865,0.0,0.0,0.0,0.0,0.0,0.0,0.0,0.0,0.0,0.0,0.0,0.0,0.0,0.0,0.0,0.0,0.0,0.0,0.0,0.0,0.0,0.0,0.0,0.0,0.0,0.0,0.0,0.0,0.0,0.0,0.0,0.0,0.0,0.0,0.0,0.0,0.0,0.0,0.0,0.0,0.0,0.0,0.0,0.0,0.0,0.0,0.0,0.0,0.0,0.0,0.0,0.0,0.0,0.0,0.0,0.0,0.0,0.0,0.0,0.0,0.0,0.0,0.0,0.0,0.0,0.0,0.0,0.0,0.0,0.0,0.0,0.0,0.0,0.0,0.0,0.0,0.0,0.0,0.0,0.0,0.0,0.0,0.0,0.0,0.0,0.0,0.0,0.0,0.0,0.0,0.0,0.0,0.0,0.0,0.0,0.0,0.0,0.0,0.0,0.0,0.0,0.0,0.0,0.0,0.0,0.0,0.0,0.0,0.0,2.4356,0.0,2.3427,2.2325,2.1139,2.0062,0.0,0.0,0.0,0.0,0.0,0.0,0.0,0.0,0.0,0.0,0.0,0.0,0.0,0.0,0.0,0.0,0.0,0.0,0.0,0.0,0.0,0.0,0.0,0.0,0.0,0.0,0.0,0.0,0.0,0.0,0.0,0.0,0.0,0.0,0.0,0.0,0.0,0.0,0.0,0.0,0.0,0.0,0.0,0.0,0.0,0.0,0.0,0.0,0.0,0.0,0.0,0.0,0.0,0.0,0.0,0.0,0.0,0.0,0.0,0.0,0.0,0.0,0.0,0.0,0.0,0.0,0.0,0.0,0.0,0.0,0.0,0.0,0.0,0.0,0.0,0.0,0.0,0.0,0.0,0.0,0.0,0.0,0.0,0.0,0.0,0.0,0.0,0.0,0.0,0.0,0.0,0.0,0.0,0.0,0.0,0.0,0.0,0.0,0.0,0.0,0.0,0.0,0.0,0.0,0.0,0.0,0.0,0.0,2.4924,2.5134,2.4281,2.3581,2.31,2.1362,2.0326,0.0,0.0,0.0,0.0,0.0,0.0,0.0,0.0,0.0,0.0,0.0,0.0,0.0,0.0,0.0,0.0,0.0,0.0,0.0,0.0,0.0,0.0,0.0,0.0,0.0,0.0,0.0,0.0,0.0,0.0,0.0,0.0,0.0,0.0,0.0,0.0,0.0,0.0,0.0,0.0,0.0,0.0,0.0,0.0,0.0,0.0,0.0,0.0,0.0,0.0,0.0,0.0,0.0,0.0,0.0,0.0,0.0,0.0,0.0,0.0,0.0,0.0,0.0,0.0,0.0,0.0,0.0,0.0,0.0,0.0,0.0,0.0,0.0,0.0,0.0,0.0,0.0,0.0,0.0,0.0,0.0,0.0,0.0,0.0,0.0,0.0,0.0,0.0,0.0,0.0,0.0,0.0,0.0,0.0,0.0,0.0,0.0,0.0,0.0,0.0,0.0,0.0,0.0,0.0,0.0,0.0,0.0,0.0,0.0,2.5329,2.4652,2.4018,2.3433,2.1861,2.0819,0.0,0.0,0.0,0.0,0.0,0.0,0.0,0.0,0.0,0.0,0.0,0.0,0.0,0.0,0.0,0.0,0.0,0.0,0.0,0.0,0.0,0.0,0.0,0.0,0.0,0.0,0.0,0.0,0.0,0.0,0.0,0.0,0.0,0.0,0.0,0.0,0.0,0.0,0.0,0.0,0.0,0.0,0.0,0.0,0.0,0.0,0.0,0.0,0.0,0.0,0.0,0.0,0.0,0.0,0.0,0.0,0.0,0.0,0.0,0.0,0.0,0.0,0.0,0.0,0.0,0.0,0.0,0.0,0.0,0.0,0.0,0.0,0.0,0.0,0.0,0.0,0.0,0.0,0.0,0.0,0.0,0.0,0.0,0.0,0.0,0.0,0.0,0.0,0.0,0.0,0.0,0.0,0.0,0.0,0.0,0.0,0.0,0.0,0.0,0.0,0.0,0.0,0.0,0.0,0.0,0.0,0.0,0.0,0.0,2.6325,2.5546,2.4858,2.4374,2.3087,2.1996,2.1216,0.0,0.0,0.0,0.0,0.0,0.0,0.0,0.0,0.0,0.0,0.0,0.0,0.0,0.0,0.0,0.0,0.0,0.0,0.0,0.0,0.0,0.0,0.0,0.0,0.0,0.0,0.0,0.0,0.0,0.0,0.0,0.0,0.0,0.0,0.0,0.0,0.0,0.0,0.0,0.0,0.0,0.0,0.0,0.0,0.0,0.0,0.0,0.0,0.0,0.0,0.0,0.0,0.0,0.0,0.0,0.0,0.0,0.0,0.0,0.0,0.0,0.0,0.0,0.0,0.0,0.0,0.0,0.0,0.0,0.0,0.0,0.0,0.0,0.0,0.0,0.0,0.0,0.0,0.0,0.0,0.0,0.0,0.0,0.0,0.0,0.0,0.0,0.0,0.0,0.0,0.0,0.0,0.0,0.0,0.0,0.0,0.0,0.0,0.0,0.0,0.0,0.0,0.0,0.0,0.0,0.0,0.0,0.0,2.8008,2.6891,2.6176,2.5756,2.4787,2.3651,0.0,0.0,0.0,0.0,0.0,0.0,0.0,0.0,0.0,0.0,0.0,0.0,0.0,0.0,0.0,0.0,0.0,0.0,0.0,0.0,0.0,0.0,0.0,0.0,0.0,0.0,0.0,0.0,0.0,0.0,0.0,0.0,0.0,0.0,0.0,0.0,0.0,0.0,0.0,0.0,0.0,0.0,0.0,0.0,0.0,0.0,0.0,0.0,0.0,0.0,0.0,0.0,0.0,0.0,0.0,0.0,0.0,0.0,0.0,0.0,0.0,0.0,0.0,0.0,0.0,0.0,0.0,0.0,0.0,0.0,0.0,0.0,0.0,0.0,0.0,0.0,0.0,0.0,0.0,0.0,0.0,0.0,0.0,0.0,0.0,0.0,0.0,0.0,0.0,0.0,0.0,0.0,0.0,0.0,0.0,0.0,0.0,0.0,0.0,0.0,0.0,0.0,0.0,0.0,0.0,0.0,0.0,0.0,0.0,2.9223,2.9302,2.8495,2.6806,2.5757,2.4546,0.0,0.0,0.0,0.0,0.0,0.0,0.0,0.0,0.0,0.0,0.0,0.0,0.0,0.0,0.0,0.0,0.0,0.0,0.0,0.0,0.0,0.0,0.0,0.0,0.0,0.0,0.0,0.0,0.0,0.0,0.0,0.0,0.0,0.0,0.0,0.0,0.0,0.0,0.0,0.0,0.0,0.0,0.0,0.0,0.0,0.0,0.0,0.0,0.0,0.0,0.0,0.0,0.0,0.0,0.0,0.0,0.0,0.0,0.0,0.0,0.0,0.0,0.0,0.0,0.0,0.0,0.0,0.0,0.0,0.0,0.0,0.0,0.0,0.0,0.0,0.0,0.0,0.0,0.0,0.0,0.0,0.0,0.0,0.0,0.0,0.0,0.0,0.0,0.0,0.0,0.0,0.0,0.0,0.0,0.0,0.0,0.0,0.0,0.0,0.0,0.0,0.0,0.0,0.0,0.0,0.0,0.0,0.0,3.0229,3.0299,3.1075,3.057,2.8711,2.7625,2.6076,0.0,0.0,0.0,0.0,0.0,0.0,0.0,0.0,0.0,0.0,0.0,0.0,0.0,0.0,0.0,0.0,0.0,0.0,0.0,0.0,0.0,0.0,0.0,0.0,0.0,0.0,0.0,0.0,0.0,0.0,0.0,0.0,0.0,0.0,0.0,0.0,0.0,0.0,0.0,0.0,0.0,0.0,0.0,0.0,0.0,0.0,0.0,0.0,0.0,0.0,0.0,0.0,0.0,0.0,0.0,0.0,0.0,0.0,0.0,0.0,0.0,0.0,0.0,0.0,0.0,0.0,0.0,0.0,0.0,0.0,0.0,0.0,0.0,0.0,0.0,0.0,0.0,0.0,0.0,0.0,0.0,0.0,0.0,0.0,0.0,0.0,0.0,0.0,0.0,0.0,0.0,0.0,0.0,0.0,0.0,0.0,0.0,0.0,0.0,0.0,0.0,0.0,0.0,0.0,0.0,0.0,0.0,0.0,3.1373,3.1258,3.2384,3.2358,3.0989,2.9822,2.7856,0.0,0.0,0.0,0.0,0.0,0.0,0.0,0.0,0.0,0.0,0.0,0.0,0.0,0.0,0.0,0.0,0.0,0.0,0.0,0.0,0.0,0.0,0.0,0.0,0.0,0.0,0.0,0.0,0.0,0.0,0.0,0.0,0.0,0.0,0.0,0.0,0.0,0.0,0.0,0.0,0.0,0.0,0.0,0.0,0.0,0.0,0.0,0.0,0.0,0.0,0.0,0.0,0.0,0.0,0.0,0.0,0.0,0.0,0.0,0.0,0.0,0.0,0.0,0.0,0.0,0.0,0.0,0.0,0.0,0.0,0.0,0.0,0.0,0.0,0.0,0.0,0.0,0.0,0.0,0.0,0.0,0.0,0.0,0.0,0.0,0.0,0.0,0.0,0.0,0.0,0.0,0.0,0.0,0.0,0.0,0.0,0.0,0.0,0.0,0.0,0.0,0.0,0.0,0.0,0.0,0.0,0.0,0.0,3.2253,3.2154,3.3501,3.3494,3.201,3.077,2.8723,0.0,0.0,0.0,0.0,0.0,0.0,0.0,0.0,0.0,0.0,0.0,0.0,0.0,0.0,0.0,0.0,0.0,0.0,0.0,0.0,0.0,0.0,0.0,0.0,0.0,0.0,0.0,0.0,0.0,0.0,0.0,0.0,0.0,0.0,0.0,0.0,0.0,0.0,0.0,0.0,0.0,0.0,0.0,0.0,0.0,0.0,0.0,0.0,1.401,0.0,0.0,0.0,0.0,0.0,0.0,0.0,0.0,0.0,0.0,0.0,0.0,0.0,0.0,0.0,0.0,0.0,0.0,0.0,0.0,0.0,0.0,0.0,0.0,0.0,0.0,0.0,0.0,0.0,0.0,0.0,0.0,0.0,0.0,0.0,0.0,0.0,0.0,0.0,0.0,0.0,0.0,0.0,0.0,0.0,0.0,0.0,0.0,0.0,0.0,0.0,0.0,0.0,0.0,0.0,0.0,0.0,0.0,0.0,3.2705,3.2656,3.3614,3.3594,3.2474,3.1696,2.9845,0.0,0.0,0.0,0.0,0.0,0.0,0.0,0.0,0.0,0.0,0.0,0.0,0.0,0.0,0.0,0.0,0.0,0.0,0.0,0.0,0.0,0.0,0.0,0.0,0.0,0.0,0.0,0.0,0.0,0.0,0.0,0.0,0.0,0.0,0.0,0.0,0.0,0.0,0.0,0.0,0.0,0.0,0.0,0.0,0.0,0.0,0.0,0.0,0.0,0.0,0.0,0.0,0.0,0.0,0.0,0.0,0.0,0.0,0.0,0.0,0.0,0.0,0.0,0.0,0.0,0.0,0.0,0.0,0.0,0.0,0.0,0.0,0.0,0.0,0.0,0.0,0.0,0.0,0.0,0.0,0.0,0.0,0.0,0.0,0.0,0.0,0.0,0.0,0.0,0.0,0.0,0.0,0.0,0.0,0.0,0.0,0.0,0.0,0.0,0.0,0.0,0.0,0.0,0.0,0.0,0.0,0.0,3.2057,3.3137,3.3154,3.3627,3.3548,3.284,3.2668,3.1072,2.7977,0.0,0.0,0.0,0.0,0.0,0.0,0.0,0.0,0.0,0.0,0.0,0.0,0.0,0.0,0.0,0.0,0.0,0.0,0.0,0.0,0.0,0.0,0.0,0.0,0.0,0.0,0.0,0.0,0.0,0.0,0.0,0.0,0.0,0.0,0.0,0.0,0.0,0.0,1.7027,1.7236,0.0,0.0,0.0,0.0,0.0,0.0,0.0,0.0,1.4264,0.0,0.0,0.0,0.0,0.0,0.0,0.0,0.0,0.0,0.0,0.0,0.0,0.0,0.0,0.0,0.0,0.0,0.0,0.0,0.0,0.0,0.0,0.0,0.0,0.0,0.0,0.0,0.0,0.0,0.0,0.0,0.0,0.0,0.0,0.0,0.0,0.0,0.0,0.0,0.0,0.0,0.0,0.0,0.0,0.0,0.0,0.0,0.0,0.0,0.0,0.0,0.0,0.0,0.0,0.0,0.0,3.0721,3.2973,3.4148,3.415,3.483,3.4769,3.3902,3.3834,3.2564,2.9962,0.0,0.0,0.0,0.0,0.0,0.0,0.0,0.0,0.0,0.0,0.0,0.0,0.0,0.0,0.0,0.0,0.0,0.0,0.0,0.0,0.0,0.0,0.0,0.0,0.0,0.0,0.0,0.0,0.0,0.0,0.0,0.0,0.0,0.0,0.0,0.0,0.0,0.0,0.0,1.7923,1.7873,0.0,0.0,0.0,0.0,0.0,0.0,0.0,0.0,1.5228,0.0,0.0,0.0,0.0,0.0,0.0,0.0,0.0,0.0,0.0,0.0,0.0,0.0,0.0,0.0,0.0,0.0,0.0,0.0,0.0,0.0,0.0,0.0,0.0,0.0,0.0,0.0,0.0,0.0,0.0,0.0,0.0,0.0,0.0,0.0,0.0,0.0,0.0,0.0,0.0,0.0,0.0,0.0,0.0,0.0,0.0,0.0,0.0,0.0,0.0,0.0,0.0,0.0,0.0,0.0,3.1618,3.345,3.447,3.4457,3.475,3.4708,3.4268,3.3752,3.269,0.0,0.0,0.0,0.0,0.0,0.0,0.0,0.0,0.0,0.0,0.0,0.0,0.0,0.0,0.0,0.0,0.0,0.0,0.0,0.0,0.0,0.0,0.0,0.0,0.0,0.0,0.0,0.0,0.0,0.0,0.0,0.0,0.0,0.0,0.0,0.0,0.0,0.0,0.0,0.0,1.8552,1.8685,1.851,0.0,0.0,0.0,0.0,0.0,0.0,1.6147,1.604,0.0,0.0,0.0,0.0,0.0,0.0,0.0,0.0,0.0,0.0,0.0,0.0,0.0,0.0,0.0,0.0,0.0,0.0,0.0,0.0,0.0,0.0,0.0,0.0,0.0,0.0,0.0,0.0,0.0,0.0,0.0,0.0,0.0,0.0,0.0,0.0,0.0,0.0,0.0,0.0,0.0,0.0,0.0,0.0,0.0,0.0,0.0,0.0,0.0,0.0,0.0,0.0,0.0,0.0,0.0,3.2317,3.3845,3.4671,3.468,3.4632,3.4573,3.4553,3.3604,3.2736,0.0,0.0,0.0,0.0,0.0,0.0,0.0,0.0,0.0,0.0,0.0,0.0,0.0,0.0,0.0,0.0,0.0,0.0,0.0,0.0,0.0,0.0,0.0,0.0,0.0,0.0,0.0,0.0,0.0,0.0,0.0,0.0,0.0,0.0,0.0,0.0,0.0,0.0,0.0,0.0,0.0,1.9503,1.9254,1.8838,0.0,0.0,0.0,0.0,1.726,1.7076,0.0,0.0,0.0,0.0,0.0,0.0,0.0,0.0,0.0,0.0,0.0,0.0,0.0,0.0,0.0,0.0,0.0,0.0,0.0,0.0,0.0,0.0,0.0,0.0,0.0,0.0,0.0,0.0,0.0,0.0,0.0,0.0,0.0,0.0,0.0,0.0,0.0,0.0,0.0,0.0,0.0,0.0,0.0,0.0,0.0,0.0,0.0,0.0,0.0,0.0,0.0,0.0,0.0,0.0,0.0,0.0,3.2868,3.4448,3.5278,3.5309,3.5231,3.5163,3.5097,3.4243,3.3408,0.0,0.0,0.0,0.0,0.0,0.0,0.0,0.0,0.0,0.0,0.0,0.0,0.0,0.0,0.0,0.0,0.0,0.0,0.0,0.0,0.0,0.0,0.0,0.0,0.0,0.0,0.0,0.0,0.0,0.0,0.0,0.0,0.0,0.0,0.0,0.0,0.0,0.0,0.0,0.0,0.0,2.0262,2.0223,1.9912,1.9618,0.0,0.0,1.88,1.8843,1.8622,0.0,0.0,0.0,0.0,0.0,0.0,0.0,0.0,0.0,0.0,0.0,0.0,0.0,0.0,0.0,0.0,0.0,0.0,0.0,0.0,0.0,0.0,0.0,0.0,0.0,0.0,0.0,0.0,0.0,0.0,0.0,0.0,0.0,0.0,0.0,0.0,0.0,0.0,0.0,0.0,0.0,0.0,0.0,0.0,0.0,0.0,0.0,0.0,0.0,0.0,0.0,0.0,0.0,0.0,0.0,3.2578,3.3135,3.4298,3.5142,3.5593,3.5592,3.5329,3.4802,3.395,3.3111,0.0,0.0,0.0,0.0,0.0,0.0,0.0,0.0,0.0,0.0,0.0,0.0,0.0,0.0,0.0,0.0,0.0,0.0,0.0,0.0,0.0,0.0,0.0,0.0,0.0,0.0,0.0,0.0,0.0,0.0,0.0,0.0,0.0,0.0,0.0,0.0,0.0,0.0,0.0,0.0,0.0,0.0,2.1008,2.0679,0.0,0.0,0.0,1.9955,1.9955,0.0,0.0,0.0,0.0,0.0,0.0,0.0,0.0,0.0,0.0,0.0,0.0,0.0,0.0,0.0,0.0,0.0,0.0,0.0,0.0,0.0,0.0,0.0,0.0,0.0,0.0,0.0,0.0,0.0,0.0,0.0,0.0,0.0,0.0,0.0,0.0,0.0,0.0,0.0,0.0,0.0,0.0,0.0,0.0,0.0,0.0,0.0,0.0,0.0,0.0,0.0,0.0,0.0,0.0,0.0,0.0,0.0,3.3321,3.4118,3.4971,3.5802,3.5853,3.5433,3.4579,3.3704,0.0,0.0,0.0,0.0,0.0,0.0,0.0,0.0,0.0,0.0,0.0,0.0,0.0,0.0,0.0,0.0,0.0,0.0,0.0,0.0,0.0,0.0,0.0,0.0,0.0,0.0,0.0,2.1636,0.0,0.0,0.0,0.0,0.0,0.0,0.0,0.0,0.0,0.0,0.0,0.0,0.0,0.0,2.2013,2.1796,2.1514,2.1262,0.0,0.0,2.0976,2.0965,2.1008,2.0931,0.0,0.0,0.0,0.0,0.0,0.0,0.0,0.0,0.0,0.0,0.0,0.0,0.0,0.0,0.0,0.0,0.0,0.0,0.0,0.0,0.0,0.0,0.0,0.0,0.0,0.0,0.0,0.0,0.0,0.0,0.0,0.0,0.0,0.0,0.0,0.0,0.0,0.0,0.0,0.0,0.0,0.0,0.0,0.0,0.0,0.0,0.0,0.0,0.0,0.0,0.0,0.0,0.0,0.0,0.0,3.3395,3.4236,3.5097,3.5937,3.5996,3.5565,3.4703,3.3825,3.2968,0.0,0.0,0.0,0.0,0.0,0.0,0.0,0.0,0.0,0.0,0.0,0.0,0.0,0.0,0.0,0.0,0.0,0.0,0.0,0.0,0.0,0.0,0.0,0.0,0.0,0.0,0.0,0.0,0.0,0.0,0.0,0.0,0.0,0.0,0.0,0.0,0.0,0.0,0.0,0.0,0.0,2.3075,2.2859,2.2616,2.2451,0.0,0.0,2.1978,2.199,2.2175,2.2079,2.141,0.0,0.0,0.0,0.0,0.0,0.0,0.0,0.0,0.0,0.0,0.0,0.0,0.0,0.0,0.0,0.0,0.0,0.0,0.0,0.0,0.0,0.0,0.0,0.0,0.0,0.0,0.0,0.0,0.0,0.0,0.0,0.0,0.0,0.0,0.0,0.0,0.0,0.0,0.0,0.0,0.0,0.0,0.0,0.0,0.0,0.0,0.0,0.0,0.0,0.0,0.0,0.0,0.0,3.1738,3.2592,3.3448,3.4332,3.5163,3.5183,3.4774,3.3918,3.3057,3.2168,0.0,0.0,0.0,0.0,0.0,0.0,0.0,0.0,0.0,0.0,0.0,0.0,0.0,0.0,0.0,0.0,0.0,0.0,0.0,0.0,0.0,0.0,0.0,0.0,0.0,0.0,0.0,0.0,2.3216,2.3297,2.3471,0.0,0.0,0.0,0.0,0.0,0.0,0.0,0.0,0.0,0.0,2.4182,2.3917,2.3741,0.0,0.0,2.3255,2.3135,2.3135,2.3135,2.3055,2.2782,2.2247,0.0,0.0,0.0,0.0,0.0,0.0,0.0,0.0,0.0,0.0,0.0,0.0,0.0,0.0,0.0,0.0,0.0,0.0,0.0,0.0,0.0,0.0,0.0,0.0,0.0,0.0,0.0,0.0,0.0,0.0,0.0,0.0,0.0,0.0,0.0,0.0,0.0,0.0,0.0,0.0,0.0,0.0,0.0,0.0,0.0,0.0,0.0,0.0,0.0,0.0,0.0,0.0,3.1209,3.211,3.2688,3.3438,3.4296,3.4314,3.3903,3.3044,3.2409,3.1624,0.0,0.0,0.0,0.0,0.0,0.0,0.0,0.0,0.0,0.0,0.0,0.0,0.0,0.0,0.0,0.0,0.0,0.0,0.0,0.0,0.0,0.0,0.0,0.0,0.0,0.0,0.0,0.0,2.4214,2.4277,2.44,0.0,0.0,0.0,0.0,0.0,0.0,0.0,0.0,0.0,0.0,2.5384,2.5091,2.4936,2.4753,2.4511,2.4323,2.4221,2.4221,2.4105,2.3989,2.3959,0.0,0.0,0.0,0.0,0.0,0.0,0.0,0.0,0.0,0.0,0.0,0.0,0.0,0.0,0.0,0.0,0.0,0.0,0.0,0.0,0.0,0.0,0.0,0.0,0.0,0.0,0.0,0.0,0.0,0.0,2.9542,0.0,0.0,0.0,0.0,0.0,0.0,0.0,0.0,0.0,0.0,0.0,0.0,0.0,0.0,0.0,0.0,0.0,0.0,0.0,0.0,0.0,0.0,0.0,3.2071,3.213,3.2555,3.3377,3.3424,3.301,3.2192,3.2049,3.1544,3.0622,0.0,0.0,0.0,0.0,0.0,0.0,0.0,0.0,0.0,0.0,0.0,0.0,0.0,0.0,0.0,0.0,0.0,0.0,0.0,0.0,0.0,0.0,0.0,0.0,0.0,0.0,2.5332,2.524,2.5163,0.0,0.0,0.0,0.0,0.0,0.0,0.0,0.0,0.0,0.0,2.6583,2.6718,2.6336,2.6149,2.5933,2.5591,2.5342,2.516,2.5174,2.5061,2.4948,0.0,0.0,0.0,0.0,0.0,0.0,0.0,0.0,0.0,0.0,0.0,0.0,0.0,0.0,0.0,0.0,0.0,0.0,0.0,0.0,0.0,0.0,0.0,0.0,0.0,0.0,0.0,3.1095,3.0913,0.0,0.0,0.0,0.0,0.0,0.0,0.0,0.0,0.0,0.0,0.0,3.1853,3.2281,0.0,0.0,0.0,0.0,0.0,0.0,0.0,0.0,0.0,0.0,0.0,0.0,3.0847,3.1176,3.1737,3.2168,3.2461,3.2475,3.2327,3.2033,3.1407,3.0889,3.0476,0.0,0.0,0.0,0.0,0.0,0.0,0.0,0.0,0.0,0.0,0.0,0.0,0.0,0.0,0.0,0.0,0.0,0.0,0.0,0.0,0.0,0.0,0.0,0.0,0.0,2.6159,0.0,0.0,0.0,0.0,0.0,0.0,0.0,0.0,0.0,0.0,0.0,2.7727,2.7856,2.7835,2.769,2.7287,2.7045,2.6759,0.0,0.0,0.0,0.0,0.0,0.0,0.0,0.0,0.0,0.0,0.0,0.0,0.0,0.0,2.0929,1.9269,1.9037,1.9118,1.9206,0.0,0.0,0.0,0.0,0.0,0.0,0.0,0.0,0.0,0.0,0.0,0.0,0.0,0.0,0.0,0.0,3.161,0.0,0.0,0.0,0.0,0.0,0.0,0.0,0.0,3.2004,3.2273,3.2371,3.289,3.3052,0.0,3.3066,3.25,0.0,0.0,0.0,0.0,0.0,0.0,0.0,0.0,3.0681,3.0724,3.1262,3.154,3.1559,3.1566,3.1553,3.1533,3.0913,3.0501,3.0379,3.0373,3.0336,0.0,0.0,0.0,0.0,0.0,0.0,0.0,0.0,0.0,0.0,0.0,0.0,0.0,0.0,0.0,0.0,0.0,0.0,0.0,0.0,0.0,0.0,0.0,2.7181,0.0,0.0,0.0,0.0,0.0,0.0,0.0,0.0,0.0,2.8939,2.8876,2.8938,2.8995,2.8818,2.8472,2.8052,0.0,0.0,0.0,0.0,0.0,0.0,0.0,2.5975,2.6029,2.5975,2.5866,2.5784,2.5048,2.4263,2.3669,0.0,0.0,2.0384,2.0208,2.0331,2.0378,2.0746,2.1178,2.1538,2.1951,2.2352,0.0,0.0,0.0,0.0,0.0,0.0,0.0,0.0,3.397,3.3399,0.0,3.2256,0.0,0.0,0.0,0.0,0.0,3.1093,0.0,0.0,3.2307,3.2778,3.2915,3.3936,3.4108,3.3463,3.3704,3.3468,3.2759,3.2176,0.0,0.0,0.0,0.0,0.0,0.0,3.0626,3.069,3.0729,3.0707,3.0716,3.0707,3.071,3.0703,3.0564,3.0422,3.031,3.0304,3.0311,3.0312,3.0422,0.0,0.0,0.0,0.0,0.0,0.0,0.0,0.0,0.0,0.0,0.0,0.0,0.0,0.0,0.0,0.0,0.0,0.0,0.0,0.0,2.8443,0.0,0.0,0.0,0.0,0.0,0.0,0.0,0.0,0.0,0.0,2.9822,3.0046,3.0145,2.9683,0.0,0.0,0.0,0.0,2.785,2.7452,2.6907,2.651,2.6469,2.6285,2.6165,2.6272,0.0,0.0,2.5948,2.5314,2.4664,2.4189,2.3543,2.2793,2.1877,2.1768,2.1811,2.1721,2.1873,2.2237,2.2549,2.2794,2.3156,3.7109,0.0,0.0,0.0,0.0,3.4798,3.4706,3.4653,3.4534,3.4394,3.4182,3.3621,0.0,0.0,0.0,0.0,0.0,0.0,3.2184,3.278,3.3181,3.3423,3.3524,3.4,3.4193,3.4109,3.4391,3.4462,3.4302,3.3692,3.2827,3.1774,0.0,0.0,0.0,0.0,3.0621,3.0641,3.0626,3.0657,3.0703,3.0661,3.0606,3.0554,3.0439,3.0342,3.0311,3.0241,3.0248,3.0311,3.0433,0.0,0.0,0.0,0.0,0.0,0.0,0.0,0.0,0.0,0.0,0.0,0.0,0.0,0.0,0.0,0.0,0.0,0.0,0.0,2.9011,2.9065,2.9271,0.0,0.0,0.0,0.0,0.0,0.0,0.0,0.0,0.0,3.1438,3.1043,3.0654,0.0,0.0,2.9418,2.9006,2.8558,2.8113,2.764,0.0,0.0,0.0,2.6431,2.6404,2.6431,2.658,2.6568,2.6233,2.5646,2.5049,2.4481,2.378,2.312,2.2574,2.2463,2.2359,2.2173,2.2469,2.2823,2.2969,2.3487,2.4073,3.894,3.704,3.693,3.6855,3.678,3.6666,3.6376,3.6041,3.5819,3.5575,3.5295,3.4693,3.4242,3.3879,3.3539,0.0,0.0,0.0,3.3825,3.4322,3.444,3.4389,3.4178,3.4386,3.4426,3.4311,3.4591,3.4809,3.4908,3.4592,3.3807,3.2583,0.0,0.0,3.1052,3.069,3.0535,3.0563,3.0576,3.0613,3.0676,3.0621,3.0582,3.0505,3.0386,3.0328,3.033,3.0299,3.031,3.0375,3.0496,3.0607,0.0,0.0,0.0,0.0,0.0,0.0,0.0,0.0,0.0,0.0,0.0,3.0227,0.0,0.0,0.0,0.0,2.9559,2.9667,3.0039,3.0306,0.0,0.0,0.0,0.0,0.0,0.0,0.0,3.223,3.2471,3.249,3.2144,3.1598,3.1078,3.0613,3.0189,2.9726,2.9252,0.0,2.8244,2.77,2.7258,2.691,2.6671,2.6537,2.651,2.6618,2.6712,2.6633,2.6286,2.5756,2.5175,2.4538,2.3852,2.3223,2.2678,2.2586,2.2567,2.2445,2.2787,2.3108,2.3198,2.379,2.4344,4.0808,4.0185,4.0069,3.9822,3.9549,3.9529,3.9045,3.8186,3.7494,3.6867,3.6252,3.5545,3.5293,3.5409,3.5473,0.0,3.5488,3.564,3.5652,3.5706,3.5815,3.5496,3.4818,3.4999,3.4763,3.421,3.4446,3.4658,3.4783,3.4972,3.4723,3.3963,3.244,3.1686,3.1646,3.0829,3.0433,3.0491,3.0559,3.0583,3.0591,3.0615,3.0583,3.049,3.0453,3.0406,3.0402,3.0411,3.0449,3.0511,3.0626,3.07,3.0706,0.0,0.0,0.0,0.0,0.0,0.0,0.0,0.0,0.0,0.0,0.0,0.0,0.0,0.0,0.0,3.0169,0.0,3.1164,3.1815,0.0,0.0,0.0,3.3422,3.3422,3.3364,3.3262,3.3055,0.0,0.0,3.2161,0.0,3.1428,3.0905,3.0468,2.9995,2.9396,2.8858,2.831,2.771,2.7299,2.6963,2.6806,2.6645,2.6537,2.6712,2.6779,2.658,2.6138,2.5688,2.5105,2.4366,2.3721,2.312,2.2482,2.2371,2.2389,2.2555,2.2848,2.3108,2.3283,2.3701,2.4188,4.1991,4.191,4.1914,4.1176,3.9932,3.9795,3.9607,3.9339,3.8578,3.8154,3.7943,3.6756,3.5965,3.5473,3.5488,3.5488,3.5488,3.5539,3.5606,3.5688,3.572,3.5693,3.5584,3.5159,3.4954,3.4916,3.4603,3.4498,3.4658,3.4841,3.4868,3.4666,3.3124,3.2113,3.1623,3.0745,3.0358,3.0433,3.0444,3.0471,3.0516,3.0578,3.0588,3.0491,3.0485,3.049,3.0477,3.0487,3.0534,3.0653,3.0682,3.0728,3.0761,3.08,0.0,0.0,0.0,0.0,0.0,0.0,0.0,0.0,0.0,3.0116,3.0094,0.0,3.0137,0.0,3.107,3.1532,3.2112,3.2274,0.0,0.0,3.3519,3.3684,3.3629,3.3619,3.3534,3.3316,3.3042,3.2722,3.2318,3.1965,3.1596,3.1154,3.0572,3.0017,2.9531,2.899,2.8455,2.7959,2.7473,2.7067,2.6832,2.6618,2.651,2.6578,2.6563,2.6392,2.5879,2.5411,2.4836,2.4076,2.3292,2.2714,2.2309,2.1913,2.1788,2.2049,2.2408,2.2763,2.3012,2.3707,2.4386,4.2508,4.2645,4.2764,4.2279,4.1429,4.1162,4.083,4.0472,4.0043,3.9472,3.8757,3.772,3.7084,3.6768,3.6781,3.6781,3.675,3.675,3.6768,3.6803,3.6803,3.6687,3.6417,3.5705,3.5314,3.5132,3.4575,3.4397,3.4594,3.4762,3.4927,3.4991,3.3409,3.2424,3.2001,3.086,3.0292,3.0373,3.0411,3.0639,3.1062,3.1144,3.1323,3.1642,3.1313,3.1134,3.1112,3.078,3.0633,3.0725,3.0728,3.077,3.0798,3.0798,3.0768,0.0,0.0,0.0,0.0,0.0,0.0,0.0,0.0,0.0,0.0,0.0,3.0958,0.0,3.2124,3.2477,3.3067,3.3062,3.3223,3.363,3.3793,3.382,3.3753,3.3739,3.3657,3.3466,3.318,3.285,3.2489,3.2109,3.1691,3.131,3.0733,3.013,2.9611,2.9129,2.8614,2.8082,2.76,2.7155,2.6858,2.6712,2.6517,2.6191,2.6026,2.5816,2.527,2.4792,2.4343,2.379,2.3113,2.2469,2.2049,2.162,2.1348,2.1443,2.1726,2.2118,2.2586,2.3267,2.3816,4.294,4.2967,4.3175,4.3195,4.3104,4.2804,4.2272,4.1605,4.1479,4.0579,3.9103,3.8539,3.8295,3.8323,3.8368,3.8368,3.8323,3.8305,3.829,3.8224,3.8224,3.7894,3.7249,3.6544,3.5872,3.5271,3.4667,3.4452,3.4602,3.4722,3.4898,3.5008,3.3504,3.2749,3.271,3.1264,3.048,3.0465,3.0598,3.109,3.1932,3.2043,3.2405,3.3034,3.232,3.1922,3.1907,3.1142,3.0739,3.079,3.0795,3.0795,3.0799,3.0783,3.0763,0.0,3.0645,0.0,0.0,0.0,0.0,0.0,0.0,0.0,0.0,3.1172,3.2119,3.3143,3.3198,3.3394,3.3904,3.3868,3.3815,3.382,3.3868,3.39,3.382,3.3807,3.3726,3.352,3.3253,3.2977,3.2639,3.2197,3.1749,3.1183,3.0657,3.0041,2.9447,2.8973,2.8529,2.8033,2.7565,2.7047,2.6615,2.6599,2.6376,2.5643,2.5343,2.5034,2.4431,2.3987,2.3667,2.3405,2.2837,2.2268,2.1753,2.1411,2.1106,2.1031,2.1138,2.1411,2.2068,2.2616,2.2969,4.4393,4.3859,4.4011,4.3742,4.3178,4.3105,4.2977,4.2739,4.1976,4.0818,3.9439,3.9358,3.8988,3.8403,3.8382,3.8401,3.8385,3.8366,3.835,3.8368,3.8368,3.8326,3.8188,3.7549,3.6889,3.6218,3.5621,3.5077,3.4602,3.4728,3.4869,3.4973,3.3987,3.3538,3.359,0.0,0.0,0.0,3.1484,3.1967,3.2816,3.2924,3.3022,3.316,3.2391,0.0,3.1955,3.122,3.0803,3.079,3.0795,0.0,0.0,0.0,0.0,0.0,0.0,0.0,0.0,0.0,0.0,0.0,3.0365,3.0618,3.1228,3.2488,3.3325,3.3428,3.3858,3.4125,3.4142,3.4036,3.3934,3.39,3.3934,3.3934,3.3834,3.3807,3.3726,3.3538,3.3253,3.2959,3.2638,3.2284,3.1633,3.0624,3.0034,2.9307,2.8244,2.8216,2.8072,2.7659,2.7106,2.6401,2.5497,2.5827,2.5803,2.4963,2.459,2.4233,2.36,2.3138,2.2796,2.2604,2.1989,2.162,2.1667,2.1213,2.0882,2.1094,2.0978,2.0946,2.1494,2.2099,2.2604,4.5053,0.0,4.4544,4.4236,0.0,4.3504,4.3322,4.3268,4.2687,4.1595,4.0169,3.9838,3.9282,3.8546,3.859,3.8593,3.8562,3.8593,3.8575,3.8546,3.859,3.8637,3.8676,3.7993,3.7308,3.6636,3.5957,3.5308,3.4693,3.4797,3.4907,3.5038,3.4176,3.3793,3.3884,3.3107,3.2553,3.2237,3.2374,3.2868,3.3698,3.3798,3.4066,3.4496,0.0,0.0,0.0,0.0,0.0,0.0,0.0,0.0,0.0,0.0,0.0,3.0707,3.0641,3.0582,3.0559,3.0455,3.0398,3.0411,3.1142,3.1731,3.2058,3.3081,3.3818,3.4119,3.4306,3.4358,3.4209,3.4049,3.3934,3.3908,3.3934,3.3926,3.3834,3.3829,3.3766,3.3577,3.3357,3.3119,3.2786,3.2052,3.1307,3.0408,2.9568,2.8715,2.79,2.7678,2.7469,2.691,2.6425,2.5908,2.5291,2.5228,2.511,2.4228,2.3801,2.3415,2.2855,2.2378,2.2096,2.2198,2.1753,2.1367,2.1471,2.1126,2.0862,2.0914,2.0882,2.0914,2.1242,2.1757,2.2266,4.5771,4.5708,4.5076,4.473,4.4565,4.3793,4.3515,4.3496,0.0,0.0,0.0,4.0299,3.9559,3.8738,3.8777,3.8792,3.875,3.8807,3.8807,3.8795,3.8851,3.8906,3.8956,3.8359,3.7649,3.6864,3.625,3.5533,3.4758,3.4849,3.4965,3.5054,3.4372,3.4056,3.4091,3.3563,3.3304,3.3352,3.3329,3.3755,3.4603,3.4699,3.5122,3.5875,3.5069,3.4294,3.3647,3.2805,3.1953,3.1152,3.1071,3.0946,3.081,3.0784,3.0767,3.0695,3.0649,3.0619,3.0607,3.0495,3.0475,3.0612,3.1949,3.2783,3.2728,3.3478,3.4177,3.4772,3.4583,3.4374,3.4245,3.4061,3.3934,3.3921,3.3926,3.3831,3.3637,3.3787,3.3697,3.3286,3.3117,3.3003,3.2431,3.1517,3.0628,2.9984,2.8964,2.7982,2.7405,2.7008,2.6612,2.5905,2.5599,2.5367,2.4958,2.4809,2.4327,2.3479,2.3005,2.263,2.2181,2.165,2.1521,2.1857,2.1489,2.1188,2.1315,2.1069,2.0864,2.0871,2.0935,2.1031,2.1265,2.1624,2.2049,4.7219,4.6703,4.5955,4.5242,4.4618,4.3828,4.3531,4.3582,4.3515,4.2512,4.0904,4.0979,4.0178,3.8792,3.8848,3.891,3.8968,3.8964,3.9021,0.0,3.9142,3.921,3.9324,3.9225,3.8459,3.7208,3.7024,3.6247,3.4992,3.4889,3.4992,3.5155,3.5015,3.4937,3.501,3.5081,3.5116,3.5129,3.4463,3.4587,3.5495,3.5582,3.5704,3.5844,3.5124,3.4657,3.4508,3.3672,3.281,3.1984,3.1923,3.1564,3.0861,3.0806,3.0757,3.0717,3.0695,3.0657,3.0615,3.0525,3.0769,3.1392,3.2287,3.2797,3.2821,3.408,3.4887,3.4898,3.4708,3.4517,3.4374,3.4185,3.403,3.3967,3.3915,3.3629,3.2889,3.3343,3.318,3.185,3.2042,3.1957,3.1112,3.0443,2.9672,2.8682,2.7952,2.7052,2.6005,2.5731,2.5519,2.4862,2.4865,2.4678,2.4104,2.404,2.3717,2.2728,2.2282,2.1918,2.1529,2.1033,2.0798,2.0991,2.0674,2.0608,2.1123,2.0963,2.0947,2.1303,2.1365,2.14,2.1549,2.1781,2.208,4.7887,4.753,4.6434,4.5773,4.5368,4.4169,4.3686,4.3719,4.3669,4.2971,4.1887,4.1944,4.1105,3.9642,3.9703,3.9528,3.917,3.9197,3.929,3.9414,3.9452,3.9526,3.9611,3.9665,3.8844,3.737,3.7345,3.6508,3.5097,3.4992,3.5075,3.52,3.5206,3.5261,3.5354,3.5455,3.5534,3.561,3.5231,3.5292,3.5745,3.5814,3.5883,3.5955,3.5592,3.5173,3.4707,3.4314,3.3701,3.2835,3.2791,3.243,3.157,3.1475,3.1234,3.0749,3.0706,3.0669,3.0617,3.0535,3.0833,3.1603,3.2352,3.3001,3.3432,3.4473,3.5029,3.487,3.4699,3.4558,3.4397,3.4221,3.3907,3.3401,3.3288,3.2875,3.2149,3.2247,3.2127,3.1336,3.1338,3.1214,3.055,2.9761,2.9013,2.8168,2.7223,2.608,2.5217,2.5082,2.4942,2.4529,2.4432,2.42,2.3663,2.3452,2.3163,2.2491,2.1996,2.1592,2.1253,2.0822,2.0655,2.0832,2.0571,2.0567,2.1087,2.1146,2.12,2.1231,2.1584,2.169,2.1812,2.2061,2.242,4.8225,4.8081,4.6691,4.5898,4.5473,4.4323,4.3818,4.3869,4.3867,4.3548,4.3039,4.2814,4.1902,4.0651,4.0733,4.0413,3.9744,3.9733,3.9758,3.9712,3.977,3.9837,3.9873,3.9954,3.9168,3.7868,3.7784,3.692,3.5494,3.5378,3.5308,3.5234,3.5296,3.5388,3.5481,3.5509,3.5581,3.5693,3.5713,3.5756,3.5827,3.5875,3.5931,3.5996,3.6012,3.5684,3.5038,3.4991,3.4591,3.3763,3.3679,3.3296,3.2435,3.2162,3.1716,3.1067,3.0794,3.0673,3.0608,3.0704,3.1108,3.1916,3.2672,3.3427,3.4182,3.4745,3.4982,3.4821,3.4678,3.4517,3.4404,3.4221,3.3741,3.2952,3.2748,3.2268,3.1348,3.1286,3.1095,3.0714,3.0577,3.0424,2.9834,2.9013,2.819,2.7487,2.6396,2.5467,2.5088,2.4771,2.4564,2.44,2.4172,2.3912,2.361,2.3216,2.282,2.2417,2.1949,2.1568,2.1215,2.0896,2.074,2.0862,2.0717,2.0691,2.093,2.1223,2.1387,2.1404,2.1703,2.2018,2.1999,2.234,2.2708,4.8228,4.8067,4.6691,4.5269,4.4118,4.3941,4.3929,4.4008,4.4104,4.4207,4.4086,4.3204,4.2404,4.1712,4.1734,4.1436,4.0853,4.0846,4.056,4.0102,4.0057,4.0089,4.0158,4.0167,3.9681,3.8823,3.8661,3.7804,3.6326,3.6259,3.594,3.5372,3.5354,3.542,3.5514,3.5558,3.5629,3.5704,3.5767,3.5822,3.5885,3.5887,3.5924,3.6009,3.6015,3.5972,3.5843,3.589,3.5472,3.4683,3.4583,3.4144,3.3261,3.2518,3.2052,3.1871,3.1167,3.0657,3.0674,3.1239,3.1931,3.2743,3.3498,3.4209,3.4874,3.4988,3.4964,3.4802,3.4618,3.4484,3.4404,3.4221,3.3747,3.2975,3.2718,3.2109,3.0826,3.095,3.0715,2.9064,2.9452,2.9366,2.8521,2.7909,2.7242,2.6495,2.5868,2.524,2.4922,2.4681,2.4457,2.4271,2.4103,2.3876,2.3575,2.3172,2.2768,2.231,2.1902,2.153,2.1264,2.1019,2.0799,2.0905,2.0691,2.0669,2.0908,2.1249,2.148,2.1577,2.1874,2.2266,2.2247,2.2463,2.2739,4.8049,4.761,4.6597,4.5298,4.4024,4.4026,4.4089,4.4135,4.427,4.4401,4.4458,4.4093,4.3501,4.2835,4.2862,4.2554,4.1889,4.1397,4.1098,4.0863,4.0415,4.0215,4.0298,4.0308,3.9868,3.9065,3.899,3.8386,3.7389,3.6769,3.6361,3.609,3.5701,3.5501,3.556,3.5626,3.5708,3.5756,3.5833,3.5897,3.5953,3.5955,3.5957,3.5993,3.6014,3.6005,3.6012,3.6019,3.581,3.5431,3.5409,3.5008,3.4122,3.3743,3.3339,3.2817,3.2408,3.2165,3.2082,3.2336,3.2804,3.3628,3.3899,3.4332,3.499,3.4963,3.485,3.474,3.4575,3.4461,3.434,3.4221,3.3833,3.3006,3.2397,3.1598,3.0482,3.0051,2.9503,2.8753,2.8755,2.8657,2.7967,2.7353,2.6708,2.6046,2.5602,2.5236,2.4862,2.4661,2.4477,2.425,2.4082,2.3891,2.3553,2.315,2.2768,2.2394,2.1996,2.1626,2.1482,2.1302,2.1166,2.1153,2.0995,2.085,2.0872,2.1402,2.1805,2.1791,2.1927,2.2247,2.2197,2.2463,2.2678,4.7776,4.7205,4.6317,4.5177,4.4042,4.4153,4.4214,4.4255,4.4401,4.4537,4.4667,4.477,4.4512,4.4056,4.4023,4.362,4.2887,4.2079,4.1655,4.1475,4.0672,4.0353,4.0422,4.0413,4.0106,3.9569,3.9476,3.9054,3.8219,3.7375,3.6995,3.6944,3.6462,3.6235,3.6294,3.6182,3.6084,3.6129,3.6005,3.5948,3.6001,3.6013,3.6007,3.6015,3.6011,3.5979,3.5963,3.5986,3.5968,3.5894,3.5894,3.5608,3.4977,3.4731,3.4208,3.3402,3.3218,3.3175,3.3108,3.3239,3.3582,3.4109,3.4246,3.4533,3.4928,3.4889,3.4762,3.4676,3.455,3.4427,3.4316,3.4233,3.382,3.3,3.2273,3.153,3.0421,2.971,2.9416,2.8923,2.899,2.866,2.8211,2.7672,2.707,2.6383,2.5888,2.5364,2.4929,2.4686,2.4508,2.425,2.4109,2.394,2.3581,2.326,2.2881,2.2563,2.2217,2.1996,2.1807,2.1688,2.1616,2.1636,2.1506,2.1488,2.1549,2.1944,2.214,2.1848,2.1933,2.2216,2.2197,2.2463,2.2647,4.7424,4.7147,4.5754,4.4724,4.4023,4.4153,4.4289,4.4401,4.4537,4.4712,4.4883,4.5022,4.514,4.515,4.5014,4.4658,4.3961,4.3139,4.2421,4.1782,4.0907,4.0518,4.05,4.0499,4.0463,4.0301,4.0249,3.9849,3.9043,3.8246,3.7901,3.7911,3.78,3.7874,3.7856,3.7254,3.6975,3.6883,3.6345,3.5953,3.5989,3.6005,3.6014,3.6015,3.6009,3.5973,3.5919,3.5899,3.59,3.5885,3.5889,3.584,3.5678,3.5037,3.4241,3.3425,3.326,3.3238,3.33,3.3817,3.4173,3.4234,3.4726,3.5083,3.4991,3.487,3.4742,3.4604,3.4495,3.4374,3.4323,3.4233,3.3876,3.3129,3.2816,3.1925,3.0491,3.0677,3.0473,2.979,2.9775,2.9632,2.9145,2.873,2.7904,2.7112,2.6489,2.5909,2.5228,2.4831,2.4678,2.4508,2.4388,2.4166,2.3732,2.3414,2.3127,2.2844,2.2618,2.2449,2.2287,2.217,2.2147,2.2142,2.2094,2.2152,2.2335,2.2458,2.2467,2.2318,2.214,2.2216,2.2216,2.2494,2.2708,4.6812,4.5847,4.4835,4.4265,4.4153,4.4226,4.4344,4.4487,4.4659,4.4852,4.5014,4.517,4.5309,4.5438,4.538,4.5198,4.4854,4.4068,4.3569,4.319,4.1903,4.1295,4.1269,4.0781,4.0492,4.0503,4.0476,4.0315,3.9969,3.9181,3.88,3.8717,3.8298,3.8118,3.8142,3.7996,3.7673,3.7196,3.6857,3.6505,3.6058,3.6012,3.6015,3.6009,3.6017,3.5976,3.5897,3.5883,3.5885,3.5882,3.5882,3.5872,3.5768,3.5531,3.5238,3.4906,3.4778,3.4719,3.4726,3.4898,3.4986,3.4889,3.5004,3.5062,3.4955,3.4859,3.4749,3.4604,3.4484,3.4374,3.4293,3.4209,3.4006,3.3661,3.3056,3.2463,3.1823,3.1354,3.0821,3.0363,3.0161,2.9742,2.933,2.879,2.826,2.7676,2.7227,2.6775,2.6404,2.6146,2.5941,2.5924,2.586,2.5662,2.5133,2.4072,2.3414,2.3201,2.3024,2.2912,2.2777,2.264,2.2618,2.2657,2.2625,2.2648,2.2777,2.2602,2.2655,2.2638,2.2463,2.234,2.2309,2.2616,2.283,4.5955,4.4761,4.4196,4.407,4.4199,4.43,4.4397,4.457,4.4776,4.4955,4.5148,4.5258,4.5409,4.5485,4.5541,4.5513,4.5361,4.4612,4.4257,4.4158,4.2813,4.2041,4.1731,4.12,4.0758,4.0535,4.0512,4.0531,4.0481,3.9988,3.974,3.9718,3.9181,3.8978,3.9057,3.8931,3.8544,3.8062,3.7524,3.6949,3.6455,3.6132,3.6013,3.6061,3.624,3.6213,3.5925,3.5888,3.5885,3.5864,3.5861,3.585,3.5807,3.5797,3.5794,3.5757,3.5644,3.5577,3.5556,3.5483,3.5391,3.5254,3.5113,3.4982,3.4898,3.48,3.4708,3.4612,3.4484,3.4363,3.4281,3.4136,3.4036,3.3968,3.3403,3.2818,3.2506,3.2018,3.1588,3.1222,3.081,3.0317,2.9835,2.9475,2.8989,2.8396,2.802,2.7721,2.7307,2.7116,2.7051,2.7036,2.6867,2.6683,2.6398,2.5654,2.4429,2.4079,2.3663,2.3502,2.3253,2.3127,2.3102,2.3109,2.3136,2.315,2.3049,2.2856,2.2798,2.2839,2.2647,2.2494,2.2604,2.2787,2.303,4.4822,4.4116,4.4005,4.4085,4.4229,4.4358,4.4482,4.4646,4.487,4.5061,4.5224,4.5351,4.5429,4.5504,4.5577,4.5594,4.5451,4.4797,4.4451,4.4344,4.3412,4.2585,4.1939,4.1631,4.1158,4.0523,4.0573,4.0588,4.0569,4.0509,4.0505,4.0616,4.0526,4.0463,4.081,4.003,3.9701,3.9318,3.8204,3.7425,3.7201,3.6504,3.6088,3.6093,3.6698,3.6748,3.6005,3.597,3.5962,3.5822,3.5795,3.5801,3.5788,3.5799,3.5776,3.5713,3.5618,3.5562,3.5515,3.5381,3.5262,3.5141,3.4982,3.4908,3.4819,3.4747,3.4666,3.4583,3.4473,3.4351,3.4257,3.4061,3.3913,3.3881,3.3692,3.3237,3.2649,3.2721,3.2829,3.2212,3.1758,3.1601,3.1218,3.068,3.0057,2.9321,2.8921,2.8564,2.7944,2.7747,2.7502,2.7476,2.7689,2.7779,2.7597,2.7251,2.6046,2.5025,2.4531,2.4177,2.3779,2.3569,2.3598,2.3618,2.3633,2.3649,2.381,2.3612,2.3289,2.3185,2.2957,2.2787,2.2939,2.315,2.3318,4.4278,4.4153,4.4135,4.4211,4.4344,4.4426,4.4565,4.4745,4.4986,4.517,4.5338,4.5429,4.5504,4.5577,4.564,4.5657,4.5646,4.5362,4.5247,4.501,4.3808,4.3015,4.2595,4.1535,4.0822,4.0617,4.0586,4.0593,4.06,4.0647,4.0681,4.0726,4.0812,4.0858,4.0902,4.0696,4.0376,3.9774,3.9291,3.8504,3.7439,3.705,3.6633,3.615,3.6774,3.7016,3.6745,3.6727,3.6425,3.5875,3.5756,3.5727,3.5737,3.5723,3.5718,3.5643,3.5575,3.5534,3.5482,3.5335,3.5182,3.51,3.4992,3.4869,3.4758,3.4666,3.4612,3.4528,3.4363,3.4233,3.4148,3.3959,3.3815,3.3766,3.3633,3.3404,3.2976,3.2898,3.2672,3.2284,3.2002,3.171,3.1351,3.0982,3.0616,3.0146,2.9775,2.9415,2.9221,2.8941,2.9103,2.9135,2.913,2.8881,2.8626,2.8378,2.7632,2.6435,2.5681,2.4976,2.4508,2.4147,2.4147,2.4138,2.4174,2.4243,2.438,2.4251,2.3862,2.3543,2.3258,2.3258,2.336,2.3526,2.3721,4.4147,4.4226,4.4274,4.4344,4.4458,4.4551,4.468,4.4865,4.5072,4.5265,4.5408,4.5495,4.5577,4.564,4.5662,4.5687,4.5687,4.568,4.5719,4.5607,4.4685,4.3813,4.3084,4.1458,4.0641,4.0636,4.0662,4.0668,4.0675,4.0752,4.0769,4.0798,4.0868,4.093,4.0957,4.0994,4.0723,4.0301,3.9966,3.933,3.8417,3.7948,3.7511,3.7168,3.7753,3.7932,3.7663,3.7844,3.7478,3.6448,3.5936,3.5723,3.5713,3.5688,3.5643,3.5585,3.5527,3.5482,3.5412,3.525,3.5117,3.5029,3.4908,3.481,3.4697,3.4623,3.4539,3.4484,3.4316,3.4142,3.4043,3.3881,3.3726,3.3587,3.3495,3.3319,3.3168,3.2884,3.2607,3.2301,3.2055,3.1766,3.1449,3.114,3.0882,3.0634,3.0422,3.0227,3.0167,3.0038,3.0087,3.0108,2.9945,2.9725,2.9608,2.937,2.909,2.8038,2.6952,2.6108,2.5419,2.5055,2.4906,2.4862,2.4841,2.4826,2.4925,2.4599,2.4232,2.3897,2.3662,2.3721,2.3852,2.3956,2.4147,4.4314,4.4329,4.4383,4.4454,4.4551,4.4719,4.4858,4.4955,4.5173,4.5329,4.5419,4.5541,4.564,4.569,4.5692,4.5708,4.5715,4.5712,4.5773,4.5781,4.5464,4.4749,4.3173,4.1802,4.1216,4.1105,4.1007,4.0961,4.1025,4.0939,4.0912,4.0898,4.0948,4.0995,4.1007,4.1072,4.108,4.0899,4.0345,3.9978,3.9706,3.9081,3.8566,3.8502,3.9142,3.9226,3.8673,3.8999,3.868,3.7215,3.6154,3.5679,3.5683,3.5637,3.5604,3.557,3.5534,3.5427,3.5312,3.5176,3.5038,3.4898,3.4791,3.4687,3.4666,3.4569,3.4484,3.445,3.4262,3.4124,3.3985,3.382,3.3633,3.3437,3.3378,3.3211,3.2948,3.2737,3.2607,3.2405,3.2126,3.1857,3.1654,3.1387,3.1117,3.0882,3.0757,3.0609,3.0459,3.038,3.0401,3.038,3.0338,3.0234,2.9992,2.9892,2.9569,2.8973,2.795,2.7111,2.6187,2.5719,2.552,2.5499,2.5392,2.541,2.5272,2.4935,2.465,2.445,2.4292,2.4276,2.4321,2.4465,2.458,4.4487,4.4524,4.4592,4.4659,4.4732,4.4931,4.5049,4.5129,4.5291,4.5429,4.5541,4.5631,4.5671,4.5692,4.575,4.5773,4.5788,4.5831,4.5859,4.5892,4.5899,4.4943,4.3631,4.2939,4.2646,4.2601,4.2082,4.1829,4.1796,4.1358,4.1069,4.0971,4.1169,4.1131,4.1076,4.1136,4.1115,4.1087,4.0934,4.0448,3.9961,3.9726,3.9234,3.8717,3.9403,3.9663,3.9374,3.9498,3.8757,3.7077,3.6102,3.5635,3.5648,3.5601,3.5559,3.5515,3.5455,3.535,3.5242,3.5108,3.4964,3.4841,3.474,3.4674,3.4569,3.4484,3.4393,3.4281,3.4136,3.3998,3.3855,3.3726,3.3563,3.339,3.3301,3.3132,3.2963,3.2852,3.2739,3.2489,3.2353,3.2126,3.1875,3.1617,3.1387,3.1173,3.0995,3.0855,3.0712,3.0605,3.0605,3.0485,3.0422,3.0401,3.0326,3.0241,3.0021,2.9614,2.8828,2.8012,2.698,2.6057,2.599,2.5981,2.573,2.5687,2.5536,2.5286,2.5104,2.4921,2.4821,2.4778,2.4878,2.4991,2.509,4.4699,4.4719,4.4821,4.4902,4.4943,4.5148,4.5237,4.53,4.5429,4.5512,4.561,4.5695,4.5735,4.5761,4.5817,4.5845,4.5847,4.5919,4.5938,4.5956,4.6,4.5269,4.4186,4.368,4.3466,4.3497,4.303,4.284,4.2731,4.2295,4.2117,4.2169,4.2164,4.2013,4.167,4.1645,4.1437,4.1189,4.1132,4.0879,4.0469,4.0409,4.0192,3.9794,4.013,4.0306,4.0198,3.9806,3.8728,3.7226,3.6404,3.5987,3.5622,3.5578,3.5547,3.5481,3.5412,3.5312,3.5166,3.5037,3.4908,3.4811,3.4718,3.4623,3.4517,3.4439,3.434,3.4221,3.4074,3.3947,3.3802,3.3671,3.3577,3.3491,3.339,3.3238,3.3073,3.3026,3.29,3.2706,3.2524,3.2353,3.2126,3.1874,3.1653,3.1464,3.1271,3.1095,3.0952,3.0851,3.0708,3.0547,3.0422,3.0338,3.0231,3.0146,2.9951,2.9627,2.9125,2.8426,2.7602,2.6519,2.6323,2.6263,2.6095,2.5893,2.5757,2.5619,2.5536,2.537,2.53,2.5244,2.53,2.537,2.5467,4.495,4.4943,4.5072,4.5148,4.5151,4.5329,4.541,4.5438,4.5549,4.5618,4.5657,4.5765,4.5791,4.5821,4.5874,4.5925,4.5911,4.5997,4.6005,4.6037,4.6046,4.5636,4.5013,4.4374,4.4136,4.4062,4.3854,4.3737,4.3665,4.359,4.3524,4.3372,4.3473,4.3248,4.2606,4.2417,4.1951,4.1444,4.123,4.1152,4.1015,4.0976,4.0875,4.085,4.0826,4.0886,4.0647,4.0075,3.8951,3.7281,3.7082,3.6594,3.5913,3.5695,3.5553,3.5467,3.5376,3.5246,3.5105,3.4963,3.486,3.4769,3.4666,3.455,3.4473,3.4397,3.4316,3.4166,3.4074,3.3947,3.3802,3.3684,3.3643,3.3647,3.3647,3.3534,3.3378,3.3226,3.307,3.2932,3.269,3.2523,3.2336,3.2108,3.1855,3.1653,3.1483,3.1329,3.1134,3.0972,3.0753,3.051,3.0401,3.0253,3.0124,2.9989,2.9748,2.9464,2.899,2.8435,2.7939,2.715,2.6773,2.6527,2.6286,2.6125,2.5975,2.5893,2.5839,2.5757,2.5591,2.5564,2.555,2.5605,2.5674,4.5203,4.5213,4.5291,4.5341,4.5361,4.5503,4.5565,4.5563,4.5632,4.5696,4.5764,4.5786,4.5815,4.5867,4.5943,4.598,4.5989,4.6047,4.6091,4.6154,4.618,4.6138,4.59,4.5572,4.5584,4.5406,4.4944,4.471,4.4596,4.4154,4.371,4.3771,4.3936,4.3608,4.3415,4.2869,4.2343,4.2031,4.1562,4.123,4.1132,4.1131,4.1108,4.1099,4.1061,4.0993,4.0902,4.0652,3.9965,3.9007,3.8182,3.7488,3.6639,3.64,3.6044,3.5506,3.5339,3.5234,3.5081,3.4926,3.4782,3.4718,3.4594,3.4473,3.4351,3.4328,3.4257,3.4148,3.4067,3.3947,3.3847,3.3793,3.3793,3.382,3.3834,3.3793,3.3684,3.3477,3.3286,3.3088,3.2916,3.2739,3.2507,3.2371,3.2108,3.1873,3.1671,3.1521,3.131,3.1092,3.0814,3.0531,3.0359,3.021,3.0033,2.988,2.9614,2.9366,2.8936,2.8549,2.8063,2.7665,2.7192,2.6817,2.6447,2.634,2.6286,2.6152,2.6098,2.6002,2.5893,2.5825,2.5771,2.5839,2.5839,4.5438,4.5448,4.5475,4.5493,4.551,4.5588,4.5673,4.5692,4.5734,4.5786,4.5828,4.5874,4.5911,4.5933,4.5997,4.6042,4.6051,4.6107,4.6173,4.6232,4.6241,4.6256,4.6286,4.6263,4.624,4.6164,4.5852,4.5637,4.5443,4.5172,4.5018,4.492,4.4882,4.4726,4.4355,4.3789,4.3183,4.244,4.201,4.1579,4.1188,4.111,4.1102,4.1101,4.1053,4.0964,4.0893,4.0809,4.0468,3.9965,3.942,3.8363,3.7028,3.6699,3.6234,3.5515,3.5316,3.5229,3.5082,3.4917,3.4762,3.4697,3.458,3.445,3.434,3.4293,3.4233,3.4136,3.4061,3.4011,3.3926,3.3913,3.3921,3.3952,3.3965,3.3908,3.3829,3.3684,3.3509,3.3268,3.3086,3.2884,3.2707,3.2508,3.2284,3.1965,3.1691,3.1542,3.1404,3.1171,3.0838,3.0572,3.0321,3.0146,2.9968,2.9748,2.948,2.9252,2.8982,2.8668,2.8299,2.7915,2.7549,2.7167,2.6791,2.6686,2.6606,2.6474,2.6313,2.6179,2.6098,2.6002,2.5921,2.5893,2.5866,4.5631,4.5601,4.5632,4.5629,4.5637,4.5704,4.5764,4.5814,4.5827,4.5874,4.5923,4.5983,4.6016,4.6027,4.6078,4.6111,4.6151,4.6181,4.6241,4.6283,4.6284,4.6289,4.6288,4.6288,4.6288,4.6288,4.6211,4.6211,4.6211,4.6288,4.5956,4.6189,4.6226,4.5757,4.5287,4.4954,4.4271,4.3178,4.2768,4.22,4.1554,4.1397,4.1345,4.1074,4.1049,4.0964,4.0873,4.0781,4.0655,4.0595,4.0534,3.9273,3.7777,3.6865,3.6483,3.5603,3.545,3.5229,3.5101,3.4917,3.4781,3.4706,3.4569,3.4427,3.4335,3.4474,3.4537,3.4457,3.4414,3.4296,3.406,3.4011,3.4011,3.4036,3.4036,3.3985,3.3921,3.3873,3.3689,3.3452,3.3244,3.3044,3.2755,3.2524,3.2301,3.209,3.1802,3.1579,3.1443,3.1249,3.0938,3.0634,3.0422,3.0081,2.988,2.9786,2.9518,2.9298,2.9052,2.8818,2.8565,2.8284,2.7949,2.7499,2.7192,2.7078,2.6896,2.6712,2.6553,2.6394,2.6206,2.6029,2.5975,2.5921,2.5893,4.5684,4.5692,4.5749,4.5778,4.5766,4.5828,4.588,4.588,4.5943,4.5972,4.5991,4.6061,4.6074,4.6084,4.6154,4.6199,4.6245,4.6256,4.6284,4.6289,4.6289,4.6306,4.63,4.6297,4.6295,4.6294,4.6299,4.6303,4.6303,4.6303,4.6281,4.6301,4.6301,4.6104,4.585,4.5423,4.4951,4.4248,4.3741,4.3056,4.2388,4.2145,4.1872,4.1392,4.131,4.1153,4.0955,4.0796,4.0668,4.0607,4.0534,3.9869,3.8911,3.8142,3.7348,3.65,3.5748,3.54,3.5245,3.4936,3.4771,3.4626,3.4495,3.4381,3.4425,3.4835,3.5064,3.5151,3.5045,3.4871,3.416,3.4086,3.4111,3.4148,3.4148,3.4099,3.3998,3.3913,3.3766,3.3524,3.3334,3.3155,3.2854,3.2557,3.2318,3.2126,3.1911,3.1654,3.1483,3.131,3.1098,3.0797,3.0506,3.0162,2.9808,2.9764,2.9608,2.945,2.9252,2.9098,2.8858,2.8684,2.8356,2.7949,2.7575,2.7361,2.7181,2.6974,2.6712,2.65,2.6286,2.6084,2.6002,2.5948,2.5921,4.5807,4.5814,4.5887,4.5906,4.5912,4.5941,4.5964,4.6005,4.6032,4.6056,4.6074,4.6099,4.6144,4.6147,4.6228,4.6277,4.6287,4.6289,4.6289,4.6303,4.6301,4.6297,4.6288,4.6287,4.6302,4.6298,4.6302,4.6306,4.6287,4.6262,4.6243,4.6241,4.6261,4.6262,4.6246,4.5914,4.541,4.5042,4.4573,4.3965,4.3156,4.3019,4.2668,4.245,4.2201,4.2005,4.1521,4.1429,4.1098,4.0714,4.0527,4.0292,3.9815,3.91,3.8235,3.7348,3.6441,3.5853,3.5598,3.522,3.4739,3.4561,3.448,3.4358,3.4468,3.4915,3.551,3.5535,3.546,3.5088,3.4272,3.4241,3.4173,3.4185,3.4253,3.421,3.406,3.4002,3.3808,3.3607,3.3367,3.3155,3.2902,3.2607,3.2353,3.2144,3.1965,3.1764,3.1559,3.1387,3.1196,3.0797,3.0485,3.0124,2.9814,2.9764,2.972,2.9563,2.9428,2.9275,2.9137,2.8928,2.8732,2.8444,2.8113,2.775,2.7463,2.7284,2.6948,2.6606,2.6379,2.6192,2.6056,2.5961,2.5921,4.5917,4.5923,4.5989,4.6025,4.603,4.6022,4.6066,4.6104,4.6115,4.6115,4.6134,4.6181,4.6223,4.6234,4.6257,4.6289,4.6306,4.6305,4.6301,4.6294,4.6291,4.6306,4.6302,4.6298,4.6294,4.6288,4.6275,4.6277,4.6262,4.6219,4.6209,4.6214,4.6209,4.6231,4.6223,4.6171,4.5763,4.5514,4.5242,4.4807,4.4122,4.3718,4.3553,4.3504,4.3471,4.2989,4.2357,4.2226,4.1899,4.1385,4.1001,4.0804,4.0623,3.993,3.9152,3.8367,3.7354,3.6772,3.6388,3.5939,3.5388,3.4978,3.4749,3.4533,3.4543,3.5126,3.59,3.5919,3.603,3.5776,3.5144,3.4773,3.4779,3.4804,3.4829,3.468,3.4607,3.4457,3.4161,3.3876,3.3508,3.3158,3.2854,3.2557,3.2266,3.2126,3.1947,3.1783,3.1596,3.1464,3.1215,3.0777,3.0405,3.0081,2.9858,2.9808,2.9764,2.9681,2.9586,2.9457,2.9321,2.916,2.8951,2.8755,2.8597,2.8229,2.79,2.7539,2.7218,2.6907,2.6566,2.6299,2.6111,2.5975,2.5921,4.5991,4.5997,4.6056,4.6084,4.6089,4.615,4.6165,4.6192,4.6186,4.6198,4.6187,4.6246,4.6278,4.6283,4.6289,4.6305,4.6299,4.6295,4.6293,4.6305,4.6303,4.6302,4.6298,4.629,4.6303,4.6294,4.6248,4.6209,4.6215,4.6198,4.6201,4.6181,4.6198,4.6209,4.6226,4.6255,4.6267,4.615,4.611,4.5665,4.4829,4.4113,4.3793,4.3651,4.3557,4.3421,4.3169,4.3052,4.2819,4.263,4.1974,4.1681,4.15,4.0814,4.0345,3.9625,3.8647,3.7507,3.7356,3.6893,3.6376,3.5754,3.5579,3.5074,3.5175,3.5795,3.6816,3.7578,3.7535,3.7021,3.6283,3.6278,3.6313,3.6144,3.5932,3.5945,3.5874,3.5064,3.4745,3.4134,3.3764,3.3225,3.2807,3.249,3.2179,3.2055,3.1946,3.1817,3.1754,3.1707,3.1249,3.0773,3.0464,3.0124,2.9924,2.9874,2.983,2.977,2.9704,2.9608,2.9434,2.9275,2.9144,2.8959,2.8803,2.8629,2.8259,2.789,2.7524,2.7141,2.675,2.6433,2.6138,2.6029,2.5948,4.6093,4.6056,4.6123,4.6148,4.6151,4.6181,4.6214,4.6199,4.6257,4.6264,4.627,4.6286,4.6289,4.6288,4.6302,4.6296,4.6288,4.6306,4.6305,4.6302,4.63,4.6296,4.6292,4.6306,4.6299,4.6251,4.6229,4.6181,4.6169,4.6146,4.615,4.6153,4.6183,4.6209,4.6203,4.6237,4.6248,4.6228,4.6201,4.6001,4.5577,4.5179,4.49,4.4837,4.4712,4.4394,4.4013,4.3871,4.3546,4.3214,4.267,4.253,4.2428,4.2059,4.1653,4.0921,4.0291,3.9296,3.8281,3.7602,3.7002,3.6599,3.6379,3.6304,3.6378,3.6835,3.7429,3.7819,3.7894,3.7546,3.6931,3.6658,3.6599,3.6596,3.6791,3.6602,3.6448,3.5984,3.5382,3.4676,3.4033,3.3543,3.3081,3.2721,3.2423,3.2157,3.2153,3.2146,3.2185,3.229,3.1613,3.0749,3.0501,3.0248,3.0055,2.9902,2.9896,2.9836,2.9852,2.972,2.9541,2.9366,2.9236,2.9121,2.9006,2.8787,2.8541,2.8186,2.7775,2.7346,2.6933,2.6592,2.6313,2.6098,2.5962,4.6192,4.6164,4.6194,4.6225,4.6208,4.6209,4.6234,4.6235,4.6284,4.6306,4.6289,4.6287,4.6277,4.6287,4.6264,4.628,4.6275,4.6292,4.6273,4.6273,4.6273,4.6269,4.626,4.6253,4.6251,4.6169,4.6146,4.6113,4.6076,4.6052,4.6071,4.6104,4.6149,4.6189,4.6212,4.6209,4.6206,4.6209,4.619,4.6119,4.5981,4.5929,4.5838,4.5803,4.5754,4.5449,4.4869,4.4702,4.4292,4.3987,4.353,4.3378,4.3286,4.2831,4.2384,4.1818,4.1369,4.0825,3.9652,3.8703,3.7684,3.7225,3.6932,3.69,3.7604,3.7894,3.8066,3.8206,3.8243,3.7868,3.7401,3.7262,3.7332,3.7359,3.728,3.6996,3.6729,3.6482,3.6167,3.5609,3.4921,3.4087,3.3599,3.3125,3.2701,3.2329,3.2288,3.2455,3.2632,3.2855,3.2229,3.1383,3.0966,3.0634,3.0114,2.9984,2.994,2.9918,2.9896,2.9819,2.9634,2.9466,2.9344,2.9252,2.9248,2.8975,2.8724,2.8365,2.8024,2.76,2.7192,2.6777,2.65,2.6245,2.5962,4.6287,4.6299,4.6279,4.63,4.6301,4.6288,4.6289,4.6289,4.6289,4.6306,4.6282,4.6227,4.621,4.6219,4.6219,4.6216,4.6211,4.6209,4.6211,4.6211,4.6211,4.6228,4.6217,4.6196,4.6192,4.6119,4.6056,4.5991,4.5935,4.5923,4.5994,4.609,4.6095,4.6152,4.6162,4.6165,4.6192,4.6173,4.6131,4.6069,4.6007,4.5929,4.5893,4.5812,4.5743,4.5651,4.5596,4.5428,4.5278,4.5049,4.4523,4.4199,4.4038,4.3513,4.3022,4.258,4.2295,4.1813,4.1036,3.989,3.8896,3.8027,3.7445,3.7318,3.7992,3.7954,3.8206,3.8674,3.8674,3.8701,3.8607,3.8689,3.8327,3.8177,3.7985,3.7911,3.7625,3.7268,3.693,3.6504,3.5787,3.4888,3.4217,3.3754,3.3413,3.3036,3.3202,3.3384,3.3387,3.3467,3.2934,3.2265,3.1707,3.1115,3.0266,3.006,2.9984,2.9902,2.9896,2.9806,2.9691,2.9569,2.9621,2.9657,2.9682,2.9273,2.9038,2.904,2.879,2.8001,2.7437,2.6974,2.6513,2.6192,2.588,4.6305,4.6289,4.6306,4.6287,4.6289,4.6306,4.6302,4.6301,4.6254,4.6245,4.6236,4.6201,4.6211,4.6209,4.6206,4.6201,4.6215,4.6212,4.6206,4.6203,4.62,4.6174,4.6157,4.6135,4.6122,4.6042,4.5956,4.5892,4.5835,4.5834,4.5848,4.5925,4.5997,4.6046,4.6085,4.6122,4.613,4.6113,4.6061,4.6005,4.5943,4.588,4.5822,4.5754,4.573,4.5648,4.5566,4.554,4.5513,4.5409,4.5112,4.4959,4.4815,4.4274,4.3822,4.3304,4.3014,4.2596,4.1916,4.0833,3.9693,3.8904,3.8349,3.8201,3.8479,3.8507,3.8608,3.8861,3.8935,3.8925,3.8829,3.88,3.8696,3.8728,3.8686,3.8606,3.835,3.7861,3.7412,3.6888,3.6255,3.551,3.4956,3.4415,3.4106,3.3829,3.4081,3.426,3.428,3.4209,3.3747,3.3128,3.255,3.1793,3.0968,3.0478,3.0082,2.9946,2.9874,2.9875,2.9877,3.0082,3.0108,3.0149,3.0267,3.0163,3.0082,3.0029,2.9506,2.8571,2.7759,2.7104,2.6645,2.6193,2.5825,4.6288,4.6301,4.6266,4.6288,4.6301,4.627,4.6262,4.6261,4.621,4.6214,4.6201,4.6198,4.6212,4.6209,4.6206,4.6196,4.618,4.6153,4.6181,4.6174,4.6142,4.6115,4.6074,4.6047,4.6002,4.5958,4.5899,4.5827,4.5734,4.5773,4.5754,4.5771,4.5834,4.5925,4.6016,4.6047,4.6061,4.6021,4.5997,4.5925,4.5852,4.5773,4.5722,4.5648,4.5603,4.5568,4.5495,4.5476,4.5457,4.5419,4.5323,4.5301,4.5227,4.5041,4.4668,4.4146,4.3653,4.3193,4.2445,4.1332,4.0387,3.9536,3.9341,3.9131,3.9024,3.8939,3.8869,3.8844,3.8881,3.887,3.8814,3.8762,3.8765,3.8704,3.8704,3.8624,3.8449,3.8085,3.7654,3.7198,3.6667,3.6269,3.5862,3.5366,3.4914,3.4757,3.5028,3.5177,3.515,3.5046,3.4784,3.4092,3.3368,3.2562,3.1743,3.1226,3.0675,2.993,2.9939,3.0084,3.0165,3.0393,3.064,3.071,3.0867,3.107,3.0948,3.0595,2.9881,2.9017,2.8214,2.7369,2.6866,2.6435,2.5881,4.6295,4.63,4.6232,4.6253,4.628,4.624,4.6211,4.6214,4.6209,4.6198,4.6203,4.6209,4.6212,4.6201,4.6201,4.6142,4.6102,4.6099,4.61,4.6076,4.6032,4.6002,4.598,4.5947,4.5899,4.5874,4.5798,4.57,4.562,4.5643,4.5643,4.5651,4.5731,4.5833,4.5966,4.5986,4.5969,4.5917,4.5893,4.5793,4.5715,4.5654,4.5586,4.5522,4.5466,4.5438,4.5438,4.539,4.538,4.536,4.5298,4.5213,4.5103,4.4919,4.4682,4.4468,4.4261,4.4039,4.3779,4.2218,4.112,4.0288,4.0089,3.9852,3.9243,3.9043,3.9165,3.9399,3.9197,3.9001,3.8845,3.8762,3.8836,3.8689,3.8707,3.8627,3.8433,3.8236,3.7818,3.7451,3.7325,3.7094,3.6764,3.6342,3.58,3.5683,3.5973,3.6038,3.5897,3.5727,3.5467,3.4976,3.4181,3.3472,3.2682,3.1923,3.1238,3.0419,3.016,3.0528,3.0702,3.0879,3.1077,3.1255,3.1546,3.1836,3.1476,3.1021,3.051,2.9928,2.8563,2.7679,2.7178,2.6662,2.6147,4.6234,4.6238,4.6206,4.6203,4.6226,4.6217,4.6212,4.6212,4.6203,4.6213,4.6203,4.6208,4.6197,4.6185,4.6156,4.609,4.6042,4.5975,4.5972,4.5962,4.5912,4.588,4.5854,4.5814,4.5764,4.5739,4.566,4.5593,4.5531,4.5538,4.5566,4.5603,4.5651,4.5769,4.5841,4.5886,4.5919,4.5826,4.5742,4.5657,4.5575,4.5513,4.5448,4.5429,4.54,4.54,4.539,4.5341,4.5298,4.5246,4.517,4.5045,4.4895,4.4719,4.456,4.4393,4.4188,4.3989,4.3761,4.2896,4.2196,4.138,4.0824,4.0698,4.0425,4.0362,4.0349,4.0241,4.0113,3.9932,3.9677,3.9551,3.9423,3.8817,3.8673,3.8578,3.8433,3.8236,3.7928,3.7649,3.7466,3.7124,3.6788,3.6509,3.6105,3.5956,3.6163,3.6215,3.6107,3.6096,3.5904,3.5574,3.4993,3.4332,3.3604,3.2801,3.2133,3.1477,3.1297,3.1509,3.1598,3.1476,3.1876,3.2224,3.243,3.2572,3.2113,3.1753,3.1562,3.0905,2.9548,2.8302,2.7609,2.7045,2.6413,4.6209,4.6198,4.6203,4.6216,4.6196,4.6196,4.6196,4.6213,4.6196,4.6208,4.6204,4.6185,4.6145,4.6128,4.6081,4.603,4.5972,4.5912,4.5841,4.5838,4.5788,4.5746,4.5723,4.5684,4.5632,4.561,4.553,4.5448,4.5467,4.5429,4.5438,4.5503,4.5582,4.5632,4.5704,4.5734,4.5769,4.57,4.5635,4.5538,4.5476,4.5438,4.539,4.5361,4.5341,4.532,4.5298,4.5254,4.5178,4.5091,4.4974,4.4852,4.468,4.4519,4.435,4.4155,4.3955,4.3798,4.3612,4.3511,4.2829,4.2271,4.1816,4.145,4.125,4.096,4.0965,4.0985,4.1168,4.0857,4.0451,4.0322,3.9992,3.9405,3.9098,3.9035,3.8579,3.8365,3.8092,3.7829,3.7428,3.7103,3.6766,3.6527,3.6197,3.6232,3.6284,3.6284,3.6284,3.6237,3.6229,3.5955,3.5583,3.4975,3.4285,3.3551,3.2966,3.2485,3.2324,3.2192,3.2197,3.2072,3.2643,3.3051,3.2919,3.2809,3.271,3.2501,3.202,3.1477,3.0622,2.9402,2.8239,2.7442,2.6792,4.6203,4.6203,4.6206,4.6199,4.6199,4.6199,4.6196,4.6196,4.6197,4.6209,4.6205,4.6122,4.6071,4.6007,4.6016,4.596,4.5874,4.5817,4.5746,4.5692,4.5627,4.562,4.5586,4.5531,4.5513,4.5466,4.5419,4.539,4.5399,4.5409,4.5419,4.5419,4.5475,4.5512,4.5556,4.5573,4.559,4.5558,4.5513,4.5448,4.5389,4.5369,4.5329,4.5298,4.5267,4.5224,4.517,4.5091,4.4979,4.487,4.4764,4.4613,4.4449,4.4248,4.4094,4.3939,4.3732,4.3632,4.3582,4.3532,4.3478,4.3016,4.2687,4.2011,4.1662,4.1625,4.1717,4.1664,4.1701,4.1444,4.115,4.1001,4.0799,4.0359,3.9958,3.9514,3.8909,3.8566,3.8274,3.79,3.7443,3.7044,3.6725,3.6464,3.6284,3.6284,3.6284,3.6284,3.6284,3.6284,3.6259,3.6237,3.5861,3.5513,3.4868,3.4225,3.3743,3.3226,3.2651,3.2456,3.2499,3.2577,3.2809,3.2981,3.3022,3.2962,3.2742,3.2523,3.2216,3.1656,3.1137,3.0277,2.903,2.7953,2.7229,4.6206,4.6206,4.6199,4.6199,4.6196,4.6204,4.6197,4.6193,4.6154,4.6126,4.6126,4.6042,4.6002,4.5983,4.5899,4.5821,4.5761,4.5695,4.5618,4.5558,4.5504,4.5485,4.5457,4.5448,4.5438,4.5419,4.537,4.5339,4.5348,4.537,4.5409,4.5419,4.5419,4.5419,4.5419,4.5438,4.5429,4.541,4.5361,4.5339,4.5297,4.5275,4.5235,4.5224,4.5192,4.5148,4.5068,4.4919,4.4821,4.4732,4.45,4.4298,4.4214,4.4033,4.3894,4.3714,4.3599,4.3532,4.3513,4.3496,4.3479,4.3479,4.3204,4.3167,4.2873,4.2671,4.2635,4.2488,4.2433,4.2304,4.2066,4.1846,4.1499,4.1042,4.0698,4.0306,3.9753,3.9386,3.905,3.8323,3.7839,3.7099,3.6759,3.6444,3.6284,3.6284,3.6284,3.6284,3.6284,3.6284,3.6284,3.628,3.6075,3.5688,3.5453,3.4873,3.4428,3.3941,3.3331,3.2871,3.2956,3.2987,3.2945,3.2879,3.285,3.2784,3.2633,3.2425,3.2231,3.2035,3.1573,3.0745,2.9856,2.8828,2.7853,4.6199,4.6199,4.6199,4.6215,4.6181,4.6177,4.616,4.6108,4.6075,4.6066,4.6061,4.6,4.5929,4.5906,4.5807,4.5739,4.5679,4.5566,4.5495,4.5467,4.539,4.539,4.537,4.536,4.5359,4.5338,4.5328,4.5298,4.5307,4.5328,4.5378,4.5359,4.537,4.5341,4.533,4.5319,4.5258,4.5237,4.5216,4.5224,4.5203,4.517,4.517,4.517,4.5148,4.5045,4.4962,4.4783,4.464,4.4546,4.4273,4.4109,4.4002,4.3862,4.3732,4.3582,4.3549,4.3515,4.3496,4.3496,4.3479,4.3479,4.3479,4.3442,4.3406,4.324,4.3277,4.3259,4.3314,4.3296,4.3002,4.269,4.2161,4.165,4.1418,4.1187,4.0797,4.042,3.9747,3.8951,3.8169,3.737,3.6863,3.6537,3.6284,3.6284,3.6262,3.6259,3.628,3.6297,3.6301,3.6284,3.611,3.5859,3.56,3.5281,3.4783,3.4276,3.3899,3.353,3.3503,3.3214,3.298,3.2792,3.2633,3.2578,3.2523,3.2425,3.2259,3.2092,3.1979,3.1428,3.0671,2.9811,2.8883,4.6196,4.6215,4.6196,4.6197,4.6177,4.6114,4.6061,4.5991,4.598,4.5986,4.5969,4.5918,4.5834,4.5786,4.5712,4.5643,4.5558,4.5467,4.5429,4.5417,4.5329,4.5309,4.5309,4.5307,4.5317,4.5307,4.5277,4.5277,4.5277,4.5326,4.5356,4.5354,4.5479,4.5632,4.5857,4.5617,4.5524,4.5426,4.527,4.5159,4.5148,4.5136,4.5095,4.5106,4.5014,4.4902,4.4815,4.4659,4.4458,4.431,4.4143,4.3976,4.3814,4.3734,4.3582,4.3531,4.3515,4.3515,4.3479,4.3479,4.3479,4.3479,4.3479,4.3479,4.3479,4.3479,4.3479,4.3479,4.3461,4.3442,4.3222,4.313,4.2766,4.2441,4.2191,4.1885,4.147,4.0939,4.0119,3.9347,3.8597,3.7862,3.753,3.7254,3.6762,3.6521,3.6259,3.6255,3.6247,3.6247,3.6251,3.6237,3.6045,3.5844,3.5577,3.5258,3.4923,3.4521,3.4151,3.3797,3.3477,3.3214,3.2935,3.2757,3.2566,3.2496,3.2425,3.237,3.2315,3.2274,3.2135,3.2051,3.1439,3.0667,2.9967,4.6208,4.6193,4.6158,4.6089,4.6052,4.6037,4.5989,4.5932,4.5867,4.5874,4.5899,4.5834,4.5764,4.5673,4.5627,4.5559,4.5448,4.5543,4.5379,4.5453,4.5441,4.566,4.5411,4.5621,4.5468,4.5277,4.5277,4.5488,4.5564,4.5545,4.5679,4.6137,4.6233,4.6391,4.6782,4.6458,4.6077,4.582,4.5432,4.5152,4.5026,4.5026,4.5014,4.4979,4.4883,4.4776,4.4672,4.4496,4.4277,4.4113,4.3947,4.3786,4.3582,4.3566,4.3532,4.3515,4.3479,4.3479,4.3479,4.3479,4.3479,4.3479,4.3479,4.3479,4.3479,4.3479,4.3479,4.3479,4.3479,4.3479,4.3479,4.3461,4.3372,4.3139,4.2886,4.2486,4.2063,4.1276,4.0453,3.9767,3.9047,3.8599,3.8264,3.7818,3.7344,3.6892,3.6401,3.6221,3.6187,3.6182,3.6109,3.6092,3.5932,3.5734,3.5509,3.5281,3.4994,3.4586,3.4217,3.3848,3.3461,3.3134,3.2827,3.2676,3.2523,3.2468,3.2398,3.2398,3.237,3.233,3.2274,3.2163,3.2107,3.1509,3.0966,4.6166,4.6149,4.608,4.6042,4.6,4.5972,4.5905,4.5854,4.5798,4.5761,4.5773,4.5723,4.5648,4.5556,4.5532,4.5534,4.5504,4.5779,4.5901,4.5918,4.6175,4.6481,4.6405,4.629,4.6538,4.6424,4.6405,4.6481,4.629,4.6481,4.6806,4.7024,4.712,4.7277,4.7647,4.7186,4.6758,4.6246,4.5752,4.5349,4.5052,4.4926,4.4919,4.4883,4.4757,4.4646,4.451,4.4354,4.4128,4.3942,4.3767,4.3651,4.3531,4.3496,4.3496,4.3479,4.3479,4.3479,4.3479,4.3479,4.3479,4.3479,4.3479,4.3479,4.3479,4.3479,4.3479,4.3479,4.3479,4.3479,4.3462,4.3462,4.334,4.3123,4.2848,4.2495,4.2011,4.1372,4.0845,4.045,3.975,3.9089,3.8723,3.8237,3.7837,3.7717,3.718,3.6725,3.6551,3.6405,3.6263,3.6139,3.6123,3.583,3.5577,3.535,3.5088,3.4683,3.4291,3.3873,3.3487,3.3054,3.2703,3.2648,3.2551,3.2425,3.2398,3.2398,3.2398,3.237,3.2342,3.2287,3.2247,3.2219,3.1777,4.6104,4.6075,4.6007,4.5989,4.5968,4.5906,4.5833,4.5764,4.5715,4.5646,4.5586,4.5577,4.5541,4.5486,4.5592,4.5552,4.5779,4.6437,4.6615,4.6863,4.7322,4.7302,4.7417,4.7616,4.7513,4.7494,4.7483,4.7502,4.7474,4.7502,4.7551,4.7865,4.7968,4.7972,4.791,4.7736,4.7509,4.691,4.6348,4.5729,4.5275,4.4821,4.4808,4.4745,4.4627,4.4482,4.4335,4.4188,4.3974,4.3814,4.3667,4.3566,4.3496,4.3479,4.3479,4.3479,4.3479,4.3479,4.3479,4.3479,4.3479,4.3479,4.3497,4.3479,4.3479,4.3479,4.3479,4.3479,4.3479,4.348,4.3463,4.341,4.3269,4.303,4.2747,4.2416,4.1903,4.1396,4.1123,4.0843,4.0298,3.96,3.9228,3.8743,3.848,3.8378,3.8058,3.7671,3.7296,3.7103,3.6927,3.6769,3.6695,3.6321,3.5746,3.5486,3.5265,3.4875,3.4472,3.4,3.3539,3.3214,3.2893,3.2691,3.2594,3.2496,3.2425,3.2398,3.2398,3.2398,3.2398,3.2342,3.2342,3.2315,3.237,4.6021,4.6019,4.5956,4.5887,4.5827,4.5776,4.57,4.5646,4.5566,4.5505,4.5477,4.5457,4.5419,4.5476,4.6146,4.6353,4.6464,4.7139,4.7483,4.7654,4.7976,4.7911,4.7979,4.8262,4.7903,4.7941,4.8075,4.7865,4.8266,4.8124,4.82,4.8793,4.8831,4.9045,4.947,4.9105,4.8422,4.777,4.6884,4.6157,4.5785,4.5292,4.4736,4.46,4.4524,4.4321,4.4158,4.4033,4.3878,4.3699,4.3565,4.3496,4.3534,4.3571,4.3644,4.3773,4.3736,4.3828,4.3864,4.3736,4.3736,4.3663,4.3626,4.3479,4.3479,4.3497,4.348,4.348,4.348,4.3445,4.3429,4.3358,4.3233,4.2805,4.2436,4.2065,4.1591,4.1209,4.0901,4.0734,4.0494,4.0151,4.0034,3.9583,3.9126,3.8932,3.855,3.8156,3.7899,3.7733,3.7625,3.7422,3.7252,3.6523,3.5824,3.5723,3.5498,3.5101,3.4683,3.4201,3.3771,3.345,3.316,3.2854,3.2648,3.2551,3.2496,3.2398,3.2398,3.2398,3.2398,3.2398,3.2398,3.2398,3.2398]}]]